<?xml version='1.0' encoding='UTF-8'?>
<gpx version="1.1" creator="https://www.komoot.de" xmlns="http://www.topografix.com/GPX/1/1" xmlns:xsi="http://www.w3.org/2001/XMLSchema-instance" xsi:schemaLocation="http://www.topografix.com/GPX/1/1 http://www.topografix.com/GPX/1/1/gpx.xsd">
  <metadata>
    <name>70_870WittnauRheinsulz</name>
    <author>
      <link href="https://www.komoot.de">
        <text>komoot</text>
        <type>text/html</type>
      </link>
    </author>
  </metadata>
  <trk>
    <name>70_870WittnauRheinsulz</name>
    <trkseg>
      <trkpt lat="47.541280" lon="7.870899">
        <ele>342.673101</ele>
        <time>2021-11-20T15:44:45.532Z</time>
      </trkpt>
      <trkpt lat="47.541234" lon="7.870937">
        <ele>342.673101</ele>
        <time>2021-11-20T15:44:46.678Z</time>
      </trkpt>
      <trkpt lat="47.540933" lon="7.871187">
        <ele>342.673101</ele>
        <time>2021-11-20T15:44:54.602Z</time>
      </trkpt>
      <trkpt lat="47.540894" lon="7.871220">
        <ele>342.673101</ele>
        <time>2021-11-20T15:44:55.735Z</time>
      </trkpt>
      <trkpt lat="47.540693" lon="7.871390">
        <ele>342.673101</ele>
        <time>2021-11-20T15:45:01.133Z</time>
      </trkpt>
      <trkpt lat="47.540463" lon="7.871584">
        <ele>342.744592</ele>
        <time>2021-11-20T15:45:07.314Z</time>
      </trkpt>
      <trkpt lat="47.540265" lon="7.871808">
        <ele>343.195829</ele>
        <time>2021-11-20T15:45:12.791Z</time>
      </trkpt>
      <trkpt lat="47.540216" lon="7.871851">
        <ele>343.298981</ele>
        <time>2021-11-20T15:45:14.254Z</time>
      </trkpt>
      <trkpt lat="47.540034" lon="7.871970">
        <ele>343.659300</ele>
        <time>2021-11-20T15:45:18.819Z</time>
      </trkpt>
      <trkpt lat="47.539930" lon="7.872041">
        <ele>343.866705</ele>
        <time>2021-11-20T15:45:21.393Z</time>
      </trkpt>
      <trkpt lat="47.539841" lon="7.872151">
        <ele>344.076641</ele>
        <time>2021-11-20T15:45:24.419Z</time>
      </trkpt>
      <trkpt lat="47.539678" lon="7.872430">
        <ele>344.527781</ele>
        <time>2021-11-20T15:45:29.935Z</time>
      </trkpt>
      <trkpt lat="47.539222" lon="7.873416">
        <ele>345.963348</ele>
        <time>2021-11-20T15:45:47.476Z</time>
      </trkpt>
      <trkpt lat="47.538278" lon="7.874319">
        <ele>347.099347</ele>
        <time>2021-11-20T15:46:07.130Z</time>
      </trkpt>
      <trkpt lat="47.537716" lon="7.874966">
        <ele>347.886608</ele>
        <time>2021-11-20T15:46:21.105Z</time>
      </trkpt>
      <trkpt lat="47.537261" lon="7.875237">
        <ele>348.863035</ele>
        <time>2021-11-20T15:46:30.622Z</time>
      </trkpt>
      <trkpt lat="47.537182" lon="7.875293">
        <ele>349.037413</ele>
        <time>2021-11-20T15:46:32.610Z</time>
      </trkpt>
      <trkpt lat="47.536921" lon="7.875537">
        <ele>349.651927</ele>
        <time>2021-11-20T15:46:38.577Z</time>
      </trkpt>
      <trkpt lat="47.536757" lon="7.875759">
        <ele>350.094278</ele>
        <time>2021-11-20T15:46:43.179Z</time>
      </trkpt>
      <trkpt lat="47.536632" lon="7.875912">
        <ele>350.417140</ele>
        <time>2021-11-20T15:46:46.347Z</time>
      </trkpt>
      <trkpt lat="47.536444" lon="7.876177">
        <ele>350.933864</ele>
        <time>2021-11-20T15:46:53.309Z</time>
      </trkpt>
      <trkpt lat="47.535851" lon="7.877319">
        <ele>355.101430</ele>
        <time>2021-11-20T15:47:24.623Z</time>
      </trkpt>
      <trkpt lat="47.535770" lon="7.877432">
        <ele>355.643874</ele>
        <time>2021-11-20T15:47:28.803Z</time>
      </trkpt>
      <trkpt lat="47.535635" lon="7.877484">
        <ele>356.323889</ele>
        <time>2021-11-20T15:47:34.670Z</time>
      </trkpt>
      <trkpt lat="47.535551" lon="7.877487">
        <ele>356.733509</ele>
        <time>2021-11-20T15:47:36.578Z</time>
      </trkpt>
      <trkpt lat="47.535322" lon="7.877590">
        <ele>357.900222</ele>
        <time>2021-11-20T15:47:46.630Z</time>
      </trkpt>
      <trkpt lat="47.535088" lon="7.877742">
        <ele>359.145851</ele>
        <time>2021-11-20T15:47:54.462Z</time>
      </trkpt>
      <trkpt lat="47.534855" lon="7.878090">
        <ele>360.772391</ele>
        <time>2021-11-20T15:48:06.445Z</time>
      </trkpt>
      <trkpt lat="47.534778" lon="7.878270">
        <ele>361.488012</ele>
        <time>2021-11-20T15:48:13.752Z</time>
      </trkpt>
      <trkpt lat="47.534825" lon="7.878414">
        <ele>362.025154</ele>
        <time>2021-11-20T15:48:16.378Z</time>
      </trkpt>
      <trkpt lat="47.534946" lon="7.878790">
        <ele>363.423981</ele>
        <time>2021-11-20T15:48:28.426Z</time>
      </trkpt>
      <trkpt lat="47.534908" lon="7.878975">
        <ele>364.073383</ele>
        <time>2021-11-20T15:48:32.484Z</time>
      </trkpt>
      <trkpt lat="47.534616" lon="7.879490">
        <ele>366.331907</ele>
        <time>2021-11-20T15:48:49.431Z</time>
      </trkpt>
      <trkpt lat="47.533892" lon="7.880353">
        <ele>369.898308</ele>
        <time>2021-11-20T15:49:17.170Z</time>
      </trkpt>
      <trkpt lat="47.533606" lon="7.880961">
        <ele>371.009971</ele>
        <time>2021-11-20T15:49:29.479Z</time>
      </trkpt>
      <trkpt lat="47.533374" lon="7.881639">
        <ele>372.150275</ele>
        <time>2021-11-20T15:49:40.525Z</time>
      </trkpt>
      <trkpt lat="47.533014" lon="7.882949">
        <ele>372.958214</ele>
        <time>2021-11-20T15:49:58.440Z</time>
      </trkpt>
      <trkpt lat="47.532859" lon="7.883508">
        <ele>372.896410</ele>
        <time>2021-11-20T15:50:04.317Z</time>
      </trkpt>
      <trkpt lat="47.532713" lon="7.884122">
        <ele>372.829833</ele>
        <time>2021-11-20T15:50:10.015Z</time>
      </trkpt>
      <trkpt lat="47.532699" lon="7.884224">
        <ele>372.819188</ele>
        <time>2021-11-20T15:50:10.969Z</time>
      </trkpt>
      <trkpt lat="47.532670" lon="7.884773">
        <ele>372.699667</ele>
        <time>2021-11-20T15:50:15.463Z</time>
      </trkpt>
      <trkpt lat="47.532658" lon="7.884989">
        <ele>372.469786</ele>
        <time>2021-11-20T15:50:17.075Z</time>
      </trkpt>
      <trkpt lat="47.532650" lon="7.885569">
        <ele>371.854463</ele>
        <time>2021-11-20T15:50:21.577Z</time>
      </trkpt>
      <trkpt lat="47.532505" lon="7.887120">
        <ele>370.193650</ele>
        <time>2021-11-20T15:50:33.528Z</time>
      </trkpt>
      <trkpt lat="47.532288" lon="7.887728">
        <ele>369.463689</ele>
        <time>2021-11-20T15:50:38.705Z</time>
      </trkpt>
      <trkpt lat="47.532011" lon="7.888896">
        <ele>368.149219</ele>
        <time>2021-11-20T15:50:47.935Z</time>
      </trkpt>
      <trkpt lat="47.531843" lon="7.889349">
        <ele>367.600435</ele>
        <time>2021-11-20T15:50:51.971Z</time>
      </trkpt>
      <trkpt lat="47.531560" lon="7.889776">
        <ele>367.119786</ele>
        <time>2021-11-20T15:50:56.911Z</time>
      </trkpt>
      <trkpt lat="47.531265" lon="7.889937">
        <ele>367.134320</ele>
        <time>2021-11-20T15:51:00.879Z</time>
      </trkpt>
      <trkpt lat="47.531076" lon="7.890029">
        <ele>367.143518</ele>
        <time>2021-11-20T15:51:03.721Z</time>
      </trkpt>
      <trkpt lat="47.530606" lon="7.890373">
        <ele>367.167755</ele>
        <time>2021-11-20T15:51:11.570Z</time>
      </trkpt>
      <trkpt lat="47.530322" lon="7.890690">
        <ele>367.184196</ele>
        <time>2021-11-20T15:51:17.563Z</time>
      </trkpt>
      <trkpt lat="47.529972" lon="7.891210">
        <ele>367.393252</ele>
        <time>2021-11-20T15:51:26.725Z</time>
      </trkpt>
      <trkpt lat="47.529714" lon="7.891609">
        <ele>367.784031</ele>
        <time>2021-11-20T15:51:34.059Z</time>
      </trkpt>
      <trkpt lat="47.529695" lon="7.891638">
        <ele>367.812614</ele>
        <time>2021-11-20T15:51:35.045Z</time>
      </trkpt>
      <trkpt lat="47.529235" lon="7.892158">
        <ele>368.418850</ele>
        <time>2021-11-20T15:51:45.979Z</time>
      </trkpt>
      <trkpt lat="47.528331" lon="7.892682">
        <ele>369.589571</ele>
        <time>2021-11-20T15:52:04.681Z</time>
      </trkpt>
      <trkpt lat="47.528003" lon="7.892732">
        <ele>370.085418</ele>
        <time>2021-11-20T15:52:10.387Z</time>
      </trkpt>
      <trkpt lat="47.527498" lon="7.892650">
        <ele>370.849379</ele>
        <time>2021-11-20T15:52:19.860Z</time>
      </trkpt>
      <trkpt lat="47.527011" lon="7.893061">
        <ele>371.692286</ele>
        <time>2021-11-20T15:52:33.052Z</time>
      </trkpt>
      <trkpt lat="47.526709" lon="7.893617">
        <ele>372.953822</ele>
        <time>2021-11-20T15:52:45.584Z</time>
      </trkpt>
      <trkpt lat="47.526504" lon="7.894030">
        <ele>373.918443</ele>
        <time>2021-11-20T15:52:55.765Z</time>
      </trkpt>
      <trkpt lat="47.526451" lon="7.893983">
        <ele>374.090610</ele>
        <time>2021-11-20T15:52:57.155Z</time>
      </trkpt>
      <trkpt lat="47.526401" lon="7.893964">
        <ele>374.234473</ele>
        <time>2021-11-20T15:52:57.972Z</time>
      </trkpt>
      <trkpt lat="47.526335" lon="7.893960">
        <ele>374.418567</ele>
        <time>2021-11-20T15:53:00.046Z</time>
      </trkpt>
      <trkpt lat="47.526257" lon="7.894278">
        <ele>375.055272</ele>
        <time>2021-11-20T15:53:06.258Z</time>
      </trkpt>
      <trkpt lat="47.525725" lon="7.895110">
        <ele>377.023280</ele>
        <time>2021-11-20T15:53:25.340Z</time>
      </trkpt>
      <trkpt lat="47.525603" lon="7.895265">
        <ele>377.266117</ele>
        <time>2021-11-20T15:53:30.956Z</time>
      </trkpt>
      <trkpt lat="47.525631" lon="7.895442">
        <ele>377.451566</ele>
        <time>2021-11-20T15:53:33.806Z</time>
      </trkpt>
      <trkpt lat="47.525631" lon="7.895583">
        <ele>377.595403</ele>
        <time>2021-11-20T15:53:34.997Z</time>
      </trkpt>
      <trkpt lat="47.525622" lon="7.895944">
        <ele>377.963916</ele>
        <time>2021-11-20T15:53:42.432Z</time>
      </trkpt>
      <trkpt lat="47.525590" lon="7.896117">
        <ele>378.146897</ele>
        <time>2021-11-20T15:53:43.985Z</time>
      </trkpt>
      <trkpt lat="47.525518" lon="7.896336">
        <ele>378.395375</ele>
        <time>2021-11-20T15:53:48.793Z</time>
      </trkpt>
      <trkpt lat="47.524834" lon="7.897636">
        <ele>379.508380</ele>
        <time>2021-11-20T15:54:05.716Z</time>
      </trkpt>
      <trkpt lat="47.524617" lon="7.898216">
        <ele>379.497297</ele>
        <time>2021-11-20T15:54:11.889Z</time>
      </trkpt>
      <trkpt lat="47.524360" lon="7.898951">
        <ele>379.483462</ele>
        <time>2021-11-20T15:54:19.430Z</time>
      </trkpt>
      <trkpt lat="47.524309" lon="7.899115">
        <ele>379.480444</ele>
        <time>2021-11-20T15:54:21.344Z</time>
      </trkpt>
      <trkpt lat="47.523896" lon="7.900001">
        <ele>380.209404</ele>
        <time>2021-11-20T15:54:33.267Z</time>
      </trkpt>
      <trkpt lat="47.523861" lon="7.900049">
        <ele>380.291669</ele>
        <time>2021-11-20T15:54:34.246Z</time>
      </trkpt>
      <trkpt lat="47.523890" lon="7.900131">
        <ele>380.399464</ele>
        <time>2021-11-20T15:54:35.201Z</time>
      </trkpt>
      <trkpt lat="47.523945" lon="7.900256">
        <ele>380.573205</ele>
        <time>2021-11-20T15:54:36.792Z</time>
      </trkpt>
      <trkpt lat="47.523989" lon="7.900340">
        <ele>380.697005</ele>
        <time>2021-11-20T15:54:37.842Z</time>
      </trkpt>
      <trkpt lat="47.523957" lon="7.900371">
        <ele>380.762949</ele>
        <time>2021-11-20T15:54:38.547Z</time>
      </trkpt>
      <trkpt lat="47.523878" lon="7.900445">
        <ele>380.924153</ele>
        <time>2021-11-20T15:54:40.664Z</time>
      </trkpt>
      <trkpt lat="47.523739" lon="7.900557">
        <ele>381.197047</ele>
        <time>2021-11-20T15:54:43.595Z</time>
      </trkpt>
      <trkpt lat="47.523648" lon="7.900606">
        <ele>381.364030</ele>
        <time>2021-11-20T15:54:45.774Z</time>
      </trkpt>
      <trkpt lat="47.523620" lon="7.900698">
        <ele>381.481546</ele>
        <time>2021-11-20T15:54:47.737Z</time>
      </trkpt>
      <trkpt lat="47.523567" lon="7.900820">
        <ele>381.650481</ele>
        <time>2021-11-20T15:54:49.835Z</time>
      </trkpt>
      <trkpt lat="47.523433" lon="7.901043">
        <ele>381.998102</ele>
        <time>2021-11-20T15:54:55.079Z</time>
      </trkpt>
      <trkpt lat="47.523340" lon="7.901197">
        <ele>382.238695</ele>
        <time>2021-11-20T15:54:59.121Z</time>
      </trkpt>
      <trkpt lat="47.523036" lon="7.901580">
        <ele>383.415104</ele>
        <time>2021-11-20T15:55:10.817Z</time>
      </trkpt>
      <trkpt lat="47.522688" lon="7.901843">
        <ele>385.022600</ele>
        <time>2021-11-20T15:55:23.135Z</time>
      </trkpt>
      <trkpt lat="47.522554" lon="7.901999">
        <ele>385.723908</ele>
        <time>2021-11-20T15:55:29.456Z</time>
      </trkpt>
      <trkpt lat="47.522260" lon="7.902356">
        <ele>387.288228</ele>
        <time>2021-11-20T15:55:41.829Z</time>
      </trkpt>
      <trkpt lat="47.522132" lon="7.902476">
        <ele>387.911541</ele>
        <time>2021-11-20T15:55:46.387Z</time>
      </trkpt>
      <trkpt lat="47.522065" lon="7.902526">
        <ele>388.220233</ele>
        <time>2021-11-20T15:55:48.581Z</time>
      </trkpt>
      <trkpt lat="47.522038" lon="7.902562">
        <ele>388.369718</ele>
        <time>2021-11-20T15:55:50.085Z</time>
      </trkpt>
      <trkpt lat="47.522013" lon="7.902637">
        <ele>388.602108</ele>
        <time>2021-11-20T15:55:52.219Z</time>
      </trkpt>
      <trkpt lat="47.521792" lon="7.903347">
        <ele>390.545747</ele>
        <time>2021-11-20T15:56:08.287Z</time>
      </trkpt>
      <trkpt lat="47.521297" lon="7.904312">
        <ele>392.949835</ele>
        <time>2021-11-20T15:56:32.289Z</time>
      </trkpt>
      <trkpt lat="47.520989" lon="7.905130">
        <ele>394.807849</ele>
        <time>2021-11-20T15:56:47.704Z</time>
      </trkpt>
      <trkpt lat="47.520678" lon="7.906050">
        <ele>395.561216</ele>
        <time>2021-11-20T15:57:01.174Z</time>
      </trkpt>
      <trkpt lat="47.520566" lon="7.906668">
        <ele>395.802503</ele>
        <time>2021-11-20T15:57:08.193Z</time>
      </trkpt>
      <trkpt lat="47.520528" lon="7.906930">
        <ele>395.903553</ele>
        <time>2021-11-20T15:57:11.454Z</time>
      </trkpt>
      <trkpt lat="47.520515" lon="7.907103">
        <ele>395.969193</ele>
        <time>2021-11-20T15:57:13.251Z</time>
      </trkpt>
      <trkpt lat="47.520506" lon="7.907236">
        <ele>396.019597</ele>
        <time>2021-11-20T15:57:14.328Z</time>
      </trkpt>
      <trkpt lat="47.520551" lon="7.907422">
        <ele>396.094101</ele>
        <time>2021-11-20T15:57:16.738Z</time>
      </trkpt>
      <trkpt lat="47.520733" lon="7.907655">
        <ele>396.228441</ele>
        <time>2021-11-20T15:57:19.924Z</time>
      </trkpt>
      <trkpt lat="47.520738" lon="7.907839">
        <ele>396.276557</ele>
        <time>2021-11-20T15:57:22.067Z</time>
      </trkpt>
      <trkpt lat="47.520493" lon="7.908683">
        <ele>396.409086</ele>
        <time>2021-11-20T15:57:30.246Z</time>
      </trkpt>
      <trkpt lat="47.519997" lon="7.910833">
        <ele>397.068680</ele>
        <time>2021-11-20T15:57:56.193Z</time>
      </trkpt>
      <trkpt lat="47.519891" lon="7.911129">
        <ele>397.296657</ele>
        <time>2021-11-20T15:58:00.783Z</time>
      </trkpt>
      <trkpt lat="47.519720" lon="7.911522">
        <ele>397.614770</ele>
        <time>2021-11-20T15:58:06.867Z</time>
      </trkpt>
      <trkpt lat="47.519421" lon="7.912098">
        <ele>398.109114</ele>
        <time>2021-11-20T15:58:16.434Z</time>
      </trkpt>
      <trkpt lat="47.517688" lon="7.914418">
        <ele>400.569481</ele>
        <time>2021-11-20T15:59:01.012Z</time>
      </trkpt>
      <trkpt lat="47.517281" lon="7.915238">
        <ele>401.220647</ele>
        <time>2021-11-20T15:59:14.026Z</time>
      </trkpt>
      <trkpt lat="47.517140" lon="7.915259">
        <ele>401.354913</ele>
        <time>2021-11-20T15:59:16.526Z</time>
      </trkpt>
      <trkpt lat="47.516806" lon="7.914896">
        <ele>401.747465</ele>
        <time>2021-11-20T15:59:24.101Z</time>
      </trkpt>
      <trkpt lat="47.516748" lon="7.914873">
        <ele>401.804354</ele>
        <time>2021-11-20T15:59:25.273Z</time>
      </trkpt>
      <trkpt lat="47.516662" lon="7.914835">
        <ele>401.889387</ele>
        <time>2021-11-20T15:59:27.064Z</time>
      </trkpt>
      <trkpt lat="47.516626" lon="7.914830">
        <ele>401.923645</ele>
        <time>2021-11-20T15:59:27.759Z</time>
      </trkpt>
      <trkpt lat="47.516590" lon="7.914840">
        <ele>401.958349</ele>
        <time>2021-11-20T15:59:28.355Z</time>
      </trkpt>
      <trkpt lat="47.516569" lon="7.914864">
        <ele>401.983484</ele>
        <time>2021-11-20T15:59:28.889Z</time>
      </trkpt>
      <trkpt lat="47.516544" lon="7.914936">
        <ele>402.035288</ele>
        <time>2021-11-20T15:59:29.736Z</time>
      </trkpt>
      <trkpt lat="47.516391" lon="7.915243">
        <ele>402.271152</ele>
        <time>2021-11-20T15:59:34.529Z</time>
      </trkpt>
      <trkpt lat="47.515014" lon="7.917030">
        <ele>404.038040</ele>
        <time>2021-11-20T16:00:08.305Z</time>
      </trkpt>
      <trkpt lat="47.514635" lon="7.917349">
        <ele>404.641930</ele>
        <time>2021-11-20T16:00:16.424Z</time>
      </trkpt>
      <trkpt lat="47.514561" lon="7.917409">
        <ele>404.758798</ele>
        <time>2021-11-20T16:00:18.316Z</time>
      </trkpt>
      <trkpt lat="47.514255" lon="7.917714">
        <ele>405.269768</ele>
        <time>2021-11-20T16:00:25.784Z</time>
      </trkpt>
      <trkpt lat="47.513378" lon="7.918393">
        <ele>406.991524</ele>
        <time>2021-11-20T16:00:47.511Z</time>
      </trkpt>
      <trkpt lat="47.513160" lon="7.918764">
        <ele>407.829551</ele>
        <time>2021-11-20T16:00:55.013Z</time>
      </trkpt>
      <trkpt lat="47.513058" lon="7.918896">
        <ele>408.171367</ele>
        <time>2021-11-20T16:00:58.168Z</time>
      </trkpt>
      <trkpt lat="47.512938" lon="7.919052">
        <ele>408.574296</ele>
        <time>2021-11-20T16:01:01.948Z</time>
      </trkpt>
      <trkpt lat="47.512664" lon="7.919306">
        <ele>409.389970</ele>
        <time>2021-11-20T16:01:10.171Z</time>
      </trkpt>
      <trkpt lat="47.512255" lon="7.919538">
        <ele>410.495083</ele>
        <time>2021-11-20T16:01:22.096Z</time>
      </trkpt>
      <trkpt lat="47.512085" lon="7.919732">
        <ele>411.136698</ele>
        <time>2021-11-20T16:01:28.305Z</time>
      </trkpt>
      <trkpt lat="47.511964" lon="7.919989">
        <ele>411.858102</ele>
        <time>2021-11-20T16:01:34.785Z</time>
      </trkpt>
      <trkpt lat="47.511883" lon="7.920133">
        <ele>412.289635</ele>
        <time>2021-11-20T16:01:38.798Z</time>
      </trkpt>
      <trkpt lat="47.511632" lon="7.920105">
        <ele>413.147801</ele>
        <time>2021-11-20T16:01:47.779Z</time>
      </trkpt>
      <trkpt lat="47.511375" lon="7.920079">
        <ele>414.026041</ele>
        <time>2021-11-20T16:01:56.275Z</time>
      </trkpt>
      <trkpt lat="47.510704" lon="7.919944">
        <ele>416.334725</ele>
        <time>2021-11-20T16:02:18.783Z</time>
      </trkpt>
      <trkpt lat="47.510627" lon="7.919935">
        <ele>416.598060</ele>
        <time>2021-11-20T16:02:21.120Z</time>
      </trkpt>
      <trkpt lat="47.510551" lon="7.919925">
        <ele>416.858190</ele>
        <time>2021-11-20T16:02:24.229Z</time>
      </trkpt>
      <trkpt lat="47.509902" lon="7.920009">
        <ele>419.349725</ele>
        <time>2021-11-20T16:02:44.827Z</time>
      </trkpt>
      <trkpt lat="47.509811" lon="7.920040">
        <ele>419.707300</ele>
        <time>2021-11-20T16:02:48.811Z</time>
      </trkpt>
      <trkpt lat="47.509809" lon="7.920155">
        <ele>420.004854</ele>
        <time>2021-11-20T16:02:50.405Z</time>
      </trkpt>
      <trkpt lat="47.509746" lon="7.920320">
        <ele>420.495103</ele>
        <time>2021-11-20T16:02:53.645Z</time>
      </trkpt>
      <trkpt lat="47.509586" lon="7.920497">
        <ele>421.259952</ele>
        <time>2021-11-20T16:03:02.023Z</time>
      </trkpt>
      <trkpt lat="47.509370" lon="7.920707">
        <ele>422.249495</ele>
        <time>2021-11-20T16:03:10.330Z</time>
      </trkpt>
      <trkpt lat="47.509138" lon="7.920939">
        <ele>423.321580</ele>
        <time>2021-11-20T16:03:19.292Z</time>
      </trkpt>
      <trkpt lat="47.508613" lon="7.921495">
        <ele>426.149197</ele>
        <time>2021-11-20T16:03:38.872Z</time>
      </trkpt>
      <trkpt lat="47.508585" lon="7.921587">
        <ele>426.456135</ele>
        <time>2021-11-20T16:03:39.804Z</time>
      </trkpt>
      <trkpt lat="47.508464" lon="7.921688">
        <ele>427.081657</ele>
        <time>2021-11-20T16:03:46.111Z</time>
      </trkpt>
      <trkpt lat="47.508248" lon="7.921916">
        <ele>428.276265</ele>
        <time>2021-11-20T16:03:53.697Z</time>
      </trkpt>
      <trkpt lat="47.508175" lon="7.922172">
        <ele>429.121510</ele>
        <time>2021-11-20T16:04:00.256Z</time>
      </trkpt>
      <trkpt lat="47.508171" lon="7.922196">
        <ele>429.196702</ele>
        <time>2021-11-20T16:04:02.095Z</time>
      </trkpt>
      <trkpt lat="47.508141" lon="7.922350">
        <ele>429.684231</ele>
        <time>2021-11-20T16:04:04.668Z</time>
      </trkpt>
      <trkpt lat="47.508128" lon="7.922441">
        <ele>429.967158</ele>
        <time>2021-11-20T16:04:07.464Z</time>
      </trkpt>
      <trkpt lat="47.508064" lon="7.922687">
        <ele>430.769025</ele>
        <time>2021-11-20T16:04:13.973Z</time>
      </trkpt>
      <trkpt lat="47.507981" lon="7.923001">
        <ele>431.794681</ele>
        <time>2021-11-20T16:04:22.287Z</time>
      </trkpt>
      <trkpt lat="47.507956" lon="7.923075">
        <ele>431.925769</ele>
        <time>2021-11-20T16:04:24.278Z</time>
      </trkpt>
      <trkpt lat="47.507876" lon="7.923234">
        <ele>432.113958</ele>
        <time>2021-11-20T16:04:28.603Z</time>
      </trkpt>
      <trkpt lat="47.507823" lon="7.923307">
        <ele>432.215683</ele>
        <time>2021-11-20T16:04:30.336Z</time>
      </trkpt>
      <trkpt lat="47.507715" lon="7.923412">
        <ele>432.397246</ele>
        <time>2021-11-20T16:04:35.052Z</time>
      </trkpt>
      <trkpt lat="47.507337" lon="7.923777">
        <ele>433.031419</ele>
        <time>2021-11-20T16:04:43.426Z</time>
      </trkpt>
      <trkpt lat="47.507226" lon="7.923898">
        <ele>433.225121</ele>
        <time>2021-11-20T16:04:47.018Z</time>
      </trkpt>
      <trkpt lat="47.507191" lon="7.924066">
        <ele>433.392001</ele>
        <time>2021-11-20T16:04:48.567Z</time>
      </trkpt>
      <trkpt lat="47.506562" lon="7.924949">
        <ele>434.164324</ele>
        <time>2021-11-20T16:05:01.466Z</time>
      </trkpt>
      <trkpt lat="47.506019" lon="7.926055">
        <ele>432.727517</ele>
        <time>2021-11-20T16:05:11.164Z</time>
      </trkpt>
      <trkpt lat="47.505768" lon="7.926636">
        <ele>432.002775</ele>
        <time>2021-11-20T16:05:16.252Z</time>
      </trkpt>
      <trkpt lat="47.505699" lon="7.926906">
        <ele>431.699412</ele>
        <time>2021-11-20T16:05:18.965Z</time>
      </trkpt>
      <trkpt lat="47.505690" lon="7.927200">
        <ele>431.690178</ele>
        <time>2021-11-20T16:05:21.151Z</time>
      </trkpt>
      <trkpt lat="47.505748" lon="7.927310">
        <ele>431.752748</ele>
        <time>2021-11-20T16:05:22.910Z</time>
      </trkpt>
      <trkpt lat="47.505858" lon="7.927551">
        <ele>431.883167</ele>
        <time>2021-11-20T16:05:26.011Z</time>
      </trkpt>
      <trkpt lat="47.505881" lon="7.927601">
        <ele>431.910291</ele>
        <time>2021-11-20T16:05:27.154Z</time>
      </trkpt>
      <trkpt lat="47.505868" lon="7.927611">
        <ele>431.920016</ele>
        <time>2021-11-20T16:05:27.419Z</time>
      </trkpt>
      <trkpt lat="47.505814" lon="7.927657">
        <ele>431.961371</ele>
        <time>2021-11-20T16:05:28.689Z</time>
      </trkpt>
      <trkpt lat="47.505253" lon="7.928170">
        <ele>432.399072</ele>
        <time>2021-11-20T16:05:41.077Z</time>
      </trkpt>
      <trkpt lat="47.504799" lon="7.928777">
        <ele>432.814728</ele>
        <time>2021-11-20T16:05:51.391Z</time>
      </trkpt>
      <trkpt lat="47.504724" lon="7.928871">
        <ele>432.937828</ele>
        <time>2021-11-20T16:05:55.386Z</time>
      </trkpt>
      <trkpt lat="47.504650" lon="7.928941">
        <ele>433.047834</ele>
        <time>2021-11-20T16:05:57.358Z</time>
      </trkpt>
      <trkpt lat="47.504005" lon="7.929312">
        <ele>433.914647</ele>
        <time>2021-11-20T16:06:12.697Z</time>
      </trkpt>
      <trkpt lat="47.503815" lon="7.929426">
        <ele>434.171459</ele>
        <time>2021-11-20T16:06:15.566Z</time>
      </trkpt>
      <trkpt lat="47.503598" lon="7.929585">
        <ele>434.474763</ele>
        <time>2021-11-20T16:06:20.977Z</time>
      </trkpt>
      <trkpt lat="47.503528" lon="7.929650">
        <ele>434.578273</ele>
        <time>2021-11-20T16:06:22.036Z</time>
      </trkpt>
      <trkpt lat="47.503485" lon="7.929688">
        <ele>434.641006</ele>
        <time>2021-11-20T16:06:23.580Z</time>
      </trkpt>
      <trkpt lat="47.503014" lon="7.930220">
        <ele>435.273581</ele>
        <time>2021-11-20T16:06:33.665Z</time>
      </trkpt>
      <trkpt lat="47.502761" lon="7.930610">
        <ele>435.581806</ele>
        <time>2021-11-20T16:06:40.019Z</time>
      </trkpt>
      <trkpt lat="47.502613" lon="7.930856">
        <ele>435.769586</ele>
        <time>2021-11-20T16:06:43.816Z</time>
      </trkpt>
      <trkpt lat="47.502400" lon="7.931256">
        <ele>436.059928</ele>
        <time>2021-11-20T16:06:50.620Z</time>
      </trkpt>
      <trkpt lat="47.502023" lon="7.932158">
        <ele>436.630018</ele>
        <time>2021-11-20T16:07:03.637Z</time>
      </trkpt>
      <trkpt lat="47.501901" lon="7.932351">
        <ele>436.728315</ele>
        <time>2021-11-20T16:07:07.489Z</time>
      </trkpt>
      <trkpt lat="47.501794" lon="7.932466">
        <ele>436.801107</ele>
        <time>2021-11-20T16:07:09.309Z</time>
      </trkpt>
      <trkpt lat="47.501463" lon="7.932668">
        <ele>436.998199</ele>
        <time>2021-11-20T16:07:15.449Z</time>
      </trkpt>
      <trkpt lat="47.501075" lon="7.932885">
        <ele>437.226529</ele>
        <time>2021-11-20T16:07:22.982Z</time>
      </trkpt>
      <trkpt lat="47.500990" lon="7.932950">
        <ele>437.279197</ele>
        <time>2021-11-20T16:07:24.946Z</time>
      </trkpt>
      <trkpt lat="47.500843" lon="7.933102">
        <ele>437.377909</ele>
        <time>2021-11-20T16:07:27.688Z</time>
      </trkpt>
      <trkpt lat="47.500435" lon="7.933872">
        <ele>437.806334</ele>
        <time>2021-11-20T16:07:37.562Z</time>
      </trkpt>
      <trkpt lat="47.500386" lon="7.933937">
        <ele>437.855077</ele>
        <time>2021-11-20T16:07:38.398Z</time>
      </trkpt>
      <trkpt lat="47.500352" lon="7.933976">
        <ele>437.886942</ele>
        <time>2021-11-20T16:07:39.155Z</time>
      </trkpt>
      <trkpt lat="47.500275" lon="7.934029">
        <ele>437.949850</ele>
        <time>2021-11-20T16:07:40.309Z</time>
      </trkpt>
      <trkpt lat="47.500208" lon="7.934071">
        <ele>438.003752</ele>
        <time>2021-11-20T16:07:41.589Z</time>
      </trkpt>
      <trkpt lat="47.500193" lon="7.934023">
        <ele>438.030221</ele>
        <time>2021-11-20T16:07:42.051Z</time>
      </trkpt>
      <trkpt lat="47.500169" lon="7.933984">
        <ele>438.056623</ele>
        <time>2021-11-20T16:07:42.474Z</time>
      </trkpt>
      <trkpt lat="47.500138" lon="7.933956">
        <ele>438.083526</ele>
        <time>2021-11-20T16:07:42.992Z</time>
      </trkpt>
      <trkpt lat="47.500067" lon="7.933946">
        <ele>438.136361</ele>
        <time>2021-11-20T16:07:43.919Z</time>
      </trkpt>
      <trkpt lat="47.500034" lon="7.933965">
        <ele>438.162592</ele>
        <time>2021-11-20T16:07:44.734Z</time>
      </trkpt>
      <trkpt lat="47.499993" lon="7.933864">
        <ele>438.221564</ele>
        <time>2021-11-20T16:07:46.362Z</time>
      </trkpt>
      <trkpt lat="47.499822" lon="7.933272">
        <ele>438.543794</ele>
        <time>2021-11-20T16:07:54.240Z</time>
      </trkpt>
      <trkpt lat="47.499538" lon="7.932868">
        <ele>438.835594</ele>
        <time>2021-11-20T16:08:02.196Z</time>
      </trkpt>
      <trkpt lat="47.499421" lon="7.932805">
        <ele>438.982144</ele>
        <time>2021-11-20T16:08:05.248Z</time>
      </trkpt>
      <trkpt lat="47.499354" lon="7.932769">
        <ele>439.106545</ele>
        <time>2021-11-20T16:08:06.975Z</time>
      </trkpt>
      <trkpt lat="47.499088" lon="7.932741">
        <ele>439.571969</ele>
        <time>2021-11-20T16:08:12.852Z</time>
      </trkpt>
      <trkpt lat="47.498997" lon="7.932758">
        <ele>439.732051</ele>
        <time>2021-11-20T16:08:14.890Z</time>
      </trkpt>
      <trkpt lat="47.498925" lon="7.932781">
        <ele>439.860606</ele>
        <time>2021-11-20T16:08:16.597Z</time>
      </trkpt>
      <trkpt lat="47.498481" lon="7.933011">
        <ele>440.681608</ele>
        <time>2021-11-20T16:08:25.851Z</time>
      </trkpt>
      <trkpt lat="47.498431" lon="7.932995">
        <ele>440.770889</ele>
        <time>2021-11-20T16:08:27.073Z</time>
      </trkpt>
      <trkpt lat="47.498391" lon="7.932972">
        <ele>440.845784</ele>
        <time>2021-11-20T16:08:27.992Z</time>
      </trkpt>
      <trkpt lat="47.498196" lon="7.932613">
        <ele>441.388944</ele>
        <time>2021-11-20T16:08:34.716Z</time>
      </trkpt>
      <trkpt lat="47.498138" lon="7.932522">
        <ele>441.536460</ele>
        <time>2021-11-20T16:08:36.716Z</time>
      </trkpt>
      <trkpt lat="47.498068" lon="7.932426">
        <ele>441.703012</ele>
        <time>2021-11-20T16:08:39.163Z</time>
      </trkpt>
      <trkpt lat="47.497907" lon="7.932254">
        <ele>442.047624</ele>
        <time>2021-11-20T16:08:43.865Z</time>
      </trkpt>
      <trkpt lat="47.497676" lon="7.932013">
        <ele>442.498774</ele>
        <time>2021-11-20T16:08:50.344Z</time>
      </trkpt>
      <trkpt lat="47.497430" lon="7.931757">
        <ele>442.978817</ele>
        <time>2021-11-20T16:08:57.935Z</time>
      </trkpt>
      <trkpt lat="47.497221" lon="7.931528">
        <ele>443.393919</ele>
        <time>2021-11-20T16:09:03.932Z</time>
      </trkpt>
      <trkpt lat="47.497104" lon="7.931414">
        <ele>443.617526</ele>
        <time>2021-11-20T16:09:06.730Z</time>
      </trkpt>
      <trkpt lat="47.496998" lon="7.931330">
        <ele>443.809463</ele>
        <time>2021-11-20T16:09:09.141Z</time>
      </trkpt>
      <trkpt lat="47.496424" lon="7.931075">
        <ele>444.766138</ele>
        <time>2021-11-20T16:09:19.890Z</time>
      </trkpt>
      <trkpt lat="47.496205" lon="7.930904">
        <ele>445.223155</ele>
        <time>2021-11-20T16:09:23.910Z</time>
      </trkpt>
      <trkpt lat="47.496162" lon="7.930842">
        <ele>445.341466</ele>
        <time>2021-11-20T16:09:25.475Z</time>
      </trkpt>
      <trkpt lat="47.496117" lon="7.930763">
        <ele>445.479057</ele>
        <time>2021-11-20T16:09:26.743Z</time>
      </trkpt>
      <trkpt lat="47.496051" lon="7.930607">
        <ele>445.724147</ele>
        <time>2021-11-20T16:09:29.525Z</time>
      </trkpt>
      <trkpt lat="47.495985" lon="7.930428">
        <ele>445.995682</ele>
        <time>2021-11-20T16:09:32.357Z</time>
      </trkpt>
      <trkpt lat="47.495801" lon="7.929891">
        <ele>446.797435</ele>
        <time>2021-11-20T16:09:42.015Z</time>
      </trkpt>
      <trkpt lat="47.495622" lon="7.929400">
        <ele>447.540345</ele>
        <time>2021-11-20T16:09:50.628Z</time>
      </trkpt>
      <trkpt lat="47.495562" lon="7.929221">
        <ele>447.806419</ele>
        <time>2021-11-20T16:09:53.587Z</time>
      </trkpt>
      <trkpt lat="47.495530" lon="7.929063">
        <ele>448.026059</ele>
        <time>2021-11-20T16:09:56.062Z</time>
      </trkpt>
      <trkpt lat="47.495455" lon="7.928595">
        <ele>448.853893</ele>
        <time>2021-11-20T16:10:04.889Z</time>
      </trkpt>
      <trkpt lat="47.495268" lon="7.927740">
        <ele>451.053528</ele>
        <time>2021-11-20T16:10:21.898Z</time>
      </trkpt>
      <trkpt lat="47.495031" lon="7.927006">
        <ele>453.044704</ele>
        <time>2021-11-20T16:10:38.800Z</time>
      </trkpt>
      <trkpt lat="47.494945" lon="7.926765">
        <ele>453.711804</ele>
        <time>2021-11-20T16:10:45.443Z</time>
      </trkpt>
      <trkpt lat="47.494515" lon="7.925509">
        <ele>457.133755</ele>
        <time>2021-11-20T16:11:13.862Z</time>
      </trkpt>
      <trkpt lat="47.494438" lon="7.925289">
        <ele>457.733464</ele>
        <time>2021-11-20T16:11:19.295Z</time>
      </trkpt>
      <trkpt lat="47.494034" lon="7.924101">
        <ele>460.952679</ele>
        <time>2021-11-20T16:11:44.359Z</time>
      </trkpt>
      <trkpt lat="47.493708" lon="7.923049">
        <ele>463.749975</ele>
        <time>2021-11-20T16:12:05.931Z</time>
      </trkpt>
      <trkpt lat="47.493397" lon="7.921760">
        <ele>467.057182</ele>
        <time>2021-11-20T16:12:32.910Z</time>
      </trkpt>
      <trkpt lat="47.493307" lon="7.921373">
        <ele>468.106287</ele>
        <time>2021-11-20T16:12:41.404Z</time>
      </trkpt>
      <trkpt lat="47.493236" lon="7.921091">
        <ele>469.040049</ele>
        <time>2021-11-20T16:12:47.970Z</time>
      </trkpt>
      <trkpt lat="47.493132" lon="7.920716">
        <ele>470.297802</ele>
        <time>2021-11-20T16:12:57.217Z</time>
      </trkpt>
      <trkpt lat="47.492813" lon="7.919900">
        <ele>473.222941</ele>
        <time>2021-11-20T16:13:18.319Z</time>
      </trkpt>
      <trkpt lat="47.492584" lon="7.919482">
        <ele>474.892682</ele>
        <time>2021-11-20T16:13:31.091Z</time>
      </trkpt>
      <trkpt lat="47.492544" lon="7.919427">
        <ele>475.143409</ele>
        <time>2021-11-20T16:13:33.474Z</time>
      </trkpt>
      <trkpt lat="47.492406" lon="7.919235">
        <ele>476.013185</ele>
        <time>2021-11-20T16:13:39.553Z</time>
      </trkpt>
      <trkpt lat="47.492227" lon="7.918989">
        <ele>477.063581</ele>
        <time>2021-11-20T16:13:48.260Z</time>
      </trkpt>
      <trkpt lat="47.491324" lon="7.917985">
        <ele>481.894636</ele>
        <time>2021-11-20T16:14:24.929Z</time>
      </trkpt>
      <trkpt lat="47.490822" lon="7.917158">
        <ele>484.647954</ele>
        <time>2021-11-20T16:14:46.937Z</time>
      </trkpt>
      <trkpt lat="47.490607" lon="7.916690">
        <ele>485.713994</ele>
        <time>2021-11-20T16:14:57.136Z</time>
      </trkpt>
      <trkpt lat="47.490429" lon="7.916164">
        <ele>486.822153</ele>
        <time>2021-11-20T16:15:07.005Z</time>
      </trkpt>
      <trkpt lat="47.490283" lon="7.915612">
        <ele>487.938800</ele>
        <time>2021-11-20T16:15:16.833Z</time>
      </trkpt>
      <trkpt lat="47.489987" lon="7.914083">
        <ele>490.670770</ele>
        <time>2021-11-20T16:15:42.613Z</time>
      </trkpt>
      <trkpt lat="47.489951" lon="7.913893">
        <ele>490.996457</ele>
        <time>2021-11-20T16:15:45.607Z</time>
      </trkpt>
      <trkpt lat="47.489922" lon="7.913738">
        <ele>491.261908</ele>
        <time>2021-11-20T16:15:48.112Z</time>
      </trkpt>
      <trkpt lat="47.489843" lon="7.913398">
        <ele>491.855324</ele>
        <time>2021-11-20T16:15:53.459Z</time>
      </trkpt>
      <trkpt lat="47.489607" lon="7.912646">
        <ele>493.240878</ele>
        <time>2021-11-20T16:16:07.688Z</time>
      </trkpt>
      <trkpt lat="47.489216" lon="7.911685">
        <ele>496.188613</ele>
        <time>2021-11-20T16:16:30.002Z</time>
      </trkpt>
      <trkpt lat="47.489040" lon="7.911300">
        <ele>497.410082</ele>
        <time>2021-11-20T16:16:39.469Z</time>
      </trkpt>
      <trkpt lat="47.488908" lon="7.911009">
        <ele>498.331090</ele>
        <time>2021-11-20T16:16:48.029Z</time>
      </trkpt>
      <trkpt lat="47.488699" lon="7.910498">
        <ele>499.900717</ele>
        <time>2021-11-20T16:17:01.692Z</time>
      </trkpt>
      <trkpt lat="47.488366" lon="7.909318">
        <ele>502.949028</ele>
        <time>2021-11-20T16:17:27.565Z</time>
      </trkpt>
      <trkpt lat="47.488241" lon="7.908835">
        <ele>504.170082</ele>
        <time>2021-11-20T16:17:36.752Z</time>
      </trkpt>
      <trkpt lat="47.488185" lon="7.908663">
        <ele>504.620823</ele>
        <time>2021-11-20T16:17:40.803Z</time>
      </trkpt>
      <trkpt lat="47.488080" lon="7.908344">
        <ele>505.458527</ele>
        <time>2021-11-20T16:17:46.765Z</time>
      </trkpt>
      <trkpt lat="47.487763" lon="7.907711">
        <ele>507.339668</ele>
        <time>2021-11-20T16:18:01.822Z</time>
      </trkpt>
      <trkpt lat="47.487587" lon="7.907459">
        <ele>508.216595</ele>
        <time>2021-11-20T16:18:08.282Z</time>
      </trkpt>
      <trkpt lat="47.487378" lon="7.907191">
        <ele>509.206860</ele>
        <time>2021-11-20T16:18:15.480Z</time>
      </trkpt>
      <trkpt lat="47.487197" lon="7.906946">
        <ele>510.085225</ele>
        <time>2021-11-20T16:18:21.621Z</time>
      </trkpt>
      <trkpt lat="47.486969" lon="7.906583">
        <ele>511.284426</ele>
        <time>2021-11-20T16:18:29.930Z</time>
      </trkpt>
      <trkpt lat="47.486769" lon="7.905976">
        <ele>512.921446</ele>
        <time>2021-11-20T16:18:45.959Z</time>
      </trkpt>
      <trkpt lat="47.486724" lon="7.905485">
        <ele>514.928403</ele>
        <time>2021-11-20T16:18:58.631Z</time>
      </trkpt>
      <trkpt lat="47.486755" lon="7.904487">
        <ele>518.974979</ele>
        <time>2021-11-20T16:19:25.497Z</time>
      </trkpt>
      <trkpt lat="47.486721" lon="7.904326">
        <ele>519.658196</ele>
        <time>2021-11-20T16:19:30.513Z</time>
      </trkpt>
      <trkpt lat="47.486688" lon="7.904238">
        <ele>520.065836</ele>
        <time>2021-11-20T16:19:33.668Z</time>
      </trkpt>
      <trkpt lat="47.486480" lon="7.904016">
        <ele>521.602995</ele>
        <time>2021-11-20T16:19:42.772Z</time>
      </trkpt>
      <trkpt lat="47.486247" lon="7.904043">
        <ele>523.003837</ele>
        <time>2021-11-20T16:19:51.439Z</time>
      </trkpt>
      <trkpt lat="47.486049" lon="7.904262">
        <ele>524.248940</ele>
        <time>2021-11-20T16:20:02.835Z</time>
      </trkpt>
      <trkpt lat="47.485593" lon="7.905145">
        <ele>527.403336</ele>
        <time>2021-11-20T16:20:32.601Z</time>
      </trkpt>
      <trkpt lat="47.485331" lon="7.905337">
        <ele>528.631362</ele>
        <time>2021-11-20T16:20:41.185Z</time>
      </trkpt>
      <trkpt lat="47.485073" lon="7.905345">
        <ele>529.715272</ele>
        <time>2021-11-20T16:20:47.798Z</time>
      </trkpt>
      <trkpt lat="47.485049" lon="7.905336">
        <ele>529.819265</ele>
        <time>2021-11-20T16:20:49.395Z</time>
      </trkpt>
      <trkpt lat="47.484936" lon="7.905289">
        <ele>530.312290</ele>
        <time>2021-11-20T16:20:52.023Z</time>
      </trkpt>
      <trkpt lat="47.484713" lon="7.905133">
        <ele>531.187459</ele>
        <time>2021-11-20T16:20:57.643Z</time>
      </trkpt>
      <trkpt lat="47.484481" lon="7.904947">
        <ele>530.486885</ele>
        <time>2021-11-20T16:21:01.020Z</time>
      </trkpt>
      <trkpt lat="47.484248" lon="7.904856">
        <ele>529.847069</ele>
        <time>2021-11-20T16:21:04.048Z</time>
      </trkpt>
      <trkpt lat="47.484124" lon="7.904824">
        <ele>529.512871</ele>
        <time>2021-11-20T16:21:05.526Z</time>
      </trkpt>
      <trkpt lat="47.484064" lon="7.904808">
        <ele>529.351001</ele>
        <time>2021-11-20T16:21:06.194Z</time>
      </trkpt>
      <trkpt lat="47.484005" lon="7.904793">
        <ele>529.192057</ele>
        <time>2021-11-20T16:21:06.926Z</time>
      </trkpt>
      <trkpt lat="47.483385" lon="7.904708">
        <ele>527.538864</ele>
        <time>2021-11-20T16:21:13.380Z</time>
      </trkpt>
      <trkpt lat="47.483329" lon="7.904705">
        <ele>527.390083</ele>
        <time>2021-11-20T16:21:13.888Z</time>
      </trkpt>
      <trkpt lat="47.483101" lon="7.904680">
        <ele>526.783067</ele>
        <time>2021-11-20T16:21:16.017Z</time>
      </trkpt>
      <trkpt lat="47.482433" lon="7.904538">
        <ele>522.609426</ele>
        <time>2021-11-20T16:21:21.988Z</time>
      </trkpt>
      <trkpt lat="47.482157" lon="7.904346">
        <ele>520.499132</ele>
        <time>2021-11-20T16:21:24.701Z</time>
      </trkpt>
      <trkpt lat="47.481709" lon="7.903892">
        <ele>516.741901</ele>
        <time>2021-11-20T16:21:29.540Z</time>
      </trkpt>
      <trkpt lat="47.481588" lon="7.903776">
        <ele>515.744279</ele>
        <time>2021-11-20T16:21:30.826Z</time>
      </trkpt>
      <trkpt lat="47.481478" lon="7.903693">
        <ele>514.889889</ele>
        <time>2021-11-20T16:21:31.958Z</time>
      </trkpt>
      <trkpt lat="47.480980" lon="7.903461">
        <ele>511.885887</ele>
        <time>2021-11-20T16:21:36.789Z</time>
      </trkpt>
      <trkpt lat="47.478367" lon="7.903166">
        <ele>497.519212</ele>
        <time>2021-11-20T16:22:01.422Z</time>
      </trkpt>
      <trkpt lat="47.478182" lon="7.903109">
        <ele>496.462962</ele>
        <time>2021-11-20T16:22:03.165Z</time>
      </trkpt>
      <trkpt lat="47.478118" lon="7.903075">
        <ele>496.082870</ele>
        <time>2021-11-20T16:22:03.763Z</time>
      </trkpt>
      <trkpt lat="47.476982" lon="7.902234">
        <ele>488.282244</ele>
        <time>2021-11-20T16:22:15.257Z</time>
      </trkpt>
      <trkpt lat="47.476536" lon="7.901977">
        <ele>485.253361</ele>
        <time>2021-11-20T16:22:19.625Z</time>
      </trkpt>
      <trkpt lat="47.476364" lon="7.901870">
        <ele>484.072608</ele>
        <time>2021-11-20T16:22:21.320Z</time>
      </trkpt>
      <trkpt lat="47.475300" lon="7.901112">
        <ele>477.323332</ele>
        <time>2021-11-20T16:22:32.228Z</time>
      </trkpt>
      <trkpt lat="47.475163" lon="7.901034">
        <ele>476.501107</ele>
        <time>2021-11-20T16:22:33.555Z</time>
      </trkpt>
      <trkpt lat="47.474888" lon="7.900841">
        <ele>474.796254</ele>
        <time>2021-11-20T16:22:36.407Z</time>
      </trkpt>
      <trkpt lat="47.474617" lon="7.900560">
        <ele>472.942641</ele>
        <time>2021-11-20T16:22:39.536Z</time>
      </trkpt>
      <trkpt lat="47.474336" lon="7.900125">
        <ele>470.975234</ele>
        <time>2021-11-20T16:22:43.378Z</time>
      </trkpt>
      <trkpt lat="47.474186" lon="7.899915">
        <ele>469.984776</ele>
        <time>2021-11-20T16:22:45.313Z</time>
      </trkpt>
      <trkpt lat="47.474087" lon="7.899774">
        <ele>469.325701</ele>
        <time>2021-11-20T16:22:46.624Z</time>
      </trkpt>
      <trkpt lat="47.473931" lon="7.899567">
        <ele>468.320665</ele>
        <time>2021-11-20T16:22:48.584Z</time>
      </trkpt>
      <trkpt lat="47.473317" lon="7.898945">
        <ele>464.751669</ele>
        <time>2021-11-20T16:22:55.824Z</time>
      </trkpt>
      <trkpt lat="47.471910" lon="7.898392">
        <ele>457.205196</ele>
        <time>2021-11-20T16:23:09.418Z</time>
      </trkpt>
      <trkpt lat="47.471825" lon="7.898370">
        <ele>456.755016</ele>
        <time>2021-11-20T16:23:10.206Z</time>
      </trkpt>
      <trkpt lat="47.471597" lon="7.898344">
        <ele>455.562010</ele>
        <time>2021-11-20T16:23:12.358Z</time>
      </trkpt>
      <trkpt lat="47.471002" lon="7.898222">
        <ele>452.747114</ele>
        <time>2021-11-20T16:23:17.953Z</time>
      </trkpt>
      <trkpt lat="47.469999" lon="7.897879">
        <ele>448.093799</ele>
        <time>2021-11-20T16:23:27.704Z</time>
      </trkpt>
      <trkpt lat="47.469806" lon="7.897795">
        <ele>447.184428</ele>
        <time>2021-11-20T16:23:29.733Z</time>
      </trkpt>
      <trkpt lat="47.469534" lon="7.897638">
        <ele>446.346102</ele>
        <time>2021-11-20T16:23:32.818Z</time>
      </trkpt>
      <trkpt lat="47.469598" lon="7.897405">
        <ele>446.028317</ele>
        <time>2021-11-20T16:23:34.610Z</time>
      </trkpt>
      <trkpt lat="47.469652" lon="7.897139">
        <ele>445.677383</ele>
        <time>2021-11-20T16:23:36.634Z</time>
      </trkpt>
      <trkpt lat="47.469678" lon="7.896938">
        <ele>445.418801</ele>
        <time>2021-11-20T16:23:38.097Z</time>
      </trkpt>
      <trkpt lat="47.469692" lon="7.896826">
        <ele>445.274885</ele>
        <time>2021-11-20T16:23:38.993Z</time>
      </trkpt>
      <trkpt lat="47.469738" lon="7.896220">
        <ele>444.504361</ele>
        <time>2021-11-20T16:23:43.592Z</time>
      </trkpt>
      <trkpt lat="47.469747" lon="7.895922">
        <ele>444.127448</ele>
        <time>2021-11-20T16:23:45.831Z</time>
      </trkpt>
      <trkpt lat="47.469734" lon="7.895575">
        <ele>443.688324</ele>
        <time>2021-11-20T16:23:48.871Z</time>
      </trkpt>
      <trkpt lat="47.469728" lon="7.895384">
        <ele>443.446725</ele>
        <time>2021-11-20T16:23:50.467Z</time>
      </trkpt>
      <trkpt lat="47.469714" lon="7.895204">
        <ele>443.284676</ele>
        <time>2021-11-20T16:23:52.139Z</time>
      </trkpt>
      <trkpt lat="47.469691" lon="7.894970">
        <ele>443.174909</ele>
        <time>2021-11-20T16:23:54.275Z</time>
      </trkpt>
      <trkpt lat="47.469658" lon="7.894567">
        <ele>442.986464</ele>
        <time>2021-11-20T16:23:57.941Z</time>
      </trkpt>
      <trkpt lat="47.469496" lon="7.893085">
        <ele>442.289563</ele>
        <time>2021-11-20T16:24:11.156Z</time>
      </trkpt>
      <trkpt lat="47.469288" lon="7.891996">
        <ele>441.596850</ele>
        <time>2021-11-20T16:24:20.668Z</time>
      </trkpt>
      <trkpt lat="47.468951" lon="7.890216">
        <ele>440.295567</ele>
        <time>2021-11-20T16:24:35.671Z</time>
      </trkpt>
      <trkpt lat="47.468718" lon="7.888938">
        <ele>439.674937</ele>
        <time>2021-11-20T16:24:46.549Z</time>
      </trkpt>
      <trkpt lat="47.468546" lon="7.888014">
        <ele>439.246823</ele>
        <time>2021-11-20T16:24:54.876Z</time>
      </trkpt>
      <trkpt lat="47.468250" lon="7.886308">
        <ele>440.127800</ele>
        <time>2021-11-20T16:25:13.142Z</time>
      </trkpt>
      <trkpt lat="47.468174" lon="7.885724">
        <ele>440.644029</ele>
        <time>2021-11-20T16:25:22.009Z</time>
      </trkpt>
      <trkpt lat="47.468160" lon="7.885412">
        <ele>440.915445</ele>
        <time>2021-11-20T16:25:27.101Z</time>
      </trkpt>
      <trkpt lat="47.468160" lon="7.885144">
        <ele>441.148074</ele>
        <time>2021-11-20T16:25:31.479Z</time>
      </trkpt>
      <trkpt lat="47.468160" lon="7.885131">
        <ele>441.159358</ele>
        <time>2021-11-20T16:25:31.746Z</time>
      </trkpt>
      <trkpt lat="47.468170" lon="7.884753">
        <ele>441.698640</ele>
        <time>2021-11-20T16:25:37.845Z</time>
      </trkpt>
      <trkpt lat="47.468175" lon="7.884477">
        <ele>442.272011</ele>
        <time>2021-11-20T16:25:43.584Z</time>
      </trkpt>
      <trkpt lat="47.468085" lon="7.883534">
        <ele>444.249750</ele>
        <time>2021-11-20T16:26:03.071Z</time>
      </trkpt>
      <trkpt lat="47.467832" lon="7.882502">
        <ele>446.529479</ele>
        <time>2021-11-20T16:26:24.655Z</time>
      </trkpt>
      <trkpt lat="47.467789" lon="7.882188">
        <ele>446.578562</ele>
        <time>2021-11-20T16:26:30.293Z</time>
      </trkpt>
      <trkpt lat="47.467755" lon="7.881902">
        <ele>446.065911</ele>
        <time>2021-11-20T16:26:34.415Z</time>
      </trkpt>
      <trkpt lat="47.467712" lon="7.880819">
        <ele>444.150692</ele>
        <time>2021-11-20T16:26:43.167Z</time>
      </trkpt>
      <trkpt lat="47.467695" lon="7.879712">
        <ele>442.195893</ele>
        <time>2021-11-20T16:26:50.036Z</time>
      </trkpt>
      <trkpt lat="47.467758" lon="7.879308">
        <ele>440.096615</ele>
        <time>2021-11-20T16:26:52.523Z</time>
      </trkpt>
      <trkpt lat="47.467814" lon="7.879126">
        <ele>439.054624</ele>
        <time>2021-11-20T16:26:53.691Z</time>
      </trkpt>
      <trkpt lat="47.467908" lon="7.878819">
        <ele>437.298453</ele>
        <time>2021-11-20T16:26:55.719Z</time>
      </trkpt>
      <trkpt lat="47.468067" lon="7.878427">
        <ele>434.916328</ele>
        <time>2021-11-20T16:26:58.496Z</time>
      </trkpt>
      <trkpt lat="47.468104" lon="7.878354">
        <ele>434.440892</ele>
        <time>2021-11-20T16:26:59.006Z</time>
      </trkpt>
      <trkpt lat="47.468268" lon="7.878083">
        <ele>432.545582</ele>
        <time>2021-11-20T16:27:01.211Z</time>
      </trkpt>
      <trkpt lat="47.468308" lon="7.877998">
        <ele>432.005912</ele>
        <time>2021-11-20T16:27:01.851Z</time>
      </trkpt>
      <trkpt lat="47.468327" lon="7.877957">
        <ele>431.746889</ele>
        <time>2021-11-20T16:27:02.128Z</time>
      </trkpt>
      <trkpt lat="47.468377" lon="7.877826">
        <ele>430.962986</ele>
        <time>2021-11-20T16:27:03.006Z</time>
      </trkpt>
      <trkpt lat="47.468557" lon="7.876917">
        <ele>427.107617</ele>
        <time>2021-11-20T16:27:08.674Z</time>
      </trkpt>
      <trkpt lat="47.468639" lon="7.876439">
        <ele>425.759340</ele>
        <time>2021-11-20T16:27:11.870Z</time>
      </trkpt>
      <trkpt lat="47.468698" lon="7.876140">
        <ele>424.907759</ele>
        <time>2021-11-20T16:27:13.971Z</time>
      </trkpt>
      <trkpt lat="47.468806" lon="7.875696">
        <ele>423.617670</ele>
        <time>2021-11-20T16:27:17.250Z</time>
      </trkpt>
      <trkpt lat="47.468925" lon="7.875205">
        <ele>422.191612</ele>
        <time>2021-11-20T16:27:21.179Z</time>
      </trkpt>
      <trkpt lat="47.468989" lon="7.874967">
        <ele>421.491330</ele>
        <time>2021-11-20T16:27:22.972Z</time>
      </trkpt>
      <trkpt lat="47.469050" lon="7.874738">
        <ele>420.927694</ele>
        <time>2021-11-20T16:27:24.855Z</time>
      </trkpt>
      <trkpt lat="47.469068" lon="7.874689">
        <ele>420.855646</ele>
        <time>2021-11-20T16:27:25.289Z</time>
      </trkpt>
      <trkpt lat="47.469097" lon="7.874606">
        <ele>420.734941</ele>
        <time>2021-11-20T16:27:25.924Z</time>
      </trkpt>
      <trkpt lat="47.469136" lon="7.874516">
        <ele>420.596829</ele>
        <time>2021-11-20T16:27:26.678Z</time>
      </trkpt>
      <trkpt lat="47.469173" lon="7.874432">
        <ele>420.467302</ele>
        <time>2021-11-20T16:27:27.431Z</time>
      </trkpt>
      <trkpt lat="47.469224" lon="7.874328">
        <ele>420.301312</ele>
        <time>2021-11-20T16:27:28.473Z</time>
      </trkpt>
      <trkpt lat="47.469422" lon="7.873965">
        <ele>419.698717</ele>
        <time>2021-11-20T16:27:31.921Z</time>
      </trkpt>
      <trkpt lat="47.469489" lon="7.873809">
        <ele>419.459941</ele>
        <time>2021-11-20T16:27:33.363Z</time>
      </trkpt>
      <trkpt lat="47.469626" lon="7.873477">
        <ele>418.957427</ele>
        <time>2021-11-20T16:27:36.239Z</time>
      </trkpt>
      <trkpt lat="47.469682" lon="7.873326">
        <ele>418.734919</ele>
        <time>2021-11-20T16:27:37.579Z</time>
      </trkpt>
      <trkpt lat="47.469710" lon="7.873249">
        <ele>418.621962</ele>
        <time>2021-11-20T16:27:38.160Z</time>
      </trkpt>
      <trkpt lat="47.469969" lon="7.872276">
        <ele>417.326736</ele>
        <time>2021-11-20T16:27:46.145Z</time>
      </trkpt>
      <trkpt lat="47.470156" lon="7.871491">
        <ele>416.440467</ele>
        <time>2021-11-20T16:27:52.442Z</time>
      </trkpt>
      <trkpt lat="47.470217" lon="7.871214">
        <ele>416.130256</ele>
        <time>2021-11-20T16:27:54.608Z</time>
      </trkpt>
      <trkpt lat="47.470245" lon="7.871088">
        <ele>415.989025</ele>
        <time>2021-11-20T16:27:55.606Z</time>
      </trkpt>
      <trkpt lat="47.470316" lon="7.870753">
        <ele>415.615190</ele>
        <time>2021-11-20T16:27:58.481Z</time>
      </trkpt>
      <trkpt lat="47.470333" lon="7.870669">
        <ele>415.521822</ele>
        <time>2021-11-20T16:27:59.098Z</time>
      </trkpt>
      <trkpt lat="47.470350" lon="7.870570">
        <ele>415.413058</ele>
        <time>2021-11-20T16:27:59.891Z</time>
      </trkpt>
      <trkpt lat="47.470379" lon="7.870338">
        <ele>415.161833</ele>
        <time>2021-11-20T16:28:01.878Z</time>
      </trkpt>
      <trkpt lat="47.470397" lon="7.870147">
        <ele>414.956486</ele>
        <time>2021-11-20T16:28:03.973Z</time>
      </trkpt>
      <trkpt lat="47.470378" lon="7.869626">
        <ele>414.592907</ele>
        <time>2021-11-20T16:28:09.991Z</time>
      </trkpt>
      <trkpt lat="47.470309" lon="7.869201">
        <ele>414.379968</ele>
        <time>2021-11-20T16:28:15.352Z</time>
      </trkpt>
      <trkpt lat="47.470234" lon="7.868884">
        <ele>414.216345</ele>
        <time>2021-11-20T16:28:19.360Z</time>
      </trkpt>
      <trkpt lat="47.470127" lon="7.868484">
        <ele>414.006769</ele>
        <time>2021-11-20T16:28:24.775Z</time>
      </trkpt>
      <trkpt lat="47.469915" lon="7.867494">
        <ele>413.500835</ele>
        <time>2021-11-20T16:28:37.942Z</time>
      </trkpt>
      <trkpt lat="47.469808" lon="7.866690">
        <ele>412.865027</ele>
        <time>2021-11-20T16:28:47.666Z</time>
      </trkpt>
      <trkpt lat="47.469764" lon="7.866452">
        <ele>412.665136</ele>
        <time>2021-11-20T16:28:50.677Z</time>
      </trkpt>
      <trkpt lat="47.469710" lon="7.866208">
        <ele>412.457140</ele>
        <time>2021-11-20T16:28:53.643Z</time>
      </trkpt>
      <trkpt lat="47.469629" lon="7.865918">
        <ele>412.202937</ele>
        <time>2021-11-20T16:28:57.398Z</time>
      </trkpt>
      <trkpt lat="47.469305" lon="7.864692">
        <ele>411.054021</ele>
        <time>2021-11-20T16:29:11.791Z</time>
      </trkpt>
      <trkpt lat="47.469011" lon="7.863405">
        <ele>409.408000</ele>
        <time>2021-11-20T16:29:26.510Z</time>
      </trkpt>
      <trkpt lat="47.468986" lon="7.863323">
        <ele>409.299008</ele>
        <time>2021-11-20T16:29:27.365Z</time>
      </trkpt>
      <trkpt lat="47.468943" lon="7.863195">
        <ele>409.125821</ele>
        <time>2021-11-20T16:29:28.908Z</time>
      </trkpt>
      <trkpt lat="47.468859" lon="7.862978">
        <ele>408.822836</ele>
        <time>2021-11-20T16:29:31.681Z</time>
      </trkpt>
      <trkpt lat="47.468825" lon="7.862900">
        <ele>408.710382</ele>
        <time>2021-11-20T16:29:32.656Z</time>
      </trkpt>
      <trkpt lat="47.468742" lon="7.862739">
        <ele>408.465051</ele>
        <time>2021-11-20T16:29:34.791Z</time>
      </trkpt>
      <trkpt lat="47.468647" lon="7.862558">
        <ele>408.187397</ele>
        <time>2021-11-20T16:29:37.389Z</time>
      </trkpt>
      <trkpt lat="47.468543" lon="7.862357">
        <ele>407.944465</ele>
        <time>2021-11-20T16:29:40.079Z</time>
      </trkpt>
      <trkpt lat="47.468224" lon="7.861805">
        <ele>407.347419</ele>
        <time>2021-11-20T16:29:48.246Z</time>
      </trkpt>
      <trkpt lat="47.467944" lon="7.861300">
        <ele>406.810450</ele>
        <time>2021-11-20T16:29:55.623Z</time>
      </trkpt>
      <trkpt lat="47.467266" lon="7.860107">
        <ele>405.625359</ele>
        <time>2021-11-20T16:30:14.329Z</time>
      </trkpt>
      <trkpt lat="47.467047" lon="7.859682">
        <ele>405.302707</ele>
        <time>2021-11-20T16:30:20.530Z</time>
      </trkpt>
      <trkpt lat="47.466922" lon="7.859398">
        <ele>405.098092</ele>
        <time>2021-11-20T16:30:24.495Z</time>
      </trkpt>
      <trkpt lat="47.466824" lon="7.859137">
        <ele>404.917829</ele>
        <time>2021-11-20T16:30:28.193Z</time>
      </trkpt>
      <trkpt lat="47.466673" lon="7.858620">
        <ele>404.577787</ele>
        <time>2021-11-20T16:30:34.748Z</time>
      </trkpt>
      <trkpt lat="47.466576" lon="7.858236">
        <ele>404.330277</ele>
        <time>2021-11-20T16:30:39.546Z</time>
      </trkpt>
      <trkpt lat="47.466518" lon="7.858022">
        <ele>404.254502</ele>
        <time>2021-11-20T16:30:41.540Z</time>
      </trkpt>
      <trkpt lat="47.466347" lon="7.856973">
        <ele>404.042380</ele>
        <time>2021-11-20T16:30:51.217Z</time>
      </trkpt>
      <trkpt lat="47.466344" lon="7.856945">
        <ele>404.036807</ele>
        <time>2021-11-20T16:30:51.408Z</time>
      </trkpt>
      <trkpt lat="47.466322" lon="7.856655">
        <ele>403.979441</ele>
        <time>2021-11-20T16:30:54.314Z</time>
      </trkpt>
      <trkpt lat="47.466310" lon="7.856541">
        <ele>403.956761</ele>
        <time>2021-11-20T16:30:55.436Z</time>
      </trkpt>
      <trkpt lat="47.466334" lon="7.856525">
        <ele>403.949106</ele>
        <time>2021-11-20T16:30:55.817Z</time>
      </trkpt>
      <trkpt lat="47.466353" lon="7.856496">
        <ele>403.941167</ele>
        <time>2021-11-20T16:30:56.289Z</time>
      </trkpt>
      <trkpt lat="47.466361" lon="7.856459">
        <ele>403.933531</ele>
        <time>2021-11-20T16:30:56.601Z</time>
      </trkpt>
      <trkpt lat="47.466359" lon="7.856420">
        <ele>403.925842</ele>
        <time>2021-11-20T16:30:56.909Z</time>
      </trkpt>
      <trkpt lat="47.466324" lon="7.856362">
        <ele>403.910559</ele>
        <time>2021-11-20T16:30:57.882Z</time>
      </trkpt>
      <trkpt lat="47.466298" lon="7.856354">
        <ele>403.902836</ele>
        <time>2021-11-20T16:30:58.234Z</time>
      </trkpt>
      <trkpt lat="47.466271" lon="7.856363">
        <ele>403.894788</ele>
        <time>2021-11-20T16:30:58.641Z</time>
      </trkpt>
      <trkpt lat="47.466237" lon="7.856421">
        <ele>403.879697</ele>
        <time>2021-11-20T16:30:59.383Z</time>
      </trkpt>
      <trkpt lat="47.466235" lon="7.856461">
        <ele>403.871812</ele>
        <time>2021-11-20T16:30:59.736Z</time>
      </trkpt>
      <trkpt lat="47.466156" lon="7.856481">
        <ele>403.848506</ele>
        <time>2021-11-20T16:31:00.938Z</time>
      </trkpt>
      <trkpt lat="47.465801" lon="7.856657">
        <ele>403.807798</ele>
        <time>2021-11-20T16:31:06.839Z</time>
      </trkpt>
      <trkpt lat="47.465748" lon="7.856649">
        <ele>403.839308</ele>
        <time>2021-11-20T16:31:07.683Z</time>
      </trkpt>
      <trkpt lat="47.465709" lon="7.856610">
        <ele>403.867152</ele>
        <time>2021-11-20T16:31:08.276Z</time>
      </trkpt>
      <trkpt lat="47.465583" lon="7.856194">
        <ele>404.049421</ele>
        <time>2021-11-20T16:31:13.636Z</time>
      </trkpt>
      <trkpt lat="47.465550" lon="7.856132">
        <ele>404.080973</ele>
        <time>2021-11-20T16:31:14.288Z</time>
      </trkpt>
      <trkpt lat="47.465527" lon="7.856111">
        <ele>404.096960</ele>
        <time>2021-11-20T16:31:14.937Z</time>
      </trkpt>
      <trkpt lat="47.465400" lon="7.856122">
        <ele>404.172204</ele>
        <time>2021-11-20T16:31:17.050Z</time>
      </trkpt>
      <trkpt lat="47.465230" lon="7.856246">
        <ele>404.284313</ele>
        <time>2021-11-20T16:31:20.412Z</time>
      </trkpt>
      <trkpt lat="47.464855" lon="7.856521">
        <ele>404.531874</ele>
        <time>2021-11-20T16:31:28.173Z</time>
      </trkpt>
      <trkpt lat="47.464813" lon="7.856540">
        <ele>404.557851</ele>
        <time>2021-11-20T16:31:29.068Z</time>
      </trkpt>
      <trkpt lat="47.464805" lon="7.856519">
        <ele>404.567489</ele>
        <time>2021-11-20T16:31:29.343Z</time>
      </trkpt>
      <trkpt lat="47.464741" lon="7.856458">
        <ele>404.612521</ele>
        <time>2021-11-20T16:31:30.557Z</time>
      </trkpt>
      <trkpt lat="47.464713" lon="7.856451">
        <ele>404.629317</ele>
        <time>2021-11-20T16:31:31.005Z</time>
      </trkpt>
      <trkpt lat="47.464688" lon="7.856453">
        <ele>404.644125</ele>
        <time>2021-11-20T16:31:31.428Z</time>
      </trkpt>
      <trkpt lat="47.464650" lon="7.856478">
        <ele>404.668723</ele>
        <time>2021-11-20T16:31:32.165Z</time>
      </trkpt>
      <trkpt lat="47.464638" lon="7.856496">
        <ele>404.678832</ele>
        <time>2021-11-20T16:31:32.554Z</time>
      </trkpt>
      <trkpt lat="47.464622" lon="7.856523">
        <ele>404.693188</ele>
        <time>2021-11-20T16:31:33.044Z</time>
      </trkpt>
      <trkpt lat="47.464610" lon="7.856554">
        <ele>404.707472</ele>
        <time>2021-11-20T16:31:33.389Z</time>
      </trkpt>
      <trkpt lat="47.464600" lon="7.856587">
        <ele>404.721932</ele>
        <time>2021-11-20T16:31:33.817Z</time>
      </trkpt>
      <trkpt lat="47.464530" lon="7.856598">
        <ele>404.763568</ele>
        <time>2021-11-20T16:31:35.202Z</time>
      </trkpt>
      <trkpt lat="47.463900" lon="7.856772">
        <ele>405.167649</ele>
        <time>2021-11-20T16:31:46.140Z</time>
      </trkpt>
      <trkpt lat="47.463826" lon="7.856840">
        <ele>405.223246</ele>
        <time>2021-11-20T16:31:47.653Z</time>
      </trkpt>
      <trkpt lat="47.463762" lon="7.856925">
        <ele>405.278139</ele>
        <time>2021-11-20T16:31:49.179Z</time>
      </trkpt>
      <trkpt lat="47.463161" lon="7.858061">
        <ele>405.900506</ele>
        <time>2021-11-20T16:32:05.694Z</time>
      </trkpt>
      <trkpt lat="47.463081" lon="7.858188">
        <ele>405.977124</ele>
        <time>2021-11-20T16:32:07.993Z</time>
      </trkpt>
      <trkpt lat="47.462979" lon="7.858360">
        <ele>406.182674</ele>
        <time>2021-11-20T16:32:10.733Z</time>
      </trkpt>
      <trkpt lat="47.462764" lon="7.858828">
        <ele>406.691016</ele>
        <time>2021-11-20T16:32:17.882Z</time>
      </trkpt>
      <trkpt lat="47.462720" lon="7.858959">
        <ele>406.822432</ele>
        <time>2021-11-20T16:32:19.857Z</time>
      </trkpt>
      <trkpt lat="47.462691" lon="7.859060">
        <ele>406.921016</ele>
        <time>2021-11-20T16:32:21.334Z</time>
      </trkpt>
      <trkpt lat="47.462623" lon="7.859309">
        <ele>407.162283</ele>
        <time>2021-11-20T16:32:24.871Z</time>
      </trkpt>
      <trkpt lat="47.462535" lon="7.859721">
        <ele>407.550463</ele>
        <time>2021-11-20T16:32:30.650Z</time>
      </trkpt>
      <trkpt lat="47.462471" lon="7.860097">
        <ele>407.898809</ele>
        <time>2021-11-20T16:32:36.316Z</time>
      </trkpt>
      <trkpt lat="47.462442" lon="7.860255">
        <ele>408.045897</ele>
        <time>2021-11-20T16:32:38.566Z</time>
      </trkpt>
      <trkpt lat="47.462327" lon="7.860669">
        <ele>408.495127</ele>
        <time>2021-11-20T16:32:45.309Z</time>
      </trkpt>
      <trkpt lat="47.462285" lon="7.860769">
        <ele>408.660194</ele>
        <time>2021-11-20T16:32:47.208Z</time>
      </trkpt>
      <trkpt lat="47.462231" lon="7.860873">
        <ele>408.844059</ele>
        <time>2021-11-20T16:32:49.567Z</time>
      </trkpt>
      <trkpt lat="47.461855" lon="7.861499">
        <ele>410.018158</ele>
        <time>2021-11-20T16:33:02.663Z</time>
      </trkpt>
      <trkpt lat="47.461541" lon="7.862217">
        <ele>411.217162</ele>
        <time>2021-11-20T16:33:16.336Z</time>
      </trkpt>
      <trkpt lat="47.461527" lon="7.862242">
        <ele>411.262679</ele>
        <time>2021-11-20T16:33:16.799Z</time>
      </trkpt>
      <trkpt lat="47.461353" lon="7.862539">
        <ele>411.813718</ele>
        <time>2021-11-20T16:33:23.142Z</time>
      </trkpt>
      <trkpt lat="47.461098" lon="7.862848">
        <ele>412.375021</ele>
        <time>2021-11-20T16:33:30.653Z</time>
      </trkpt>
      <trkpt lat="47.460786" lon="7.863164">
        <ele>412.921215</ele>
        <time>2021-11-20T16:33:39.042Z</time>
      </trkpt>
      <trkpt lat="47.460527" lon="7.863440">
        <ele>413.382306</ele>
        <time>2021-11-20T16:33:45.804Z</time>
      </trkpt>
      <trkpt lat="47.460398" lon="7.863603">
        <ele>413.627374</ele>
        <time>2021-11-20T16:33:49.218Z</time>
      </trkpt>
      <trkpt lat="47.460271" lon="7.863810">
        <ele>413.900351</ele>
        <time>2021-11-20T16:33:52.746Z</time>
      </trkpt>
      <trkpt lat="47.460115" lon="7.864146">
        <ele>414.298402</ele>
        <time>2021-11-20T16:33:57.510Z</time>
      </trkpt>
      <trkpt lat="47.460001" lon="7.864512">
        <ele>414.691938</ele>
        <time>2021-11-20T16:34:02.297Z</time>
      </trkpt>
      <trkpt lat="47.459616" lon="7.865526">
        <ele>415.712896</ele>
        <time>2021-11-20T16:34:18.530Z</time>
      </trkpt>
      <trkpt lat="47.459563" lon="7.865651">
        <ele>415.842424</ele>
        <time>2021-11-20T16:34:20.398Z</time>
      </trkpt>
      <trkpt lat="47.459497" lon="7.865844">
        <ele>416.032294</ele>
        <time>2021-11-20T16:34:23.337Z</time>
      </trkpt>
      <trkpt lat="47.459383" lon="7.866214">
        <ele>416.389247</ele>
        <time>2021-11-20T16:34:28.940Z</time>
      </trkpt>
      <trkpt lat="47.459231" lon="7.866811">
        <ele>416.949273</ele>
        <time>2021-11-20T16:34:37.626Z</time>
      </trkpt>
      <trkpt lat="47.459152" lon="7.867074">
        <ele>417.260404</ele>
        <time>2021-11-20T16:34:41.679Z</time>
      </trkpt>
      <trkpt lat="47.459058" lon="7.867339">
        <ele>417.611292</ele>
        <time>2021-11-20T16:34:45.754Z</time>
      </trkpt>
      <trkpt lat="47.458844" lon="7.867795">
        <ele>418.262147</ele>
        <time>2021-11-20T16:34:53.703Z</time>
      </trkpt>
      <trkpt lat="47.458680" lon="7.868173">
        <ele>418.788773</ele>
        <time>2021-11-20T16:35:00.959Z</time>
      </trkpt>
      <trkpt lat="47.458252" lon="7.869378">
        <ele>420.463935</ele>
        <time>2021-11-20T16:35:21.351Z</time>
      </trkpt>
      <trkpt lat="47.458055" lon="7.870048">
        <ele>421.605627</ele>
        <time>2021-11-20T16:35:32.119Z</time>
      </trkpt>
      <trkpt lat="47.457897" lon="7.870571">
        <ele>422.500767</ele>
        <time>2021-11-20T16:35:40.895Z</time>
      </trkpt>
      <trkpt lat="47.457834" lon="7.870782">
        <ele>422.861207</ele>
        <time>2021-11-20T16:35:44.874Z</time>
      </trkpt>
      <trkpt lat="47.457598" lon="7.871461">
        <ele>424.054240</ele>
        <time>2021-11-20T16:35:57.012Z</time>
      </trkpt>
      <trkpt lat="47.457107" lon="7.872555">
        <ele>426.944335</ele>
        <time>2021-11-20T16:36:23.937Z</time>
      </trkpt>
      <trkpt lat="47.456956" lon="7.873025">
        <ele>428.135668</ele>
        <time>2021-11-20T16:36:34.860Z</time>
      </trkpt>
      <trkpt lat="47.456839" lon="7.873690">
        <ele>429.708848</ele>
        <time>2021-11-20T16:36:47.841Z</time>
      </trkpt>
      <trkpt lat="47.456816" lon="7.873911">
        <ele>430.220774</ele>
        <time>2021-11-20T16:36:52.257Z</time>
      </trkpt>
      <trkpt lat="47.456788" lon="7.874217">
        <ele>430.634622</ele>
        <time>2021-11-20T16:36:57.489Z</time>
      </trkpt>
      <trkpt lat="47.456714" lon="7.874531">
        <ele>430.977729</ele>
        <time>2021-11-20T16:37:03.050Z</time>
      </trkpt>
      <trkpt lat="47.456658" lon="7.874665">
        <ele>431.140271</ele>
        <time>2021-11-20T16:37:04.904Z</time>
      </trkpt>
      <trkpt lat="47.456403" lon="7.875046">
        <ele>431.693421</ele>
        <time>2021-11-20T16:37:12.760Z</time>
      </trkpt>
      <trkpt lat="47.455780" lon="7.875652">
        <ele>432.831334</ele>
        <time>2021-11-20T16:37:28.254Z</time>
      </trkpt>
      <trkpt lat="47.455446" lon="7.875966">
        <ele>433.185960</ele>
        <time>2021-11-20T16:37:33.945Z</time>
      </trkpt>
      <trkpt lat="47.455123" lon="7.876253">
        <ele>433.277226</ele>
        <time>2021-11-20T16:37:38.920Z</time>
      </trkpt>
      <trkpt lat="47.454502" lon="7.876895">
        <ele>433.460742</ele>
        <time>2021-11-20T16:37:50.029Z</time>
      </trkpt>
      <trkpt lat="47.454362" lon="7.877045">
        <ele>433.502614</ele>
        <time>2021-11-20T16:37:52.957Z</time>
      </trkpt>
      <trkpt lat="47.453945" lon="7.877554">
        <ele>433.759681</ele>
        <time>2021-11-20T16:38:03.097Z</time>
      </trkpt>
      <trkpt lat="47.453517" lon="7.878069">
        <ele>434.178931</ele>
        <time>2021-11-20T16:38:13.231Z</time>
      </trkpt>
      <trkpt lat="47.453302" lon="7.878355">
        <ele>434.398657</ele>
        <time>2021-11-20T16:38:18.564Z</time>
      </trkpt>
      <trkpt lat="47.453057" lon="7.878652">
        <ele>434.639364</ele>
        <time>2021-11-20T16:38:24.163Z</time>
      </trkpt>
      <trkpt lat="47.452813" lon="7.878981">
        <ele>434.890253</ele>
        <time>2021-11-20T16:38:29.846Z</time>
      </trkpt>
      <trkpt lat="47.452655" lon="7.879223">
        <ele>435.079301</ele>
        <time>2021-11-20T16:38:33.705Z</time>
      </trkpt>
      <trkpt lat="47.452247" lon="7.879980">
        <ele>435.642835</ele>
        <time>2021-11-20T16:38:45.259Z</time>
      </trkpt>
      <trkpt lat="47.451953" lon="7.880518">
        <ele>436.045514</ele>
        <time>2021-11-20T16:38:53.600Z</time>
      </trkpt>
      <trkpt lat="47.451581" lon="7.881111">
        <ele>436.528428</ele>
        <time>2021-11-20T16:39:04.165Z</time>
      </trkpt>
      <trkpt lat="47.451351" lon="7.881477">
        <ele>436.950133</ele>
        <time>2021-11-20T16:39:10.716Z</time>
      </trkpt>
      <trkpt lat="47.451309" lon="7.881545">
        <ele>437.027864</ele>
        <time>2021-11-20T16:39:11.962Z</time>
      </trkpt>
      <trkpt lat="47.451241" lon="7.881654">
        <ele>437.153032</ele>
        <time>2021-11-20T16:39:13.919Z</time>
      </trkpt>
      <trkpt lat="47.451051" lon="7.881948">
        <ele>437.496270</ele>
        <time>2021-11-20T16:39:19.504Z</time>
      </trkpt>
      <trkpt lat="47.450772" lon="7.882435">
        <ele>438.034989</ele>
        <time>2021-11-20T16:39:28.284Z</time>
      </trkpt>
      <trkpt lat="47.450733" lon="7.882508">
        <ele>438.113511</ele>
        <time>2021-11-20T16:39:29.549Z</time>
      </trkpt>
      <trkpt lat="47.450650" lon="7.882664">
        <ele>438.281048</ele>
        <time>2021-11-20T16:39:32.271Z</time>
      </trkpt>
      <trkpt lat="47.450548" lon="7.882846">
        <ele>438.480559</ele>
        <time>2021-11-20T16:39:35.499Z</time>
      </trkpt>
      <trkpt lat="47.450472" lon="7.882973">
        <ele>438.623696</ele>
        <time>2021-11-20T16:39:37.725Z</time>
      </trkpt>
      <trkpt lat="47.450274" lon="7.883264">
        <ele>438.990567</ele>
        <time>2021-11-20T16:39:43.330Z</time>
      </trkpt>
      <trkpt lat="47.449712" lon="7.884119">
        <ele>440.075119</ele>
        <time>2021-11-20T16:39:59.050Z</time>
      </trkpt>
      <trkpt lat="47.449068" lon="7.885121">
        <ele>441.759660</ele>
        <time>2021-11-20T16:40:17.645Z</time>
      </trkpt>
      <trkpt lat="47.449022" lon="7.885187">
        <ele>442.052090</ele>
        <time>2021-11-20T16:40:19.276Z</time>
      </trkpt>
      <trkpt lat="47.448867" lon="7.885429">
        <ele>443.080500</ele>
        <time>2021-11-20T16:40:24.530Z</time>
      </trkpt>
      <trkpt lat="47.448801" lon="7.885554">
        <ele>443.569808</ele>
        <time>2021-11-20T16:40:27.171Z</time>
      </trkpt>
      <trkpt lat="47.448759" lon="7.885611">
        <ele>443.829904</ele>
        <time>2021-11-20T16:40:28.496Z</time>
      </trkpt>
      <trkpt lat="47.448727" lon="7.885648">
        <ele>444.015238</ele>
        <time>2021-11-20T16:40:29.530Z</time>
      </trkpt>
      <trkpt lat="47.448623" lon="7.885730">
        <ele>444.552976</ele>
        <time>2021-11-20T16:40:32.495Z</time>
      </trkpt>
      <trkpt lat="47.448497" lon="7.885784">
        <ele>445.151511</ele>
        <time>2021-11-20T16:40:35.977Z</time>
      </trkpt>
      <trkpt lat="47.448503" lon="7.885850">
        <ele>445.356980</ele>
        <time>2021-11-20T16:40:37.171Z</time>
      </trkpt>
      <trkpt lat="47.448510" lon="7.885941">
        <ele>445.639564</ele>
        <time>2021-11-20T16:40:38.731Z</time>
      </trkpt>
      <trkpt lat="47.448509" lon="7.886022">
        <ele>445.889524</ele>
        <time>2021-11-20T16:40:40.263Z</time>
      </trkpt>
      <trkpt lat="47.448479" lon="7.886216">
        <ele>446.503545</ele>
        <time>2021-11-20T16:40:44.598Z</time>
      </trkpt>
      <trkpt lat="47.448449" lon="7.886310">
        <ele>446.824251</ele>
        <time>2021-11-20T16:40:47.017Z</time>
      </trkpt>
      <trkpt lat="47.448327" lon="7.886693">
        <ele>448.130501</ele>
        <time>2021-11-20T16:40:58.644Z</time>
      </trkpt>
      <trkpt lat="47.448252" lon="7.886934">
        <ele>448.949046</ele>
        <time>2021-11-20T16:41:08.971Z</time>
      </trkpt>
      <trkpt lat="47.448231" lon="7.887008">
        <ele>449.196657</ele>
        <time>2021-11-20T16:41:11.002Z</time>
      </trkpt>
      <trkpt lat="47.448187" lon="7.887164">
        <ele>450.217085</ele>
        <time>2021-11-20T16:41:16.976Z</time>
      </trkpt>
      <trkpt lat="47.448053" lon="7.887573">
        <ele>453.574158</ele>
        <time>2021-11-20T16:41:33.978Z</time>
      </trkpt>
      <trkpt lat="47.447994" lon="7.887745">
        <ele>454.998785</ele>
        <time>2021-11-20T16:41:41.967Z</time>
      </trkpt>
      <trkpt lat="47.447924" lon="7.887980">
        <ele>456.895614</ele>
        <time>2021-11-20T16:41:51.653Z</time>
      </trkpt>
      <trkpt lat="47.447918" lon="7.888002">
        <ele>457.070841</ele>
        <time>2021-11-20T16:41:52.716Z</time>
      </trkpt>
      <trkpt lat="47.447781" lon="7.888460">
        <ele>460.770180</ele>
        <time>2021-11-20T16:42:13.175Z</time>
      </trkpt>
      <trkpt lat="47.447728" lon="7.888631">
        <ele>462.159670</ele>
        <time>2021-11-20T16:42:22.015Z</time>
      </trkpt>
      <trkpt lat="47.447650" lon="7.888831">
        <ele>463.865103</ele>
        <time>2021-11-20T16:42:33.171Z</time>
      </trkpt>
      <trkpt lat="47.447509" lon="7.889081">
        <ele>466.269761</ele>
        <time>2021-11-20T16:42:46.206Z</time>
      </trkpt>
      <trkpt lat="47.447331" lon="7.889272">
        <ele>468.672030</ele>
        <time>2021-11-20T16:42:58.981Z</time>
      </trkpt>
      <trkpt lat="47.446668" lon="7.889866">
        <ele>475.741844</ele>
        <time>2021-11-20T16:43:45.743Z</time>
      </trkpt>
      <trkpt lat="47.446569" lon="7.889962">
        <ele>476.812760</ele>
        <time>2021-11-20T16:43:53.989Z</time>
      </trkpt>
      <trkpt lat="47.446400" lon="7.890153">
        <ele>478.736882</ele>
        <time>2021-11-20T16:44:03.832Z</time>
      </trkpt>
      <trkpt lat="47.445742" lon="7.891213">
        <ele>486.738610</ele>
        <time>2021-11-20T16:44:42.528Z</time>
      </trkpt>
      <trkpt lat="47.445595" lon="7.891655">
        <ele>488.685687</ele>
        <time>2021-11-20T16:44:55.621Z</time>
      </trkpt>
      <trkpt lat="47.445231" lon="7.893511">
        <ele>496.283363</ele>
        <time>2021-11-20T16:45:44.548Z</time>
      </trkpt>
      <trkpt lat="47.444611" lon="7.894568">
        <ele>501.385736</ele>
        <time>2021-11-20T16:46:20.248Z</time>
      </trkpt>
      <trkpt lat="47.444374" lon="7.895190">
        <ele>503.989228</ele>
        <time>2021-11-20T16:46:37.007Z</time>
      </trkpt>
      <trkpt lat="47.444269" lon="7.895507">
        <ele>505.276447</ele>
        <time>2021-11-20T16:46:45.347Z</time>
      </trkpt>
      <trkpt lat="47.444186" lon="7.895774">
        <ele>506.416687</ele>
        <time>2021-11-20T16:46:52.174Z</time>
      </trkpt>
      <trkpt lat="47.444057" lon="7.896377">
        <ele>508.907282</ele>
        <time>2021-11-20T16:47:06.979Z</time>
      </trkpt>
      <trkpt lat="47.443973" lon="7.897319">
        <ele>512.649012</ele>
        <time>2021-11-20T16:47:29.839Z</time>
      </trkpt>
      <trkpt lat="47.443656" lon="7.899062">
        <ele>522.122768</ele>
        <time>2021-11-20T16:48:23.774Z</time>
      </trkpt>
      <trkpt lat="47.443601" lon="7.899993">
        <ele>528.097516</ele>
        <time>2021-11-20T16:48:58.720Z</time>
      </trkpt>
      <trkpt lat="47.443701" lon="7.901256">
        <ele>536.820735</ele>
        <time>2021-11-20T16:49:50.704Z</time>
      </trkpt>
      <trkpt lat="47.443979" lon="7.902634">
        <ele>547.686328</ele>
        <time>2021-11-20T16:50:51.682Z</time>
      </trkpt>
      <trkpt lat="47.444039" lon="7.903160">
        <ele>551.716926</ele>
        <time>2021-11-20T16:51:12.697Z</time>
      </trkpt>
      <trkpt lat="47.443987" lon="7.903658">
        <ele>554.493001</ele>
        <time>2021-11-20T16:51:30.949Z</time>
      </trkpt>
      <trkpt lat="47.443774" lon="7.904468">
        <ele>558.311697</ele>
        <time>2021-11-20T16:51:59.031Z</time>
      </trkpt>
      <trkpt lat="47.443812" lon="7.904620">
        <ele>559.023754</ele>
        <time>2021-11-20T16:52:03.126Z</time>
      </trkpt>
      <trkpt lat="47.444103" lon="7.905127">
        <ele>561.945619</ele>
        <time>2021-11-20T16:52:18.931Z</time>
      </trkpt>
      <trkpt lat="47.444124" lon="7.905848">
        <ele>564.858975</ele>
        <time>2021-11-20T16:52:33.684Z</time>
      </trkpt>
      <trkpt lat="47.444095" lon="7.905911">
        <ele>564.961363</ele>
        <time>2021-11-20T16:52:35.989Z</time>
      </trkpt>
      <trkpt lat="47.444060" lon="7.905957">
        <ele>565.054389</ele>
        <time>2021-11-20T16:52:37.287Z</time>
      </trkpt>
      <trkpt lat="47.444021" lon="7.905974">
        <ele>565.135161</ele>
        <time>2021-11-20T16:52:37.782Z</time>
      </trkpt>
      <trkpt lat="47.443887" lon="7.905861">
        <ele>565.441610</ele>
        <time>2021-11-20T16:52:41.338Z</time>
      </trkpt>
      <trkpt lat="47.443715" lon="7.905422">
        <ele>566.123248</ele>
        <time>2021-11-20T16:52:49.507Z</time>
      </trkpt>
      <trkpt lat="47.443616" lon="7.905326">
        <ele>566.358439</ele>
        <time>2021-11-20T16:52:52.862Z</time>
      </trkpt>
      <trkpt lat="47.443478" lon="7.905315">
        <ele>566.632982</ele>
        <time>2021-11-20T16:52:55.988Z</time>
      </trkpt>
      <trkpt lat="47.443437" lon="7.905338">
        <ele>566.720096</ele>
        <time>2021-11-20T16:52:56.547Z</time>
      </trkpt>
      <trkpt lat="47.443060" lon="7.905749">
        <ele>567.650593</ele>
        <time>2021-11-20T16:53:06.371Z</time>
      </trkpt>
      <trkpt lat="47.442586" lon="7.906135">
        <ele>568.313560</ele>
        <time>2021-11-20T16:53:16.417Z</time>
      </trkpt>
      <trkpt lat="47.442338" lon="7.906317">
        <ele>568.306723</ele>
        <time>2021-11-20T16:53:20.279Z</time>
      </trkpt>
      <trkpt lat="47.442196" lon="7.906411">
        <ele>568.302881</ele>
        <time>2021-11-20T16:53:22.930Z</time>
      </trkpt>
      <trkpt lat="47.441977" lon="7.906511">
        <ele>568.297221</ele>
        <time>2021-11-20T16:53:26.005Z</time>
      </trkpt>
      <trkpt lat="47.441743" lon="7.906608">
        <ele>568.291220</ele>
        <time>2021-11-20T16:53:29.859Z</time>
      </trkpt>
      <trkpt lat="47.441622" lon="7.906657">
        <ele>568.288122</ele>
        <time>2021-11-20T16:53:31.581Z</time>
      </trkpt>
      <trkpt lat="47.441570" lon="7.906678">
        <ele>568.286791</ele>
        <time>2021-11-20T16:53:32.840Z</time>
      </trkpt>
      <trkpt lat="47.441463" lon="7.906711">
        <ele>568.284092</ele>
        <time>2021-11-20T16:53:34.543Z</time>
      </trkpt>
      <trkpt lat="47.441212" lon="7.906790">
        <ele>568.277756</ele>
        <time>2021-11-20T16:53:37.971Z</time>
      </trkpt>
      <trkpt lat="47.440946" lon="7.906861">
        <ele>568.096883</ele>
        <time>2021-11-20T16:53:41.046Z</time>
      </trkpt>
      <trkpt lat="47.440759" lon="7.906942">
        <ele>567.823713</ele>
        <time>2021-11-20T16:53:44.002Z</time>
      </trkpt>
      <trkpt lat="47.440689" lon="7.906996">
        <ele>567.713027</ele>
        <time>2021-11-20T16:53:44.805Z</time>
      </trkpt>
      <trkpt lat="47.440645" lon="7.907088">
        <ele>567.606190</ele>
        <time>2021-11-20T16:53:45.645Z</time>
      </trkpt>
      <trkpt lat="47.440578" lon="7.907274">
        <ele>567.406378</ele>
        <time>2021-11-20T16:53:47.427Z</time>
      </trkpt>
      <trkpt lat="47.440484" lon="7.907616">
        <ele>567.056351</ele>
        <time>2021-11-20T16:53:50.076Z</time>
      </trkpt>
      <trkpt lat="47.440348" lon="7.908111">
        <ele>566.549760</ele>
        <time>2021-11-20T16:53:54.065Z</time>
      </trkpt>
      <trkpt lat="47.440306" lon="7.908217">
        <ele>566.433277</ele>
        <time>2021-11-20T16:53:55.139Z</time>
      </trkpt>
      <trkpt lat="47.440124" lon="7.908395">
        <ele>566.127364</ele>
        <time>2021-11-20T16:53:57.503Z</time>
      </trkpt>
      <trkpt lat="47.439774" lon="7.908833">
        <ele>565.669768</ele>
        <time>2021-11-20T16:54:03.083Z</time>
      </trkpt>
      <trkpt lat="47.439615" lon="7.909100">
        <ele>565.565435</ele>
        <time>2021-11-20T16:54:06.087Z</time>
      </trkpt>
      <trkpt lat="47.439518" lon="7.909224">
        <ele>565.509832</ele>
        <time>2021-11-20T16:54:07.902Z</time>
      </trkpt>
      <trkpt lat="47.439483" lon="7.909286">
        <ele>565.486148</ele>
        <time>2021-11-20T16:54:08.608Z</time>
      </trkpt>
      <trkpt lat="47.439145" lon="7.909911">
        <ele>565.251455</ele>
        <time>2021-11-20T16:54:15.721Z</time>
      </trkpt>
      <trkpt lat="47.439047" lon="7.910071">
        <ele>565.188148</ele>
        <time>2021-11-20T16:54:17.819Z</time>
      </trkpt>
      <trkpt lat="47.438918" lon="7.910246">
        <ele>565.112233</ele>
        <time>2021-11-20T16:54:20.210Z</time>
      </trkpt>
      <trkpt lat="47.438881" lon="7.910291">
        <ele>565.091458</ele>
        <time>2021-11-20T16:54:20.891Z</time>
      </trkpt>
      <trkpt lat="47.438659" lon="7.910501">
        <ele>564.977178</ele>
        <time>2021-11-20T16:54:24.716Z</time>
      </trkpt>
      <trkpt lat="47.438339" lon="7.910703">
        <ele>565.321460</ele>
        <time>2021-11-20T16:54:30.824Z</time>
      </trkpt>
      <trkpt lat="47.437939" lon="7.911215">
        <ele>565.867480</ele>
        <time>2021-11-20T16:54:40.800Z</time>
      </trkpt>
      <trkpt lat="47.437281" lon="7.911740">
        <ele>566.639121</ele>
        <time>2021-11-20T16:54:55.680Z</time>
      </trkpt>
      <trkpt lat="47.437154" lon="7.911831">
        <ele>566.784769</ele>
        <time>2021-11-20T16:54:58.742Z</time>
      </trkpt>
      <trkpt lat="47.436962" lon="7.911943">
        <ele>567.189216</ele>
        <time>2021-11-20T16:55:02.812Z</time>
      </trkpt>
      <trkpt lat="47.436670" lon="7.912144">
        <ele>567.898692</ele>
        <time>2021-11-20T16:55:09.701Z</time>
      </trkpt>
      <trkpt lat="47.436616" lon="7.912213">
        <ele>568.055905</ele>
        <time>2021-11-20T16:55:11.657Z</time>
      </trkpt>
      <trkpt lat="47.436578" lon="7.912267">
        <ele>568.172002</ele>
        <time>2021-11-20T16:55:13.057Z</time>
      </trkpt>
      <trkpt lat="47.436515" lon="7.912405">
        <ele>568.420054</ele>
        <time>2021-11-20T16:55:15.378Z</time>
      </trkpt>
      <trkpt lat="47.436476" lon="7.912706">
        <ele>568.876666</ele>
        <time>2021-11-20T16:55:20.068Z</time>
      </trkpt>
      <trkpt lat="47.436408" lon="7.913110">
        <ele>569.496939</ele>
        <time>2021-11-20T16:55:26.038Z</time>
      </trkpt>
      <trkpt lat="47.436396" lon="7.913182">
        <ele>569.607420</ele>
        <time>2021-11-20T16:55:27.401Z</time>
      </trkpt>
      <trkpt lat="47.436360" lon="7.913415">
        <ele>569.963507</ele>
        <time>2021-11-20T16:55:32.942Z</time>
      </trkpt>
      <trkpt lat="47.436332" lon="7.913599">
        <ele>570.244500</ele>
        <time>2021-11-20T16:55:35.385Z</time>
      </trkpt>
      <trkpt lat="47.436328" lon="7.913781">
        <ele>570.515805</ele>
        <time>2021-11-20T16:55:39.252Z</time>
      </trkpt>
      <trkpt lat="47.436426" lon="7.914382">
        <ele>571.813682</ele>
        <time>2021-11-20T16:55:50.656Z</time>
      </trkpt>
      <trkpt lat="47.436779" lon="7.915143">
        <ele>573.990291</ele>
        <time>2021-11-20T16:56:05.689Z</time>
      </trkpt>
      <trkpt lat="47.436788" lon="7.915208">
        <ele>574.146793</ele>
        <time>2021-11-20T16:56:07.668Z</time>
      </trkpt>
      <trkpt lat="47.436789" lon="7.915276">
        <ele>574.307230</ele>
        <time>2021-11-20T16:56:09.554Z</time>
      </trkpt>
      <trkpt lat="47.436405" lon="7.916185">
        <ele>576.835209</ele>
        <time>2021-11-20T16:56:31.537Z</time>
      </trkpt>
      <trkpt lat="47.436153" lon="7.916928">
        <ele>579.529361</ele>
        <time>2021-11-20T16:56:49.522Z</time>
      </trkpt>
      <trkpt lat="47.436025" lon="7.917438">
        <ele>581.355776</ele>
        <time>2021-11-20T16:57:02.924Z</time>
      </trkpt>
      <trkpt lat="47.435776" lon="7.918311">
        <ele>584.536842</ele>
        <time>2021-11-20T16:57:25.695Z</time>
      </trkpt>
      <trkpt lat="47.435658" lon="7.918713">
        <ele>586.010180</ele>
        <time>2021-11-20T16:57:36.528Z</time>
      </trkpt>
      <trkpt lat="47.435475" lon="7.919362">
        <ele>588.647377</ele>
        <time>2021-11-20T16:57:54.104Z</time>
      </trkpt>
      <trkpt lat="47.435403" lon="7.919605">
        <ele>589.642390</ele>
        <time>2021-11-20T16:58:00.259Z</time>
      </trkpt>
      <trkpt lat="47.435333" lon="7.919826">
        <ele>590.557661</ele>
        <time>2021-11-20T16:58:06.390Z</time>
      </trkpt>
      <trkpt lat="47.435252" lon="7.920039">
        <ele>591.474148</ele>
        <time>2021-11-20T16:58:12.457Z</time>
      </trkpt>
      <trkpt lat="47.434702" lon="7.921025">
        <ele>596.281301</ele>
        <time>2021-11-20T16:58:45.577Z</time>
      </trkpt>
      <trkpt lat="47.434524" lon="7.921435">
        <ele>598.191266</ele>
        <time>2021-11-20T16:58:57.435Z</time>
      </trkpt>
      <trkpt lat="47.434378" lon="7.921753">
        <ele>599.698015</ele>
        <time>2021-11-20T16:59:07.065Z</time>
      </trkpt>
      <trkpt lat="47.434253" lon="7.922015">
        <ele>600.954963</ele>
        <time>2021-11-20T16:59:14.688Z</time>
      </trkpt>
      <trkpt lat="47.433914" lon="7.922971">
        <ele>605.186704</ele>
        <time>2021-11-20T16:59:43.509Z</time>
      </trkpt>
      <trkpt lat="47.433902" lon="7.923204">
        <ele>606.102822</ele>
        <time>2021-11-20T16:59:49.790Z</time>
      </trkpt>
      <trkpt lat="47.434035" lon="7.924100">
        <ele>608.843012</ele>
        <time>2021-11-20T17:00:14.070Z</time>
      </trkpt>
      <trkpt lat="47.434048" lon="7.924524">
        <ele>610.076634</ele>
        <time>2021-11-20T17:00:23.846Z</time>
      </trkpt>
      <trkpt lat="47.434048" lon="7.924731">
        <ele>610.678280</ele>
        <time>2021-11-20T17:00:28.753Z</time>
      </trkpt>
      <trkpt lat="47.433985" lon="7.925315">
        <ele>612.397128</ele>
        <time>2021-11-20T17:00:40.537Z</time>
      </trkpt>
      <trkpt lat="47.433569" lon="7.926574">
        <ele>614.095508</ele>
        <time>2021-11-20T17:01:02.770Z</time>
      </trkpt>
      <trkpt lat="47.433455" lon="7.926970">
        <ele>614.083930</ele>
        <time>2021-11-20T17:01:07.295Z</time>
      </trkpt>
      <trkpt lat="47.433388" lon="7.927259">
        <ele>614.075712</ele>
        <time>2021-11-20T17:01:10.018Z</time>
      </trkpt>
      <trkpt lat="47.433296" lon="7.927408">
        <ele>614.070285</ele>
        <time>2021-11-20T17:01:11.917Z</time>
      </trkpt>
      <trkpt lat="47.432918" lon="7.927850">
        <ele>614.051119</ele>
        <time>2021-11-20T17:01:17.945Z</time>
      </trkpt>
      <trkpt lat="47.432392" lon="7.928678">
        <ele>611.487336</ele>
        <time>2021-11-20T17:01:25.600Z</time>
      </trkpt>
      <trkpt lat="47.432343" lon="7.928929">
        <ele>610.773531</ele>
        <time>2021-11-20T17:01:27.276Z</time>
      </trkpt>
      <trkpt lat="47.432332" lon="7.929564">
        <ele>609.037925</ele>
        <time>2021-11-20T17:01:31.466Z</time>
      </trkpt>
      <trkpt lat="47.432320" lon="7.929632">
        <ele>608.845907</ele>
        <time>2021-11-20T17:01:31.982Z</time>
      </trkpt>
      <trkpt lat="47.432376" lon="7.929666">
        <ele>608.601379</ele>
        <time>2021-11-20T17:01:32.509Z</time>
      </trkpt>
      <trkpt lat="47.432548" lon="7.929945">
        <ele>607.569975</ele>
        <time>2021-11-20T17:01:34.947Z</time>
      </trkpt>
      <trkpt lat="47.432626" lon="7.930198">
        <ele>606.810286</ele>
        <time>2021-11-20T17:01:36.703Z</time>
      </trkpt>
      <trkpt lat="47.432655" lon="7.930328">
        <ele>606.268306</ele>
        <time>2021-11-20T17:01:37.622Z</time>
      </trkpt>
      <trkpt lat="47.432655" lon="7.930328">
        <ele>606.268306</ele>
        <time>2021-11-20T17:01:37.637Z</time>
      </trkpt>
      <trkpt lat="47.432664" lon="7.930471">
        <ele>605.684546</ele>
        <time>2021-11-20T17:01:38.654Z</time>
      </trkpt>
      <trkpt lat="47.432654" lon="7.930550">
        <ele>605.357863</ele>
        <time>2021-11-20T17:01:39.153Z</time>
      </trkpt>
      <trkpt lat="47.432518" lon="7.931622">
        <ele>600.924552</ele>
        <time>2021-11-20T17:01:46.000Z</time>
      </trkpt>
      <trkpt lat="47.432491" lon="7.931730">
        <ele>600.456546</ele>
        <time>2021-11-20T17:01:46.682Z</time>
      </trkpt>
      <trkpt lat="47.432474" lon="7.931798">
        <ele>600.161875</ele>
        <time>2021-11-20T17:01:47.142Z</time>
      </trkpt>
      <trkpt lat="47.432246" lon="7.932289">
        <ele>597.741131</ele>
        <time>2021-11-20T17:01:50.759Z</time>
      </trkpt>
      <trkpt lat="47.431940" lon="7.932715">
        <ele>595.195297</ele>
        <time>2021-11-20T17:01:54.527Z</time>
      </trkpt>
      <trkpt lat="47.431916" lon="7.932769">
        <ele>594.925683</ele>
        <time>2021-11-20T17:01:55.085Z</time>
      </trkpt>
      <trkpt lat="47.431934" lon="7.932867">
        <ele>594.501942</ele>
        <time>2021-11-20T17:01:55.686Z</time>
      </trkpt>
      <trkpt lat="47.432257" lon="7.933273">
        <ele>591.886609</ele>
        <time>2021-11-20T17:01:59.572Z</time>
      </trkpt>
      <trkpt lat="47.432362" lon="7.933398">
        <ele>591.055000</ele>
        <time>2021-11-20T17:02:00.768Z</time>
      </trkpt>
      <trkpt lat="47.432488" lon="7.933576">
        <ele>589.979929</ele>
        <time>2021-11-20T17:02:02.385Z</time>
      </trkpt>
      <trkpt lat="47.432554" lon="7.933755">
        <ele>589.129256</ele>
        <time>2021-11-20T17:02:03.672Z</time>
      </trkpt>
      <trkpt lat="47.432569" lon="7.933827">
        <ele>588.814892</ele>
        <time>2021-11-20T17:02:04.117Z</time>
      </trkpt>
      <trkpt lat="47.432578" lon="7.933907">
        <ele>588.476487</ele>
        <time>2021-11-20T17:02:04.665Z</time>
      </trkpt>
      <trkpt lat="47.432647" lon="7.934240">
        <ele>587.023234</ele>
        <time>2021-11-20T17:02:06.801Z</time>
      </trkpt>
      <trkpt lat="47.432802" lon="7.934732">
        <ele>584.830989</ele>
        <time>2021-11-20T17:02:10.158Z</time>
      </trkpt>
      <trkpt lat="47.432965" lon="7.935043">
        <ele>584.184600</ele>
        <time>2021-11-20T17:02:12.661Z</time>
      </trkpt>
      <trkpt lat="47.433050" lon="7.935392">
        <ele>583.575170</ele>
        <time>2021-11-20T17:02:14.962Z</time>
      </trkpt>
      <trkpt lat="47.433187" lon="7.935304">
        <ele>583.212370</ele>
        <time>2021-11-20T17:02:16.415Z</time>
      </trkpt>
      <trkpt lat="47.433385" lon="7.935078">
        <ele>582.604802</ele>
        <time>2021-11-20T17:02:19.113Z</time>
      </trkpt>
      <trkpt lat="47.433512" lon="7.934950">
        <ele>582.231476</ele>
        <time>2021-11-20T17:02:20.683Z</time>
      </trkpt>
      <trkpt lat="47.433620" lon="7.934930">
        <ele>581.967115</ele>
        <time>2021-11-20T17:02:23.195Z</time>
      </trkpt>
      <trkpt lat="47.434298" lon="7.934609">
        <ele>580.468374</ele>
        <time>2021-11-20T17:02:35.126Z</time>
      </trkpt>
      <trkpt lat="47.434567" lon="7.934576">
        <ele>580.369069</ele>
        <time>2021-11-20T17:02:39.640Z</time>
      </trkpt>
      <trkpt lat="47.434614" lon="7.934590">
        <ele>580.351430</ele>
        <time>2021-11-20T17:02:40.801Z</time>
      </trkpt>
      <trkpt lat="47.434668" lon="7.934617">
        <ele>580.330458</ele>
        <time>2021-11-20T17:02:42.321Z</time>
      </trkpt>
      <trkpt lat="47.434806" lon="7.934720">
        <ele>580.273584</ele>
        <time>2021-11-20T17:02:43.911Z</time>
      </trkpt>
      <trkpt lat="47.434953" lon="7.934914">
        <ele>580.201089</ele>
        <time>2021-11-20T17:02:48.228Z</time>
      </trkpt>
      <trkpt lat="47.435021" lon="7.934988">
        <ele>580.170025</ele>
        <time>2021-11-20T17:02:49.025Z</time>
      </trkpt>
      <trkpt lat="47.435108" lon="7.935067">
        <ele>580.132462</ele>
        <time>2021-11-20T17:02:50.448Z</time>
      </trkpt>
      <trkpt lat="47.435139" lon="7.935085">
        <ele>580.120209</ele>
        <time>2021-11-20T17:02:51.465Z</time>
      </trkpt>
      <trkpt lat="47.435218" lon="7.935133">
        <ele>580.088786</ele>
        <time>2021-11-20T17:02:52.899Z</time>
      </trkpt>
      <trkpt lat="47.435945" lon="7.935453">
        <ele>579.780962</ele>
        <time>2021-11-20T17:03:02.306Z</time>
      </trkpt>
      <trkpt lat="47.435987" lon="7.935459">
        <ele>579.753709</ele>
        <time>2021-11-20T17:03:02.863Z</time>
      </trkpt>
      <trkpt lat="47.436041" lon="7.935466">
        <ele>579.718697</ele>
        <time>2021-11-20T17:03:03.349Z</time>
      </trkpt>
      <trkpt lat="47.436379" lon="7.935508">
        <ele>579.499617</ele>
        <time>2021-11-20T17:03:07.591Z</time>
      </trkpt>
      <trkpt lat="47.436645" lon="7.935783">
        <ele>579.289970</ele>
        <time>2021-11-20T17:03:11.595Z</time>
      </trkpt>
      <trkpt lat="47.436754" lon="7.935830">
        <ele>579.216635</ele>
        <time>2021-11-20T17:03:12.746Z</time>
      </trkpt>
      <trkpt lat="47.436817" lon="7.935819">
        <ele>579.175662</ele>
        <time>2021-11-20T17:03:13.333Z</time>
      </trkpt>
      <trkpt lat="47.436959" lon="7.935813">
        <ele>579.083908</ele>
        <time>2021-11-20T17:03:16.800Z</time>
      </trkpt>
      <trkpt lat="47.437163" lon="7.935805">
        <ele>578.952101</ele>
        <time>2021-11-20T17:03:18.881Z</time>
      </trkpt>
      <trkpt lat="47.437455" lon="7.935929">
        <ele>578.755875</ele>
        <time>2021-11-20T17:03:23.757Z</time>
      </trkpt>
      <trkpt lat="47.438097" lon="7.936295">
        <ele>579.935375</ele>
        <time>2021-11-20T17:03:39.623Z</time>
      </trkpt>
      <trkpt lat="47.438488" lon="7.936601">
        <ele>580.888333</ele>
        <time>2021-11-20T17:03:51.187Z</time>
      </trkpt>
      <trkpt lat="47.438795" lon="7.937030">
        <ele>581.798268</ele>
        <time>2021-11-20T17:04:02.579Z</time>
      </trkpt>
      <trkpt lat="47.439053" lon="7.937594">
        <ele>582.818914</ele>
        <time>2021-11-20T17:04:13.553Z</time>
      </trkpt>
      <trkpt lat="47.439305" lon="7.937977">
        <ele>583.694394</ele>
        <time>2021-11-20T17:04:20.904Z</time>
      </trkpt>
      <trkpt lat="47.439513" lon="7.938183">
        <ele>584.300867</ele>
        <time>2021-11-20T17:04:26.034Z</time>
      </trkpt>
      <trkpt lat="47.439973" lon="7.938391">
        <ele>585.466146</ele>
        <time>2021-11-20T17:04:38.125Z</time>
      </trkpt>
      <trkpt lat="47.440111" lon="7.938384">
        <ele>585.800641</ele>
        <time>2021-11-20T17:04:40.789Z</time>
      </trkpt>
      <trkpt lat="47.440276" lon="7.938174">
        <ele>586.328042</ele>
        <time>2021-11-20T17:04:47.131Z</time>
      </trkpt>
      <trkpt lat="47.440493" lon="7.937497">
        <ele>588.190891</ele>
        <time>2021-11-20T17:05:00.526Z</time>
      </trkpt>
      <trkpt lat="47.440535" lon="7.937445">
        <ele>588.455762</ele>
        <time>2021-11-20T17:05:01.075Z</time>
      </trkpt>
      <trkpt lat="47.440583" lon="7.937384">
        <ele>588.761796</ele>
        <time>2021-11-20T17:05:05.676Z</time>
      </trkpt>
      <trkpt lat="47.440806" lon="7.937210">
        <ele>589.980954</ele>
        <time>2021-11-20T17:05:12.542Z</time>
      </trkpt>
      <trkpt lat="47.441000" lon="7.937143">
        <ele>590.944210</ele>
        <time>2021-11-20T17:05:20.535Z</time>
      </trkpt>
      <trkpt lat="47.441541" lon="7.937289">
        <ele>593.603205</ele>
        <time>2021-11-20T17:05:39.450Z</time>
      </trkpt>
      <trkpt lat="47.442638" lon="7.937187">
        <ele>598.256883</ele>
        <time>2021-11-20T17:06:23.726Z</time>
      </trkpt>
      <trkpt lat="47.443543" lon="7.937251">
        <ele>601.761267</ele>
        <time>2021-11-20T17:06:48.736Z</time>
      </trkpt>
      <trkpt lat="47.443821" lon="7.937284">
        <ele>602.417696</ele>
        <time>2021-11-20T17:06:54.323Z</time>
      </trkpt>
      <trkpt lat="47.444030" lon="7.937346">
        <ele>601.947794</ele>
        <time>2021-11-20T17:06:57.874Z</time>
      </trkpt>
      <trkpt lat="47.444304" lon="7.937471">
        <ele>601.315691</ele>
        <time>2021-11-20T17:07:01.744Z</time>
      </trkpt>
      <trkpt lat="47.444544" lon="7.937668">
        <ele>600.710579</ele>
        <time>2021-11-20T17:07:05.086Z</time>
      </trkpt>
      <trkpt lat="47.444935" lon="7.938269">
        <ele>599.467308</ele>
        <time>2021-11-20T17:07:10.799Z</time>
      </trkpt>
      <trkpt lat="47.445088" lon="7.938426">
        <ele>599.056773</ele>
        <time>2021-11-20T17:07:12.570Z</time>
      </trkpt>
      <trkpt lat="47.445739" lon="7.938730">
        <ele>595.437254</ele>
        <time>2021-11-20T17:07:18.837Z</time>
      </trkpt>
      <trkpt lat="47.445987" lon="7.938989">
        <ele>593.425447</ele>
        <time>2021-11-20T17:07:21.520Z</time>
      </trkpt>
      <trkpt lat="47.446136" lon="7.939210">
        <ele>592.027060</ele>
        <time>2021-11-20T17:07:23.414Z</time>
      </trkpt>
      <trkpt lat="47.446200" lon="7.939305">
        <ele>591.426177</ele>
        <time>2021-11-20T17:07:24.186Z</time>
      </trkpt>
      <trkpt lat="47.446350" lon="7.939484">
        <ele>590.148971</ele>
        <time>2021-11-20T17:07:26.019Z</time>
      </trkpt>
      <trkpt lat="47.446714" lon="7.939663">
        <ele>587.607192</ele>
        <time>2021-11-20T17:07:29.460Z</time>
      </trkpt>
      <trkpt lat="47.446911" lon="7.939640">
        <ele>586.485764</ele>
        <time>2021-11-20T17:07:31.209Z</time>
      </trkpt>
      <trkpt lat="47.447023" lon="7.939500">
        <ele>585.982035</ele>
        <time>2021-11-20T17:07:32.609Z</time>
      </trkpt>
      <trkpt lat="47.447088" lon="7.939400">
        <ele>585.659853</ele>
        <time>2021-11-20T17:07:33.415Z</time>
      </trkpt>
      <trkpt lat="47.447148" lon="7.939307">
        <ele>585.361294</ele>
        <time>2021-11-20T17:07:34.212Z</time>
      </trkpt>
      <trkpt lat="47.447375" lon="7.938987">
        <ele>584.284063</ele>
        <time>2021-11-20T17:07:37.102Z</time>
      </trkpt>
      <trkpt lat="47.447514" lon="7.938816">
        <ele>583.663006</ele>
        <time>2021-11-20T17:07:39.105Z</time>
      </trkpt>
      <trkpt lat="47.447579" lon="7.938758">
        <ele>583.402246</ele>
        <time>2021-11-20T17:07:39.834Z</time>
      </trkpt>
      <trkpt lat="47.447622" lon="7.938729">
        <ele>583.239915</ele>
        <time>2021-11-20T17:07:40.268Z</time>
      </trkpt>
      <trkpt lat="47.447884" lon="7.938706">
        <ele>582.338420</ele>
        <time>2021-11-20T17:07:43.517Z</time>
      </trkpt>
      <trkpt lat="47.448076" lon="7.938764">
        <ele>581.665323</ele>
        <time>2021-11-20T17:07:45.576Z</time>
      </trkpt>
      <trkpt lat="47.448323" lon="7.938940">
        <ele>580.723575</ele>
        <time>2021-11-20T17:07:48.738Z</time>
      </trkpt>
      <trkpt lat="47.448504" lon="7.939113">
        <ele>580.823847</ele>
        <time>2021-11-20T17:07:52.181Z</time>
      </trkpt>
      <trkpt lat="47.448566" lon="7.939145">
        <ele>580.958153</ele>
        <time>2021-11-20T17:07:53.843Z</time>
      </trkpt>
      <trkpt lat="47.448632" lon="7.939166">
        <ele>581.096227</ele>
        <time>2021-11-20T17:07:55.305Z</time>
      </trkpt>
      <trkpt lat="47.448737" lon="7.939187">
        <ele>581.312932</ele>
        <time>2021-11-20T17:07:57.120Z</time>
      </trkpt>
      <trkpt lat="47.448995" lon="7.939236">
        <ele>581.844935</ele>
        <time>2021-11-20T17:08:02.778Z</time>
      </trkpt>
      <trkpt lat="47.449095" lon="7.939194">
        <ele>582.057547</ele>
        <time>2021-11-20T17:08:04.597Z</time>
      </trkpt>
      <trkpt lat="47.449121" lon="7.939164">
        <ele>582.124995</ele>
        <time>2021-11-20T17:08:05.009Z</time>
      </trkpt>
      <trkpt lat="47.449215" lon="7.939276">
        <ele>582.371888</ele>
        <time>2021-11-20T17:08:08.030Z</time>
      </trkpt>
      <trkpt lat="47.449278" lon="7.939333">
        <ele>582.522942</ele>
        <time>2021-11-20T17:08:09.869Z</time>
      </trkpt>
      <trkpt lat="47.449351" lon="7.939383">
        <ele>582.687481</ele>
        <time>2021-11-20T17:08:11.928Z</time>
      </trkpt>
      <trkpt lat="47.449443" lon="7.939446">
        <ele>582.894838</ele>
        <time>2021-11-20T17:08:13.181Z</time>
      </trkpt>
      <trkpt lat="47.449589" lon="7.939535">
        <ele>583.217817</ele>
        <time>2021-11-20T17:08:18.586Z</time>
      </trkpt>
      <trkpt lat="47.449814" lon="7.939672">
        <ele>583.715476</ele>
        <time>2021-11-20T17:08:24.144Z</time>
      </trkpt>
      <trkpt lat="47.449913" lon="7.939726">
        <ele>583.931289</ele>
        <time>2021-11-20T17:08:28.514Z</time>
      </trkpt>
      <trkpt lat="47.450248" lon="7.939948">
        <ele>585.605533</ele>
        <time>2021-11-20T17:08:40.751Z</time>
      </trkpt>
      <trkpt lat="47.450383" lon="7.940114">
        <ele>586.636810</ele>
        <time>2021-11-20T17:08:46.326Z</time>
      </trkpt>
      <trkpt lat="47.450538" lon="7.940621">
        <ele>588.846858</ele>
        <time>2021-11-20T17:09:00.079Z</time>
      </trkpt>
      <trkpt lat="47.450568" lon="7.940770">
        <ele>589.464362</ele>
        <time>2021-11-20T17:09:04.761Z</time>
      </trkpt>
      <trkpt lat="47.450647" lon="7.940719">
        <ele>589.970679</ele>
        <time>2021-11-20T17:09:08.981Z</time>
      </trkpt>
      <trkpt lat="47.450818" lon="7.940534">
        <ele>591.215190</ele>
        <time>2021-11-20T17:09:16.489Z</time>
      </trkpt>
      <trkpt lat="47.450926" lon="7.940417">
        <ele>592.001566</ele>
        <time>2021-11-20T17:09:22.736Z</time>
      </trkpt>
      <trkpt lat="47.451066" lon="7.940265">
        <ele>593.021725</ele>
        <time>2021-11-20T17:09:29.664Z</time>
      </trkpt>
      <trkpt lat="47.451687" lon="7.939736">
        <ele>597.366172</ele>
        <time>2021-11-20T17:10:00.827Z</time>
      </trkpt>
      <trkpt lat="47.451870" lon="7.939623">
        <ele>598.594455</ele>
        <time>2021-11-20T17:10:09.366Z</time>
      </trkpt>
      <trkpt lat="47.452527" lon="7.939169">
        <ele>603.086035</ele>
        <time>2021-11-20T17:10:39.171Z</time>
      </trkpt>
      <trkpt lat="47.452569" lon="7.939136">
        <ele>603.380606</ele>
        <time>2021-11-20T17:10:40.968Z</time>
      </trkpt>
      <trkpt lat="47.452671" lon="7.939085">
        <ele>604.047493</ele>
        <time>2021-11-20T17:10:45.089Z</time>
      </trkpt>
      <trkpt lat="47.453247" lon="7.938949">
        <ele>606.950348</ele>
        <time>2021-11-20T17:11:04.569Z</time>
      </trkpt>
      <trkpt lat="47.453399" lon="7.938926">
        <ele>607.516377</ele>
        <time>2021-11-20T17:11:09.784Z</time>
      </trkpt>
      <trkpt lat="47.453527" lon="7.938907">
        <ele>607.992941</ele>
        <time>2021-11-20T17:11:13.256Z</time>
      </trkpt>
      <trkpt lat="47.453896" lon="7.938837">
        <ele>609.371116</ele>
        <time>2021-11-20T17:11:24.225Z</time>
      </trkpt>
      <trkpt lat="47.453952" lon="7.938831">
        <ele>609.579114</ele>
        <time>2021-11-20T17:11:25.741Z</time>
      </trkpt>
      <trkpt lat="47.454186" lon="7.938810">
        <ele>610.447571</ele>
        <time>2021-11-20T17:11:32.643Z</time>
      </trkpt>
      <trkpt lat="47.454409" lon="7.938779">
        <ele>611.277324</ele>
        <time>2021-11-20T17:11:38.751Z</time>
      </trkpt>
      <trkpt lat="47.454590" lon="7.938738">
        <ele>611.955665</ele>
        <time>2021-11-20T17:11:43.409Z</time>
      </trkpt>
      <trkpt lat="47.455114" lon="7.938524">
        <ele>613.337412</ele>
        <time>2021-11-20T17:11:57.618Z</time>
      </trkpt>
      <trkpt lat="47.455980" lon="7.938143">
        <ele>615.186710</ele>
        <time>2021-11-20T17:12:18.969Z</time>
      </trkpt>
      <trkpt lat="47.456527" lon="7.937909">
        <ele>616.276385</ele>
        <time>2021-11-20T17:12:30.512Z</time>
      </trkpt>
      <trkpt lat="47.456612" lon="7.937840">
        <ele>616.342576</ele>
        <time>2021-11-20T17:12:32.628Z</time>
      </trkpt>
      <trkpt lat="47.456885" lon="7.937800">
        <ele>616.529850</ele>
        <time>2021-11-20T17:12:38.903Z</time>
      </trkpt>
      <trkpt lat="47.457759" lon="7.938112">
        <ele>617.143615</ele>
        <time>2021-11-20T17:12:59.101Z</time>
      </trkpt>
      <trkpt lat="47.458684" lon="7.938601">
        <ele>617.983351</ele>
        <time>2021-11-20T17:13:20.274Z</time>
      </trkpt>
      <trkpt lat="47.459661" lon="7.938631">
        <ele>618.974800</ele>
        <time>2021-11-20T17:13:44.186Z</time>
      </trkpt>
      <trkpt lat="47.460344" lon="7.938606">
        <ele>620.571688</ele>
        <time>2021-11-20T17:14:02.489Z</time>
      </trkpt>
      <trkpt lat="47.460640" lon="7.938599">
        <ele>621.592340</ele>
        <time>2021-11-20T17:14:10.778Z</time>
      </trkpt>
      <trkpt lat="47.461076" lon="7.938696">
        <ele>623.112451</ele>
        <time>2021-11-20T17:14:24.585Z</time>
      </trkpt>
      <trkpt lat="47.461309" lon="7.938844">
        <ele>623.986710</ele>
        <time>2021-11-20T17:14:33.752Z</time>
      </trkpt>
      <trkpt lat="47.461855" lon="7.939515">
        <ele>627.520586</ele>
        <time>2021-11-20T17:15:04.793Z</time>
      </trkpt>
      <trkpt lat="47.462056" lon="7.939688">
        <ele>629.247269</ele>
        <time>2021-11-20T17:15:16.275Z</time>
      </trkpt>
      <trkpt lat="47.462207" lon="7.939778">
        <ele>630.456029</ele>
        <time>2021-11-20T17:15:24.957Z</time>
      </trkpt>
      <trkpt lat="47.462671" lon="7.939972">
        <ele>634.036169</ele>
        <time>2021-11-20T17:15:49.583Z</time>
      </trkpt>
      <trkpt lat="47.462895" lon="7.940071">
        <ele>635.772001</ele>
        <time>2021-11-20T17:16:01.742Z</time>
      </trkpt>
      <trkpt lat="47.463169" lon="7.940192">
        <ele>637.895154</ele>
        <time>2021-11-20T17:16:17.359Z</time>
      </trkpt>
      <trkpt lat="47.463351" lon="7.940342">
        <ele>639.252557</ele>
        <time>2021-11-20T17:16:29.594Z</time>
      </trkpt>
      <trkpt lat="47.463757" lon="7.940617">
        <ele>641.512000</ele>
        <time>2021-11-20T17:16:52.639Z</time>
      </trkpt>
      <trkpt lat="47.464307" lon="7.940722">
        <ele>644.318002</ele>
        <time>2021-11-20T17:17:16.437Z</time>
      </trkpt>
      <trkpt lat="47.464341" lon="7.940728">
        <ele>644.491257</ele>
        <time>2021-11-20T17:17:18.781Z</time>
      </trkpt>
      <trkpt lat="47.464912" lon="7.940831">
        <ele>647.401837</ele>
        <time>2021-11-20T17:17:35.227Z</time>
      </trkpt>
      <trkpt lat="47.465246" lon="7.940877">
        <ele>648.089515</ele>
        <time>2021-11-20T17:17:43.014Z</time>
      </trkpt>
      <trkpt lat="47.465632" lon="7.940899">
        <ele>648.329921</ele>
        <time>2021-11-20T17:17:52.996Z</time>
      </trkpt>
      <trkpt lat="47.465949" lon="7.940958">
        <ele>648.528761</ele>
        <time>2021-11-20T17:18:00.989Z</time>
      </trkpt>
      <trkpt lat="47.466346" lon="7.941118">
        <ele>648.784840</ele>
        <time>2021-11-20T17:18:10.397Z</time>
      </trkpt>
      <trkpt lat="47.466651" lon="7.941234">
        <ele>648.980830</ele>
        <time>2021-11-20T17:18:16.767Z</time>
      </trkpt>
      <trkpt lat="47.466822" lon="7.941310">
        <ele>648.524616</ele>
        <time>2021-11-20T17:18:21.264Z</time>
      </trkpt>
      <trkpt lat="47.467100" lon="7.941411">
        <ele>644.602133</ele>
        <time>2021-11-20T17:18:27.600Z</time>
      </trkpt>
      <trkpt lat="47.467399" lon="7.941540">
        <ele>640.334408</ele>
        <time>2021-11-20T17:18:34.537Z</time>
      </trkpt>
      <trkpt lat="47.467899" lon="7.941853">
        <ele>632.894980</ele>
        <time>2021-11-20T17:18:40.856Z</time>
      </trkpt>
      <trkpt lat="47.468006" lon="7.941992">
        <ele>630.943728</ele>
        <time>2021-11-20T17:18:56.901Z</time>
      </trkpt>
      <trkpt lat="47.468260" lon="7.942246">
        <ele>626.742680</ele>
        <time>2021-11-20T17:19:00.445Z</time>
      </trkpt>
      <trkpt lat="47.468737" lon="7.942334">
        <ele>622.622434</ele>
        <time>2021-11-20T17:19:06.050Z</time>
      </trkpt>
      <trkpt lat="47.468954" lon="7.942332">
        <ele>621.368300</ele>
        <time>2021-11-20T17:19:08.573Z</time>
      </trkpt>
      <trkpt lat="47.469044" lon="7.942317">
        <ele>620.844871</ele>
        <time>2021-11-20T17:19:19.226Z</time>
      </trkpt>
      <trkpt lat="47.469058" lon="7.942569">
        <ele>619.857052</ele>
        <time>2021-11-20T17:19:20.839Z</time>
      </trkpt>
      <trkpt lat="47.469215" lon="7.943133">
        <ele>617.474140</ele>
        <time>2021-11-20T17:19:41.445Z</time>
      </trkpt>
      <trkpt lat="47.469517" lon="7.943834">
        <ele>614.226641</ele>
        <time>2021-11-20T17:19:59.634Z</time>
      </trkpt>
      <trkpt lat="47.469843" lon="7.944430">
        <ele>621.484144</ele>
        <time>2021-11-20T17:20:04.474Z</time>
      </trkpt>
      <trkpt lat="47.470096" lon="7.944809">
        <ele>627.036111</ele>
        <time>2021-11-20T17:20:45.596Z</time>
      </trkpt>
      <trkpt lat="47.470904" lon="7.946018">
        <ele>641.805499</ele>
        <time>2021-11-20T17:22:14.684Z</time>
      </trkpt>
      <trkpt lat="47.471580" lon="7.947013">
        <ele>642.025344</ele>
        <time>2021-11-20T17:22:25.522Z</time>
      </trkpt>
      <trkpt lat="47.471655" lon="7.947281">
        <ele>642.070546</ele>
        <time>2021-11-20T17:22:27.370Z</time>
      </trkpt>
      <trkpt lat="47.471588" lon="7.947530">
        <ele>642.112311</ele>
        <time>2021-11-20T17:22:29.273Z</time>
      </trkpt>
      <trkpt lat="47.471526" lon="7.947625">
        <ele>642.132890</ele>
        <time>2021-11-20T17:22:30.095Z</time>
      </trkpt>
      <trkpt lat="47.471433" lon="7.947675">
        <ele>642.155703</ele>
        <time>2021-11-20T17:22:30.999Z</time>
      </trkpt>
      <trkpt lat="47.470644" lon="7.947609">
        <ele>636.525261</ele>
        <time>2021-11-20T17:22:38.237Z</time>
      </trkpt>
      <trkpt lat="47.470424" lon="7.947722">
        <ele>634.658737</ele>
        <time>2021-11-20T17:22:40.290Z</time>
      </trkpt>
      <trkpt lat="47.470368" lon="7.947828">
        <ele>633.929864</ele>
        <time>2021-11-20T17:22:41.086Z</time>
      </trkpt>
      <trkpt lat="47.470333" lon="7.948107">
        <ele>632.392486</ele>
        <time>2021-11-20T17:22:42.773Z</time>
      </trkpt>
      <trkpt lat="47.470426" lon="7.948527">
        <ele>629.998035</ele>
        <time>2021-11-20T17:22:45.350Z</time>
      </trkpt>
      <trkpt lat="47.470338" lon="7.948724">
        <ele>628.718737</ele>
        <time>2021-11-20T17:22:46.736Z</time>
      </trkpt>
      <trkpt lat="47.470241" lon="7.948800">
        <ele>627.838990</ele>
        <time>2021-11-20T17:22:47.681Z</time>
      </trkpt>
      <trkpt lat="47.470079" lon="7.948808">
        <ele>625.659786</ele>
        <time>2021-11-20T17:22:49.070Z</time>
      </trkpt>
      <trkpt lat="47.469762" lon="7.948654">
        <ele>621.055953</ele>
        <time>2021-11-20T17:22:51.886Z</time>
      </trkpt>
      <trkpt lat="47.469469" lon="7.948624">
        <ele>617.003417</ele>
        <time>2021-11-20T17:22:54.338Z</time>
      </trkpt>
      <trkpt lat="47.469180" lon="7.948713">
        <ele>612.930256</ele>
        <time>2021-11-20T17:22:56.792Z</time>
      </trkpt>
      <trkpt lat="47.468810" lon="7.949041">
        <ele>606.978434</ele>
        <time>2021-11-20T17:23:00.364Z</time>
      </trkpt>
      <trkpt lat="47.468558" lon="7.949650">
        <ele>600.401901</ele>
        <time>2021-11-20T17:23:04.369Z</time>
      </trkpt>
      <trkpt lat="47.468441" lon="7.950143">
        <ele>595.683662</ele>
        <time>2021-11-20T17:23:07.302Z</time>
      </trkpt>
      <trkpt lat="47.468300" lon="7.950849">
        <ele>589.035953</ele>
        <time>2021-11-20T17:23:11.452Z</time>
      </trkpt>
      <trkpt lat="47.468208" lon="7.951691">
        <ele>581.333857</ele>
        <time>2021-11-20T17:23:16.311Z</time>
      </trkpt>
      <trkpt lat="47.468258" lon="7.952349">
        <ele>576.742381</ele>
        <time>2021-11-20T17:23:20.157Z</time>
      </trkpt>
      <trkpt lat="47.468338" lon="7.952658">
        <ele>574.919170</ele>
        <time>2021-11-20T17:23:22.110Z</time>
      </trkpt>
      <trkpt lat="47.468688" lon="7.953623">
        <ele>568.884986</ele>
        <time>2021-11-20T17:23:28.664Z</time>
      </trkpt>
      <trkpt lat="47.468825" lon="7.953883">
        <ele>567.068573</ele>
        <time>2021-11-20T17:23:30.679Z</time>
      </trkpt>
      <trkpt lat="47.469129" lon="7.954175">
        <ele>564.135205</ele>
        <time>2021-11-20T17:23:33.974Z</time>
      </trkpt>
      <trkpt lat="47.469948" lon="7.954438">
        <ele>558.333036</ele>
        <time>2021-11-20T17:23:41.605Z</time>
      </trkpt>
      <trkpt lat="47.470173" lon="7.954771">
        <ele>556.129593</ele>
        <time>2021-11-20T17:23:44.461Z</time>
      </trkpt>
      <trkpt lat="47.470344" lon="7.955464">
        <ele>552.677096</ele>
        <time>2021-11-20T17:23:48.897Z</time>
      </trkpt>
      <trkpt lat="47.470551" lon="7.956984">
        <ele>544.877239</ele>
        <time>2021-11-20T17:23:58.252Z</time>
      </trkpt>
      <trkpt lat="47.470611" lon="7.957558">
        <ele>541.927536</ele>
        <time>2021-11-20T17:24:01.746Z</time>
      </trkpt>
      <trkpt lat="47.470622" lon="7.958630">
        <ele>536.445000</ele>
        <time>2021-11-20T17:24:08.180Z</time>
      </trkpt>
      <trkpt lat="47.470999" lon="7.960100">
        <ele>528.293413</ele>
        <time>2021-11-20T17:24:17.591Z</time>
      </trkpt>
      <trkpt lat="47.471231" lon="7.960809">
        <ele>524.271524</ele>
        <time>2021-11-20T17:24:22.326Z</time>
      </trkpt>
      <trkpt lat="47.471575" lon="7.961333">
        <ele>521.313983</ele>
        <time>2021-11-20T17:24:26.786Z</time>
      </trkpt>
      <trkpt lat="47.471579" lon="7.961404">
        <ele>521.025514</ele>
        <time>2021-11-20T17:24:27.185Z</time>
      </trkpt>
      <trkpt lat="47.471568" lon="7.961446">
        <ele>520.843142</ele>
        <time>2021-11-20T17:24:27.442Z</time>
      </trkpt>
      <trkpt lat="47.471484" lon="7.961507">
        <ele>520.282642</ele>
        <time>2021-11-20T17:24:28.346Z</time>
      </trkpt>
      <trkpt lat="47.471375" lon="7.961461">
        <ele>519.603699</ele>
        <time>2021-11-20T17:24:29.459Z</time>
      </trkpt>
      <trkpt lat="47.470924" lon="7.960881">
        <ele>516.024222</ele>
        <time>2021-11-20T17:24:34.898Z</time>
      </trkpt>
      <trkpt lat="47.470268" lon="7.959615">
        <ele>511.342734</ele>
        <time>2021-11-20T17:24:45.597Z</time>
      </trkpt>
      <trkpt lat="47.469974" lon="7.958722">
        <ele>509.041758</ele>
        <time>2021-11-20T17:24:52.520Z</time>
      </trkpt>
      <trkpt lat="47.469781" lon="7.958087">
        <ele>507.377055</ele>
        <time>2021-11-20T17:24:57.313Z</time>
      </trkpt>
      <trkpt lat="47.469604" lon="7.957623">
        <ele>505.636678</ele>
        <time>2021-11-20T17:25:00.864Z</time>
      </trkpt>
      <trkpt lat="47.469296" lon="7.957034">
        <ele>503.204168</ele>
        <time>2021-11-20T17:25:05.746Z</time>
      </trkpt>
      <trkpt lat="47.469049" lon="7.956742">
        <ele>501.676263</ele>
        <time>2021-11-20T17:25:08.822Z</time>
      </trkpt>
      <trkpt lat="47.468875" lon="7.956583">
        <ele>500.687948</ele>
        <time>2021-11-20T17:25:10.675Z</time>
      </trkpt>
      <trkpt lat="47.468475" lon="7.956375">
        <ele>498.457317</ele>
        <time>2021-11-20T17:25:14.481Z</time>
      </trkpt>
      <trkpt lat="47.468322" lon="7.956470">
        <ele>497.006540</ele>
        <time>2021-11-20T17:25:16.076Z</time>
      </trkpt>
      <trkpt lat="47.468267" lon="7.956746">
        <ele>495.305863</ele>
        <time>2021-11-20T17:25:17.826Z</time>
      </trkpt>
      <trkpt lat="47.468479" lon="7.957453">
        <ele>490.734549</ele>
        <time>2021-11-20T17:25:22.425Z</time>
      </trkpt>
      <trkpt lat="47.468507" lon="7.957558">
        <ele>490.067416</ele>
        <time>2021-11-20T17:25:23.093Z</time>
      </trkpt>
      <trkpt lat="47.468524" lon="7.957646">
        <ele>489.526481</ele>
        <time>2021-11-20T17:25:23.609Z</time>
      </trkpt>
      <trkpt lat="47.468536" lon="7.958296">
        <ele>485.683294</ele>
        <time>2021-11-20T17:25:27.449Z</time>
      </trkpt>
      <trkpt lat="47.468627" lon="7.958965">
        <ele>481.280544</ele>
        <time>2021-11-20T17:25:31.382Z</time>
      </trkpt>
      <trkpt lat="47.468637" lon="7.959076">
        <ele>480.454326</ele>
        <time>2021-11-20T17:25:32.007Z</time>
      </trkpt>
      <trkpt lat="47.468641" lon="7.959158">
        <ele>479.847742</ele>
        <time>2021-11-20T17:25:32.500Z</time>
      </trkpt>
      <trkpt lat="47.468645" lon="7.959223">
        <ele>479.366178</ele>
        <time>2021-11-20T17:25:32.870Z</time>
      </trkpt>
      <trkpt lat="47.468655" lon="7.959428">
        <ele>477.849720</ele>
        <time>2021-11-20T17:25:34.059Z</time>
      </trkpt>
      <trkpt lat="47.468634" lon="7.959800">
        <ele>475.095485</ele>
        <time>2021-11-20T17:25:36.186Z</time>
      </trkpt>
      <trkpt lat="47.468516" lon="7.960416">
        <ele>470.371567</ele>
        <time>2021-11-20T17:25:39.887Z</time>
      </trkpt>
      <trkpt lat="47.468503" lon="7.960562">
        <ele>469.285046</ele>
        <time>2021-11-20T17:25:40.713Z</time>
      </trkpt>
      <trkpt lat="47.468498" lon="7.960883">
        <ele>466.916017</ele>
        <time>2021-11-20T17:25:42.589Z</time>
      </trkpt>
      <trkpt lat="47.468509" lon="7.961184">
        <ele>464.691938</ele>
        <time>2021-11-20T17:25:44.292Z</time>
      </trkpt>
      <trkpt lat="47.468616" lon="7.962000">
        <ele>460.171925</ele>
        <time>2021-11-20T17:25:49.224Z</time>
      </trkpt>
      <trkpt lat="47.469373" lon="7.963006">
        <ele>452.686138</ele>
        <time>2021-11-20T17:25:58.299Z</time>
      </trkpt>
      <trkpt lat="47.469749" lon="7.963424">
        <ele>449.726490</ele>
        <time>2021-11-20T17:26:02.763Z</time>
      </trkpt>
      <trkpt lat="47.470318" lon="7.964176">
        <ele>446.791412</ele>
        <time>2021-11-20T17:26:10.226Z</time>
      </trkpt>
      <trkpt lat="47.470351" lon="7.964220">
        <ele>446.620517</ele>
        <time>2021-11-20T17:26:10.642Z</time>
      </trkpt>
      <trkpt lat="47.470610" lon="7.964511">
        <ele>445.369428</ele>
        <time>2021-11-20T17:26:13.899Z</time>
      </trkpt>
      <trkpt lat="47.471250" lon="7.965231">
        <ele>442.345788</ele>
        <time>2021-11-20T17:26:22.290Z</time>
      </trkpt>
      <trkpt lat="47.471503" lon="7.965463">
        <ele>441.274265</ele>
        <time>2021-11-20T17:26:25.268Z</time>
      </trkpt>
      <trkpt lat="47.471880" lon="7.965766">
        <ele>439.729793</ele>
        <time>2021-11-20T17:26:29.550Z</time>
      </trkpt>
      <trkpt lat="47.472564" lon="7.966330">
        <ele>436.910900</ele>
        <time>2021-11-20T17:26:37.286Z</time>
      </trkpt>
      <trkpt lat="47.472594" lon="7.966357">
        <ele>436.762594</ele>
        <time>2021-11-20T17:26:37.592Z</time>
      </trkpt>
      <trkpt lat="47.472859" lon="7.966644">
        <ele>435.312409</ele>
        <time>2021-11-20T17:26:40.740Z</time>
      </trkpt>
      <trkpt lat="47.473444" lon="7.967380">
        <ele>431.921487</ele>
        <time>2021-11-20T17:26:48.014Z</time>
      </trkpt>
      <trkpt lat="47.473664" lon="7.967490">
        <ele>430.896063</ele>
        <time>2021-11-20T17:26:50.272Z</time>
      </trkpt>
      <trkpt lat="47.474076" lon="7.967608">
        <ele>429.043037</ele>
        <time>2021-11-20T17:26:54.236Z</time>
      </trkpt>
      <trkpt lat="47.474238" lon="7.967666">
        <ele>428.652539</ele>
        <time>2021-11-20T17:26:55.881Z</time>
      </trkpt>
      <trkpt lat="47.474560" lon="7.967748">
        <ele>427.998629</ele>
        <time>2021-11-20T17:26:59.177Z</time>
      </trkpt>
      <trkpt lat="47.475217" lon="7.967697">
        <ele>426.681938</ele>
        <time>2021-11-20T17:27:06.462Z</time>
      </trkpt>
      <trkpt lat="47.475280" lon="7.967711">
        <ele>426.554439</ele>
        <time>2021-11-20T17:27:07.165Z</time>
      </trkpt>
      <trkpt lat="47.475359" lon="7.967770">
        <ele>426.377331</ele>
        <time>2021-11-20T17:27:08.200Z</time>
      </trkpt>
      <trkpt lat="47.475436" lon="7.967868">
        <ele>426.174053</ele>
        <time>2021-11-20T17:27:09.538Z</time>
      </trkpt>
      <trkpt lat="47.475607" lon="7.968209">
        <ele>425.599686</ele>
        <time>2021-11-20T17:27:13.317Z</time>
      </trkpt>
      <trkpt lat="47.475616" lon="7.968229">
        <ele>425.567184</ele>
        <time>2021-11-20T17:27:13.603Z</time>
      </trkpt>
      <trkpt lat="47.475684" lon="7.968334">
        <ele>425.370474</ele>
        <time>2021-11-20T17:27:15.265Z</time>
      </trkpt>
      <trkpt lat="47.475729" lon="7.968403">
        <ele>425.330039</ele>
        <time>2021-11-20T17:27:16.306Z</time>
      </trkpt>
      <trkpt lat="47.475750" lon="7.968429">
        <ele>425.324926</ele>
        <time>2021-11-20T17:27:16.645Z</time>
      </trkpt>
      <trkpt lat="47.475871" lon="7.968576">
        <ele>425.295687</ele>
        <time>2021-11-20T17:27:18.696Z</time>
      </trkpt>
      <trkpt lat="47.476103" lon="7.968806">
        <ele>425.243534</ele>
        <time>2021-11-20T17:27:22.451Z</time>
      </trkpt>
      <trkpt lat="47.476327" lon="7.969094">
        <ele>425.188114</ele>
        <time>2021-11-20T17:27:26.469Z</time>
      </trkpt>
      <trkpt lat="47.476396" lon="7.969182">
        <ele>425.171101</ele>
        <time>2021-11-20T17:27:27.684Z</time>
      </trkpt>
      <trkpt lat="47.476670" lon="7.969631">
        <ele>425.094745</ele>
        <time>2021-11-20T17:27:34.016Z</time>
      </trkpt>
      <trkpt lat="47.476944" lon="7.970103">
        <ele>425.016211</ele>
        <time>2021-11-20T17:27:40.947Z</time>
      </trkpt>
      <trkpt lat="47.477029" lon="7.970212">
        <ele>424.919599</ele>
        <time>2021-11-20T17:27:42.423Z</time>
      </trkpt>
      <trkpt lat="47.477135" lon="7.970342">
        <ele>424.654667</ele>
        <time>2021-11-20T17:27:44.849Z</time>
      </trkpt>
      <trkpt lat="47.477203" lon="7.970445">
        <ele>424.467408</ele>
        <time>2021-11-20T17:27:46.114Z</time>
      </trkpt>
      <trkpt lat="47.477262" lon="7.970548">
        <ele>424.291813</ele>
        <time>2021-11-20T17:27:47.194Z</time>
      </trkpt>
      <trkpt lat="47.477284" lon="7.970600">
        <ele>424.212027</ele>
        <time>2021-11-20T17:27:47.693Z</time>
      </trkpt>
      <trkpt lat="47.477322" lon="7.970682">
        <ele>424.082721</ele>
        <time>2021-11-20T17:27:48.747Z</time>
      </trkpt>
      <trkpt lat="47.477370" lon="7.970827">
        <ele>423.872736</ele>
        <time>2021-11-20T17:27:50.058Z</time>
      </trkpt>
      <trkpt lat="47.477522" lon="7.971381">
        <ele>423.095127</ele>
        <time>2021-11-20T17:27:54.719Z</time>
      </trkpt>
      <trkpt lat="47.477553" lon="7.971461">
        <ele>422.975195</ele>
        <time>2021-11-20T17:27:55.319Z</time>
      </trkpt>
      <trkpt lat="47.477623" lon="7.971640">
        <ele>422.706238</ele>
        <time>2021-11-20T17:27:56.770Z</time>
      </trkpt>
      <trkpt lat="47.477698" lon="7.971759">
        <ele>422.494625</ele>
        <time>2021-11-20T17:27:58.053Z</time>
      </trkpt>
      <trkpt lat="47.477778" lon="7.971876">
        <ele>422.278174</ele>
        <time>2021-11-20T17:27:59.144Z</time>
      </trkpt>
      <trkpt lat="47.478083" lon="7.972275">
        <ele>421.437906</ele>
        <time>2021-11-20T17:28:03.166Z</time>
      </trkpt>
      <trkpt lat="47.478198" lon="7.972475">
        <ele>420.687921</ele>
        <time>2021-11-20T17:28:05.068Z</time>
      </trkpt>
      <trkpt lat="47.478213" lon="7.972508">
        <ele>420.574335</ele>
        <time>2021-11-20T17:28:05.324Z</time>
      </trkpt>
      <trkpt lat="47.478295" lon="7.972689">
        <ele>419.951978</ele>
        <time>2021-11-20T17:28:06.709Z</time>
      </trkpt>
      <trkpt lat="47.478424" lon="7.973015">
        <ele>418.873030</ele>
        <time>2021-11-20T17:28:09.259Z</time>
      </trkpt>
      <trkpt lat="47.478494" lon="7.973191">
        <ele>418.289770</ele>
        <time>2021-11-20T17:28:10.515Z</time>
      </trkpt>
      <trkpt lat="47.478606" lon="7.973396">
        <ele>417.536889</ele>
        <time>2021-11-20T17:28:12.327Z</time>
      </trkpt>
      <trkpt lat="47.478952" lon="7.973850">
        <ele>415.582592</ele>
        <time>2021-11-20T17:28:16.707Z</time>
      </trkpt>
      <trkpt lat="47.479061" lon="7.974014">
        <ele>414.925651</ele>
        <time>2021-11-20T17:28:18.203Z</time>
      </trkpt>
      <trkpt lat="47.479095" lon="7.974066">
        <ele>414.719008</ele>
        <time>2021-11-20T17:28:18.728Z</time>
      </trkpt>
      <trkpt lat="47.479172" lon="7.974215">
        <ele>414.183301</ele>
        <time>2021-11-20T17:28:19.931Z</time>
      </trkpt>
      <trkpt lat="47.479198" lon="7.974266">
        <ele>414.000848</ele>
        <time>2021-11-20T17:28:20.323Z</time>
      </trkpt>
      <trkpt lat="47.479256" lon="7.974388">
        <ele>413.632120</ele>
        <time>2021-11-20T17:28:21.259Z</time>
      </trkpt>
      <trkpt lat="47.479521" lon="7.975122">
        <ele>411.626761</ele>
        <time>2021-11-20T17:28:26.671Z</time>
      </trkpt>
      <trkpt lat="47.479548" lon="7.975187">
        <ele>411.442904</ele>
        <time>2021-11-20T17:28:27.166Z</time>
      </trkpt>
      <trkpt lat="47.479650" lon="7.975428">
        <ele>410.757663</ele>
        <time>2021-11-20T17:28:29.057Z</time>
      </trkpt>
      <trkpt lat="47.479662" lon="7.975458">
        <ele>410.673656</ele>
        <time>2021-11-20T17:28:29.306Z</time>
      </trkpt>
      <trkpt lat="47.479744" lon="7.975611">
        <ele>410.203099</ele>
        <time>2021-11-20T17:28:30.597Z</time>
      </trkpt>
      <trkpt lat="47.480019" lon="7.976061">
        <ele>408.741119</ele>
        <time>2021-11-20T17:28:34.877Z</time>
      </trkpt>
      <trkpt lat="47.480172" lon="7.976321">
        <ele>407.910358</ele>
        <time>2021-11-20T17:28:37.351Z</time>
      </trkpt>
      <trkpt lat="47.480180" lon="7.976340">
        <ele>407.856414</ele>
        <time>2021-11-20T17:28:37.507Z</time>
      </trkpt>
      <trkpt lat="47.480258" lon="7.976521">
        <ele>407.409273</ele>
        <time>2021-11-20T17:28:39.169Z</time>
      </trkpt>
      <trkpt lat="47.480294" lon="7.976615">
        <ele>407.245484</ele>
        <time>2021-11-20T17:28:39.908Z</time>
      </trkpt>
      <trkpt lat="47.480540" lon="7.977249">
        <ele>406.137237</ele>
        <time>2021-11-20T17:28:45.167Z</time>
      </trkpt>
      <trkpt lat="47.481057" lon="7.978315">
        <ele>404.148208</ele>
        <time>2021-11-20T17:28:54.707Z</time>
      </trkpt>
      <trkpt lat="47.481075" lon="7.978353">
        <ele>404.077862</ele>
        <time>2021-11-20T17:28:55.003Z</time>
      </trkpt>
      <trkpt lat="47.481331" lon="7.978796">
        <ele>403.275634</ele>
        <time>2021-11-20T17:28:59.329Z</time>
      </trkpt>
      <trkpt lat="47.481417" lon="7.978989">
        <ele>403.020377</ele>
        <time>2021-11-20T17:29:01.148Z</time>
      </trkpt>
      <trkpt lat="47.481508" lon="7.979190">
        <ele>402.753241</ele>
        <time>2021-11-20T17:29:02.942Z</time>
      </trkpt>
      <trkpt lat="47.481627" lon="7.979494">
        <ele>402.365332</ele>
        <time>2021-11-20T17:29:05.752Z</time>
      </trkpt>
      <trkpt lat="47.481673" lon="7.979611">
        <ele>402.215874</ele>
        <time>2021-11-20T17:29:06.779Z</time>
      </trkpt>
      <trkpt lat="47.481757" lon="7.979824">
        <ele>401.943573</ele>
        <time>2021-11-20T17:29:08.678Z</time>
      </trkpt>
      <trkpt lat="47.481977" lon="7.980334">
        <ele>401.275514</ele>
        <time>2021-11-20T17:29:13.372Z</time>
      </trkpt>
      <trkpt lat="47.482025" lon="7.980480">
        <ele>401.096243</ele>
        <time>2021-11-20T17:29:14.599Z</time>
      </trkpt>
      <trkpt lat="47.482099" lon="7.980698">
        <ele>400.826879</ele>
        <time>2021-11-20T17:29:16.502Z</time>
      </trkpt>
      <trkpt lat="47.482159" lon="7.980898">
        <ele>400.585267</ele>
        <time>2021-11-20T17:29:18.216Z</time>
      </trkpt>
      <trkpt lat="47.482458" lon="7.981897">
        <ele>399.587782</ele>
        <time>2021-11-20T17:29:26.750Z</time>
      </trkpt>
      <trkpt lat="47.482472" lon="7.981944">
        <ele>399.541141</ele>
        <time>2021-11-20T17:29:27.144Z</time>
      </trkpt>
      <trkpt lat="47.482563" lon="7.982231">
        <ele>399.253269</ele>
        <time>2021-11-20T17:29:29.754Z</time>
      </trkpt>
      <trkpt lat="47.482594" lon="7.982339">
        <ele>399.146719</ele>
        <time>2021-11-20T17:29:30.683Z</time>
      </trkpt>
      <trkpt lat="47.482652" lon="7.982524">
        <ele>398.961532</ele>
        <time>2021-11-20T17:29:32.293Z</time>
      </trkpt>
      <trkpt lat="47.482704" lon="7.982687">
        <ele>398.797856</ele>
        <time>2021-11-20T17:29:33.814Z</time>
      </trkpt>
      <trkpt lat="47.482729" lon="7.982770">
        <ele>398.715340</ele>
        <time>2021-11-20T17:29:34.548Z</time>
      </trkpt>
      <trkpt lat="47.482840" lon="7.983205">
        <ele>398.293115</ele>
        <time>2021-11-20T17:29:38.324Z</time>
      </trkpt>
      <trkpt lat="47.482897" lon="7.983529">
        <ele>397.951909</ele>
        <time>2021-11-20T17:29:40.961Z</time>
      </trkpt>
      <trkpt lat="47.483001" lon="7.984129">
        <ele>397.249339</ele>
        <time>2021-11-20T17:29:45.756Z</time>
      </trkpt>
      <trkpt lat="47.483130" lon="7.984873">
        <ele>396.378138</ele>
        <time>2021-11-20T17:29:51.535Z</time>
      </trkpt>
      <trkpt lat="47.483153" lon="7.984996">
        <ele>396.233385</ele>
        <time>2021-11-20T17:29:52.492Z</time>
      </trkpt>
      <trkpt lat="47.483173" lon="7.985106">
        <ele>396.104183</ele>
        <time>2021-11-20T17:29:53.362Z</time>
      </trkpt>
      <trkpt lat="47.483274" lon="7.985553">
        <ele>395.569595</ele>
        <time>2021-11-20T17:29:56.922Z</time>
      </trkpt>
      <trkpt lat="47.483382" lon="7.985915">
        <ele>395.120774</ele>
        <time>2021-11-20T17:29:59.960Z</time>
      </trkpt>
      <trkpt lat="47.483462" lon="7.986151">
        <ele>394.759985</ele>
        <time>2021-11-20T17:30:01.965Z</time>
      </trkpt>
      <trkpt lat="47.483550" lon="7.986378">
        <ele>394.402156</ele>
        <time>2021-11-20T17:30:03.935Z</time>
      </trkpt>
      <trkpt lat="47.483775" lon="7.986910">
        <ele>393.544023</ele>
        <time>2021-11-20T17:30:08.595Z</time>
      </trkpt>
      <trkpt lat="47.484569" lon="7.988582">
        <ele>390.927727</ele>
        <time>2021-11-20T17:30:23.496Z</time>
      </trkpt>
      <trkpt lat="47.485480" lon="7.990116">
        <ele>388.815236</ele>
        <time>2021-11-20T17:30:39.556Z</time>
      </trkpt>
      <trkpt lat="47.485638" lon="7.990371">
        <ele>388.612417</ele>
        <time>2021-11-20T17:30:42.411Z</time>
      </trkpt>
      <trkpt lat="47.485781" lon="7.990604">
        <ele>388.473868</ele>
        <time>2021-11-20T17:30:45.036Z</time>
      </trkpt>
      <trkpt lat="47.486196" lon="7.991276">
        <ele>388.073148</ele>
        <time>2021-11-20T17:30:53.008Z</time>
      </trkpt>
      <trkpt lat="47.486319" lon="7.991471">
        <ele>387.955730</ele>
        <time>2021-11-20T17:30:55.443Z</time>
      </trkpt>
      <trkpt lat="47.486334" lon="7.991668">
        <ele>387.868465</ele>
        <time>2021-11-20T17:30:57.996Z</time>
      </trkpt>
      <trkpt lat="47.486383" lon="7.991737">
        <ele>387.824405</ele>
        <time>2021-11-20T17:30:59.282Z</time>
      </trkpt>
      <trkpt lat="47.486513" lon="7.991937">
        <ele>387.702253</ele>
        <time>2021-11-20T17:31:02.939Z</time>
      </trkpt>
      <trkpt lat="47.487213" lon="7.993014">
        <ele>386.829528</ele>
        <time>2021-11-20T17:31:21.621Z</time>
      </trkpt>
      <trkpt lat="47.487633" lon="7.993524">
        <ele>386.326812</ele>
        <time>2021-11-20T17:31:30.992Z</time>
      </trkpt>
      <trkpt lat="47.488246" lon="7.994102">
        <ele>385.451582</ele>
        <time>2021-11-20T17:31:43.051Z</time>
      </trkpt>
      <trkpt lat="47.488959" lon="7.994757">
        <ele>384.011388</ele>
        <time>2021-11-20T17:31:56.589Z</time>
      </trkpt>
      <trkpt lat="47.489284" lon="7.995053">
        <ele>383.356482</ele>
        <time>2021-11-20T17:32:02.714Z</time>
      </trkpt>
      <trkpt lat="47.490780" lon="7.996642">
        <ele>379.888295</ele>
        <time>2021-11-20T17:32:32.033Z</time>
      </trkpt>
      <trkpt lat="47.491680" lon="7.997343">
        <ele>377.732349</ele>
        <time>2021-11-20T17:32:47.843Z</time>
      </trkpt>
      <trkpt lat="47.491748" lon="7.997367">
        <ele>377.578852</ele>
        <time>2021-11-20T17:32:48.806Z</time>
      </trkpt>
      <trkpt lat="47.491854" lon="7.997405">
        <ele>377.339372</ele>
        <time>2021-11-20T17:32:50.532Z</time>
      </trkpt>
      <trkpt lat="47.491886" lon="7.997365">
        <ele>377.247400</ele>
        <time>2021-11-20T17:32:51.162Z</time>
      </trkpt>
      <trkpt lat="47.492317" lon="7.997637">
        <ele>376.218587</ele>
        <time>2021-11-20T17:32:56.237Z</time>
      </trkpt>
      <trkpt lat="47.492477" lon="7.997747">
        <ele>375.831213</ele>
        <time>2021-11-20T17:32:58.114Z</time>
      </trkpt>
      <trkpt lat="47.492617" lon="7.997908">
        <ele>375.441915</ele>
        <time>2021-11-20T17:33:00.073Z</time>
      </trkpt>
      <trkpt lat="47.492722" lon="7.998050">
        <ele>375.259074</ele>
        <time>2021-11-20T17:33:01.597Z</time>
      </trkpt>
      <trkpt lat="47.492747" lon="7.998084">
        <ele>375.219691</ele>
        <time>2021-11-20T17:33:01.991Z</time>
      </trkpt>
      <trkpt lat="47.492877" lon="7.998257">
        <ele>375.016903</ele>
        <time>2021-11-20T17:33:03.913Z</time>
      </trkpt>
      <trkpt lat="47.493144" lon="7.998645">
        <ele>374.582863</ele>
        <time>2021-11-20T17:33:08.043Z</time>
      </trkpt>
      <trkpt lat="47.493296" lon="7.998833">
        <ele>374.353089</ele>
        <time>2021-11-20T17:33:10.552Z</time>
      </trkpt>
      <trkpt lat="47.493358" lon="7.998911">
        <ele>374.258700</ele>
        <time>2021-11-20T17:33:11.483Z</time>
      </trkpt>
      <trkpt lat="47.493433" lon="7.998996">
        <ele>374.149127</ele>
        <time>2021-11-20T17:33:12.686Z</time>
      </trkpt>
      <trkpt lat="47.493502" lon="7.999071">
        <ele>374.049825</ele>
        <time>2021-11-20T17:33:13.827Z</time>
      </trkpt>
      <trkpt lat="47.493603" lon="7.999152">
        <ele>373.916576</ele>
        <time>2021-11-20T17:33:15.265Z</time>
      </trkpt>
      <trkpt lat="47.493742" lon="7.999216">
        <ele>373.747722</ele>
        <time>2021-11-20T17:33:17.089Z</time>
      </trkpt>
      <trkpt lat="47.493937" lon="7.999285">
        <ele>373.515158</ele>
        <time>2021-11-20T17:33:19.782Z</time>
      </trkpt>
      <trkpt lat="47.493961" lon="7.999292">
        <ele>373.486784</ele>
        <time>2021-11-20T17:33:20.055Z</time>
      </trkpt>
      <trkpt lat="47.494272" lon="7.999381">
        <ele>373.257290</ele>
        <time>2021-11-20T17:33:24.557Z</time>
      </trkpt>
      <trkpt lat="47.494489" lon="7.999417">
        <ele>373.180112</ele>
        <time>2021-11-20T17:33:27.828Z</time>
      </trkpt>
      <trkpt lat="47.494643" lon="7.999430">
        <ele>373.125593</ele>
        <time>2021-11-20T17:33:30.251Z</time>
      </trkpt>
      <trkpt lat="47.494812" lon="7.999457">
        <ele>373.065513</ele>
        <time>2021-11-20T17:33:32.663Z</time>
      </trkpt>
      <trkpt lat="47.495197" lon="7.999589">
        <ele>372.925833</ele>
        <time>2021-11-20T17:33:38.221Z</time>
      </trkpt>
      <trkpt lat="47.495430" lon="7.999752">
        <ele>372.834744</ele>
        <time>2021-11-20T17:33:41.731Z</time>
      </trkpt>
      <trkpt lat="47.495718" lon="8.000005">
        <ele>372.716372</ele>
        <time>2021-11-20T17:33:46.241Z</time>
      </trkpt>
      <trkpt lat="47.496011" lon="8.000286">
        <ele>372.354932</ele>
        <time>2021-11-20T17:33:50.699Z</time>
      </trkpt>
      <trkpt lat="47.496234" lon="8.000584">
        <ele>371.964857</ele>
        <time>2021-11-20T17:33:54.350Z</time>
      </trkpt>
      <trkpt lat="47.496272" lon="8.000651">
        <ele>371.888122</ele>
        <time>2021-11-20T17:33:55.236Z</time>
      </trkpt>
      <trkpt lat="47.496280" lon="8.000664">
        <ele>371.872697</ele>
        <time>2021-11-20T17:33:55.374Z</time>
      </trkpt>
      <trkpt lat="47.496429" lon="8.000925">
        <ele>371.572963</ele>
        <time>2021-11-20T17:33:58.020Z</time>
      </trkpt>
      <trkpt lat="47.496517" lon="8.001077">
        <ele>371.397373</ele>
        <time>2021-11-20T17:33:59.772Z</time>
      </trkpt>
      <trkpt lat="47.496533" lon="8.001104">
        <ele>371.365870</ele>
        <time>2021-11-20T17:34:00.006Z</time>
      </trkpt>
      <trkpt lat="47.496535" lon="8.001108">
        <ele>371.361505</ele>
        <time>2021-11-20T17:34:00.045Z</time>
      </trkpt>
      <trkpt lat="47.496585" lon="8.001187">
        <ele>371.266550</ele>
        <time>2021-11-20T17:34:00.876Z</time>
      </trkpt>
      <trkpt lat="47.496820" lon="8.001547">
        <ele>370.827445</ele>
        <time>2021-11-20T17:34:04.755Z</time>
      </trkpt>
      <trkpt lat="47.496861" lon="8.001608">
        <ele>370.751969</ele>
        <time>2021-11-20T17:34:05.395Z</time>
      </trkpt>
      <trkpt lat="47.496908" lon="8.001680">
        <ele>370.664148</ele>
        <time>2021-11-20T17:34:06.151Z</time>
      </trkpt>
      <trkpt lat="47.496932" lon="8.001715">
        <ele>370.620404</ele>
        <time>2021-11-20T17:34:06.516Z</time>
      </trkpt>
      <trkpt lat="47.497207" lon="8.002132">
        <ele>370.007118</ele>
        <time>2021-11-20T17:34:10.821Z</time>
      </trkpt>
      <trkpt lat="47.497264" lon="8.002219">
        <ele>369.855106</ele>
        <time>2021-11-20T17:34:11.780Z</time>
      </trkpt>
      <trkpt lat="47.497307" lon="8.002279">
        <ele>369.745392</ele>
        <time>2021-11-20T17:34:12.393Z</time>
      </trkpt>
      <trkpt lat="47.497390" lon="8.002409">
        <ele>369.521037</ele>
        <time>2021-11-20T17:34:13.770Z</time>
      </trkpt>
      <trkpt lat="47.497540" lon="8.002634">
        <ele>369.124546</ele>
        <time>2021-11-20T17:34:16.144Z</time>
      </trkpt>
      <trkpt lat="47.497607" lon="8.002710">
        <ele>368.967828</ele>
        <time>2021-11-20T17:34:17.093Z</time>
      </trkpt>
      <trkpt lat="47.497951" lon="8.003094">
        <ele>368.167901</ele>
        <time>2021-11-20T17:34:21.923Z</time>
      </trkpt>
      <trkpt lat="47.498072" lon="8.003250">
        <ele>367.869986</ele>
        <time>2021-11-20T17:34:23.654Z</time>
      </trkpt>
      <trkpt lat="47.498166" lon="8.003383">
        <ele>367.628559</ele>
        <time>2021-11-20T17:34:25.133Z</time>
      </trkpt>
      <trkpt lat="47.498213" lon="8.003454">
        <ele>367.503879</ele>
        <time>2021-11-20T17:34:25.900Z</time>
      </trkpt>
      <trkpt lat="47.498450" lon="8.003874">
        <ele>366.860313</ele>
        <time>2021-11-20T17:34:30.019Z</time>
      </trkpt>
      <trkpt lat="47.498698" lon="8.004313">
        <ele>366.304327</ele>
        <time>2021-11-20T17:34:34.275Z</time>
      </trkpt>
      <trkpt lat="47.498753" lon="8.004410">
        <ele>366.181291</ele>
        <time>2021-11-20T17:34:35.224Z</time>
      </trkpt>
      <trkpt lat="47.498898" lon="8.004636">
        <ele>365.878478</ele>
        <time>2021-11-20T17:34:37.617Z</time>
      </trkpt>
      <trkpt lat="47.498965" lon="8.004710">
        <ele>365.758258</ele>
        <time>2021-11-20T17:34:38.613Z</time>
      </trkpt>
      <trkpt lat="47.499012" lon="8.004762">
        <ele>365.673873</ele>
        <time>2021-11-20T17:34:39.303Z</time>
      </trkpt>
      <trkpt lat="47.499183" lon="8.004875">
        <ele>365.404565</ele>
        <time>2021-11-20T17:34:41.546Z</time>
      </trkpt>
      <trkpt lat="47.499409" lon="8.005000">
        <ele>365.057607</ele>
        <time>2021-11-20T17:34:44.484Z</time>
      </trkpt>
      <trkpt lat="47.499496" lon="8.005059">
        <ele>364.919987</ele>
        <time>2021-11-20T17:34:45.857Z</time>
      </trkpt>
      <trkpt lat="47.499523" lon="8.005078">
        <ele>364.876994</ele>
        <time>2021-11-20T17:34:46.122Z</time>
      </trkpt>
      <trkpt lat="47.499770" lon="8.005268">
        <ele>364.476683</ele>
        <time>2021-11-20T17:34:49.794Z</time>
      </trkpt>
      <trkpt lat="47.499856" lon="8.005338">
        <ele>364.380989</ele>
        <time>2021-11-20T17:34:50.783Z</time>
      </trkpt>
      <trkpt lat="47.499880" lon="8.005358">
        <ele>364.362473</ele>
        <time>2021-11-20T17:34:51.119Z</time>
      </trkpt>
      <trkpt lat="47.499991" lon="8.005468">
        <ele>364.272671</ele>
        <time>2021-11-20T17:34:52.812Z</time>
      </trkpt>
      <trkpt lat="47.500009" lon="8.005488">
        <ele>364.257540</ele>
        <time>2021-11-20T17:34:53.135Z</time>
      </trkpt>
      <trkpt lat="47.500207" lon="8.005727">
        <ele>364.085783</ele>
        <time>2021-11-20T17:34:56.203Z</time>
      </trkpt>
      <trkpt lat="47.500252" lon="8.005784">
        <ele>364.045966</ele>
        <time>2021-11-20T17:34:57.085Z</time>
      </trkpt>
      <trkpt lat="47.500310" lon="8.005852">
        <ele>363.996225</ele>
        <time>2021-11-20T17:34:58.110Z</time>
      </trkpt>
      <trkpt lat="47.500540" lon="8.006079">
        <ele>363.810384</ele>
        <time>2021-11-20T17:35:01.584Z</time>
      </trkpt>
      <trkpt lat="47.500647" lon="8.006180">
        <ele>363.725070</ele>
        <time>2021-11-20T17:35:03.741Z</time>
      </trkpt>
      <trkpt lat="47.500764" lon="8.006290">
        <ele>363.631890</ele>
        <time>2021-11-20T17:35:05.268Z</time>
      </trkpt>
      <trkpt lat="47.500997" lon="8.006551">
        <ele>363.435454</ele>
        <time>2021-11-20T17:35:09.458Z</time>
      </trkpt>
      <trkpt lat="47.501276" lon="8.006911">
        <ele>363.179740</ele>
        <time>2021-11-20T17:35:14.711Z</time>
      </trkpt>
      <trkpt lat="47.501293" lon="8.006936">
        <ele>363.159203</ele>
        <time>2021-11-20T17:35:15.036Z</time>
      </trkpt>
      <trkpt lat="47.501496" lon="8.007247">
        <ele>362.908825</ele>
        <time>2021-11-20T17:35:18.989Z</time>
      </trkpt>
      <trkpt lat="47.501537" lon="8.007308">
        <ele>362.859005</ele>
        <time>2021-11-20T17:35:19.733Z</time>
      </trkpt>
      <trkpt lat="47.501943" lon="8.008353">
        <ele>362.161062</ele>
        <time>2021-11-20T17:35:30.206Z</time>
      </trkpt>
      <trkpt lat="47.502062" lon="8.008650">
        <ele>361.961139</ele>
        <time>2021-11-20T17:35:33.146Z</time>
      </trkpt>
      <trkpt lat="47.502158" lon="8.008808">
        <ele>361.838107</ele>
        <time>2021-11-20T17:35:34.853Z</time>
      </trkpt>
      <trkpt lat="47.502267" lon="8.008979">
        <ele>361.701989</ele>
        <time>2021-11-20T17:35:36.685Z</time>
      </trkpt>
      <trkpt lat="47.502773" lon="8.009928">
        <ele>360.195279</ele>
        <time>2021-11-20T17:35:45.665Z</time>
      </trkpt>
      <trkpt lat="47.502959" lon="8.010415">
        <ele>359.480333</ele>
        <time>2021-11-20T17:35:49.799Z</time>
      </trkpt>
      <trkpt lat="47.503207" lon="8.011279">
        <ele>358.280643</ele>
        <time>2021-11-20T17:35:56.713Z</time>
      </trkpt>
      <trkpt lat="47.503268" lon="8.011479">
        <ele>358.028250</ele>
        <time>2021-11-20T17:35:58.414Z</time>
      </trkpt>
      <trkpt lat="47.503325" lon="8.011662">
        <ele>357.797718</ele>
        <time>2021-11-20T17:35:59.878Z</time>
      </trkpt>
      <trkpt lat="47.503561" lon="8.012433">
        <ele>356.829383</ele>
        <time>2021-11-20T17:36:06.171Z</time>
      </trkpt>
      <trkpt lat="47.503675" lon="8.012805">
        <ele>356.362079</ele>
        <time>2021-11-20T17:36:09.159Z</time>
      </trkpt>
      <trkpt lat="47.503759" lon="8.013139">
        <ele>355.954369</ele>
        <time>2021-11-20T17:36:11.871Z</time>
      </trkpt>
      <trkpt lat="47.503818" lon="8.013443">
        <ele>355.592530</ele>
        <time>2021-11-20T17:36:14.434Z</time>
      </trkpt>
      <trkpt lat="47.503854" lon="8.013721">
        <ele>355.268713</ele>
        <time>2021-11-20T17:36:16.801Z</time>
      </trkpt>
      <trkpt lat="47.503922" lon="8.014235">
        <ele>354.971583</ele>
        <time>2021-11-20T17:36:21.450Z</time>
      </trkpt>
      <trkpt lat="47.504106" lon="8.015484">
        <ele>354.308959</ele>
        <time>2021-11-20T17:36:32.107Z</time>
      </trkpt>
      <trkpt lat="47.504246" lon="8.016448">
        <ele>353.844918</ele>
        <time>2021-11-20T17:36:40.725Z</time>
      </trkpt>
      <trkpt lat="47.504281" lon="8.016674">
        <ele>353.853659</ele>
        <time>2021-11-20T17:36:42.771Z</time>
      </trkpt>
      <trkpt lat="47.504393" lon="8.017182">
        <ele>353.873806</ele>
        <time>2021-11-20T17:36:48.096Z</time>
      </trkpt>
      <trkpt lat="47.504413" lon="8.017267">
        <ele>353.877199</ele>
        <time>2021-11-20T17:36:49.133Z</time>
      </trkpt>
      <trkpt lat="47.504588" lon="8.017986">
        <ele>353.906012</ele>
        <time>2021-11-20T17:36:57.618Z</time>
      </trkpt>
      <trkpt lat="47.504626" lon="8.018141">
        <ele>353.912228</ele>
        <time>2021-11-20T17:36:59.296Z</time>
      </trkpt>
      <trkpt lat="47.504819" lon="8.018974">
        <ele>353.975278</ele>
        <time>2021-11-20T17:37:08.103Z</time>
      </trkpt>
      <trkpt lat="47.504877" lon="8.019222">
        <ele>354.074111</ele>
        <time>2021-11-20T17:37:10.964Z</time>
      </trkpt>
      <trkpt lat="47.504998" lon="8.019743">
        <ele>354.281586</ele>
        <time>2021-11-20T17:37:16.920Z</time>
      </trkpt>
      <trkpt lat="47.505207" lon="8.020615">
        <ele>354.630028</ele>
        <time>2021-11-20T17:37:28.368Z</time>
      </trkpt>
      <trkpt lat="47.505291" lon="8.020961">
        <ele>354.768486</ele>
        <time>2021-11-20T17:37:33.665Z</time>
      </trkpt>
      <trkpt lat="47.505529" lon="8.021539">
        <ele>354.940610</ele>
        <time>2021-11-20T17:37:41.423Z</time>
      </trkpt>
      <trkpt lat="47.505600" lon="8.021664">
        <ele>354.937326</ele>
        <time>2021-11-20T17:37:42.684Z</time>
      </trkpt>
      <trkpt lat="47.505653" lon="8.021731">
        <ele>354.935251</ele>
        <time>2021-11-20T17:37:43.645Z</time>
      </trkpt>
      <trkpt lat="47.505626" lon="8.021792">
        <ele>354.933785</ele>
        <time>2021-11-20T17:37:45.264Z</time>
      </trkpt>
      <trkpt lat="47.505164" lon="8.022351">
        <ele>354.916023</ele>
        <time>2021-11-20T17:37:53.083Z</time>
      </trkpt>
      <trkpt lat="47.505091" lon="8.022464">
        <ele>354.912880</ele>
        <time>2021-11-20T17:37:55.309Z</time>
      </trkpt>
      <trkpt lat="47.505041" lon="8.022652">
        <ele>354.908817</ele>
        <time>2021-11-20T17:37:57.114Z</time>
      </trkpt>
      <trkpt lat="47.505017" lon="8.022771">
        <ele>354.906320</ele>
        <time>2021-11-20T17:37:58.087Z</time>
      </trkpt>
      <trkpt lat="47.504993" lon="8.022933">
        <ele>354.902985</ele>
        <time>2021-11-20T17:37:59.660Z</time>
      </trkpt>
      <trkpt lat="47.504975" lon="8.023185">
        <ele>354.897889</ele>
        <time>2021-11-20T17:38:02.672Z</time>
      </trkpt>
      <trkpt lat="47.504983" lon="8.023284">
        <ele>354.895884</ele>
        <time>2021-11-20T17:38:03.468Z</time>
      </trkpt>
      <trkpt lat="47.505029" lon="8.023398">
        <ele>354.893214</ele>
        <time>2021-11-20T17:38:04.596Z</time>
      </trkpt>
      <trkpt lat="47.505657" lon="8.024171">
        <ele>354.695293</ele>
        <time>2021-11-20T17:38:16.837Z</time>
      </trkpt>
      <trkpt lat="47.505697" lon="8.024216">
        <ele>354.682188</ele>
        <time>2021-11-20T17:38:17.380Z</time>
      </trkpt>
      <trkpt lat="47.505612" lon="8.024383">
        <ele>354.645345</ele>
        <time>2021-11-20T17:38:19.130Z</time>
      </trkpt>
      <trkpt lat="47.505559" lon="8.024486">
        <ele>354.622530</ele>
        <time>2021-11-20T17:38:20.132Z</time>
      </trkpt>
      <trkpt lat="47.505192" lon="8.025207">
        <ele>354.463460</ele>
        <time>2021-11-20T17:38:28.382Z</time>
      </trkpt>
      <trkpt lat="47.504823" lon="8.026024">
        <ele>354.574348</ele>
        <time>2021-11-20T17:38:38.720Z</time>
      </trkpt>
      <trkpt lat="47.504760" lon="8.026163">
        <ele>354.608410</ele>
        <time>2021-11-20T17:38:40.706Z</time>
      </trkpt>
      <trkpt lat="47.504725" lon="8.026244">
        <ele>354.627977</ele>
        <time>2021-11-20T17:38:41.958Z</time>
      </trkpt>
      <trkpt lat="47.504704" lon="8.026294">
        <ele>354.639958</ele>
        <time>2021-11-20T17:38:42.609Z</time>
      </trkpt>
      <trkpt lat="47.504676" lon="8.026276">
        <ele>354.649153</ele>
        <time>2021-11-20T17:38:43.118Z</time>
      </trkpt>
      <trkpt lat="47.504602" lon="8.026299">
        <ele>354.671931</ele>
        <time>2021-11-20T17:38:44.362Z</time>
      </trkpt>
      <trkpt lat="47.504574" lon="8.026349">
        <ele>354.685147</ele>
        <time>2021-11-20T17:38:45.092Z</time>
      </trkpt>
      <trkpt lat="47.504566" lon="8.026393">
        <ele>354.694419</ele>
        <time>2021-11-20T17:38:45.648Z</time>
      </trkpt>
      <trkpt lat="47.504579" lon="8.026477">
        <ele>354.711956</ele>
        <time>2021-11-20T17:38:46.578Z</time>
      </trkpt>
      <trkpt lat="47.504614" lon="8.026525">
        <ele>354.726328</ele>
        <time>2021-11-20T17:38:47.357Z</time>
      </trkpt>
      <trkpt lat="47.504606" lon="8.026545">
        <ele>354.731058</ele>
        <time>2021-11-20T17:38:47.762Z</time>
      </trkpt>
      <trkpt lat="47.504221" lon="8.027444">
        <ele>354.947664</ele>
        <time>2021-11-20T17:38:59.295Z</time>
      </trkpt>
      <trkpt lat="47.504063" lon="8.027828">
        <ele>355.138401</ele>
        <time>2021-11-20T17:39:04.197Z</time>
      </trkpt>
      <trkpt lat="47.503672" lon="8.028775">
        <ele>355.662182</ele>
        <time>2021-11-20T17:39:17.116Z</time>
      </trkpt>
      <trkpt lat="47.503617" lon="8.028907">
        <ele>355.735374</ele>
        <time>2021-11-20T17:39:18.969Z</time>
      </trkpt>
      <trkpt lat="47.503408" lon="8.029412">
        <ele>356.014869</ele>
        <time>2021-11-20T17:39:26.266Z</time>
      </trkpt>
      <trkpt lat="47.503055" lon="8.030264">
        <ele>356.654526</ele>
        <time>2021-11-20T17:39:38.923Z</time>
      </trkpt>
      <trkpt lat="47.502589" lon="8.031477">
        <ele>357.728771</ele>
        <time>2021-11-20T17:39:57.081Z</time>
      </trkpt>
      <trkpt lat="47.502647" lon="8.031521">
        <ele>357.803040</ele>
        <time>2021-11-20T17:39:58.659Z</time>
      </trkpt>
      <trkpt lat="47.502609" lon="8.031626">
        <ele>357.894741</ele>
        <time>2021-11-20T17:40:00.323Z</time>
      </trkpt>
      <trkpt lat="47.502065" lon="8.033266">
        <ele>359.350235</ele>
        <time>2021-11-20T17:40:25.440Z</time>
      </trkpt>
      <trkpt lat="47.501954" lon="8.033629">
        <ele>359.671551</ele>
        <time>2021-11-20T17:40:30.832Z</time>
      </trkpt>
      <trkpt lat="47.501912" lon="8.033769">
        <ele>359.795079</ele>
        <time>2021-11-20T17:40:32.945Z</time>
      </trkpt>
      <trkpt lat="47.501899" lon="8.033875">
        <ele>359.881955</ele>
        <time>2021-11-20T17:40:34.126Z</time>
      </trkpt>
      <trkpt lat="47.501880" lon="8.033941">
        <ele>359.939809</ele>
        <time>2021-11-20T17:40:35.002Z</time>
      </trkpt>
      <trkpt lat="47.501838" lon="8.034051">
        <ele>360.041701</ele>
        <time>2021-11-20T17:40:36.834Z</time>
      </trkpt>
      <trkpt lat="47.501709" lon="8.034282">
        <ele>360.283386</ele>
        <time>2021-11-20T17:40:40.519Z</time>
      </trkpt>
      <trkpt lat="47.501613" lon="8.034680">
        <ele>360.409276</ele>
        <time>2021-11-20T17:40:45.976Z</time>
      </trkpt>
      <trkpt lat="47.501468" lon="8.035629">
        <ele>360.379555</ele>
        <time>2021-11-20T17:40:57.192Z</time>
      </trkpt>
      <trkpt lat="47.501454" lon="8.035709">
        <ele>360.377030</ele>
        <time>2021-11-20T17:40:58.372Z</time>
      </trkpt>
      <trkpt lat="47.501437" lon="8.035841">
        <ele>360.372926</ele>
        <time>2021-11-20T17:41:00.047Z</time>
      </trkpt>
      <trkpt lat="47.501234" lon="8.038241">
        <ele>359.522000</ele>
        <time>2021-11-20T17:41:28.658Z</time>
      </trkpt>
      <trkpt lat="47.501231" lon="8.038279">
        <ele>359.496121</ele>
        <time>2021-11-20T17:41:28.991Z</time>
      </trkpt>
      <trkpt lat="47.501267" lon="8.038284">
        <ele>359.459918</ele>
        <time>2021-11-20T17:41:29.363Z</time>
      </trkpt>
      <trkpt lat="47.501427" lon="8.038308">
        <ele>359.298897</ele>
        <time>2021-11-20T17:41:31.478Z</time>
      </trkpt>
      <trkpt lat="47.501901" lon="8.038376">
        <ele>358.822082</ele>
        <time>2021-11-20T17:41:37.212Z</time>
      </trkpt>
      <trkpt lat="47.502069" lon="8.038565">
        <ele>358.610805</ele>
        <time>2021-11-20T17:41:39.677Z</time>
      </trkpt>
      <trkpt lat="47.502088" lon="8.038680">
        <ele>358.535890</ele>
        <time>2021-11-20T17:41:40.827Z</time>
      </trkpt>
      <trkpt lat="47.502099" lon="8.038844">
        <ele>358.562264</ele>
        <time>2021-11-20T17:41:42.059Z</time>
      </trkpt>
      <trkpt lat="47.502104" lon="8.038924">
        <ele>358.575121</ele>
        <time>2021-11-20T17:41:42.685Z</time>
      </trkpt>
      <trkpt lat="47.502162" lon="8.040946">
        <ele>358.898995</ele>
        <time>2021-11-20T17:42:04.629Z</time>
      </trkpt>
      <trkpt lat="47.502240" lon="8.041844">
        <ele>359.443772</ele>
        <time>2021-11-20T17:42:16.720Z</time>
      </trkpt>
      <trkpt lat="47.502261" lon="8.042085">
        <ele>359.670212</ele>
        <time>2021-11-20T17:42:20.031Z</time>
      </trkpt>
      <trkpt lat="47.502592" lon="8.044305">
        <ele>361.850067</ele>
        <time>2021-11-20T17:42:51.974Z</time>
      </trkpt>
      <trkpt lat="47.502959" lon="8.047023">
        <ele>364.854053</ele>
        <time>2021-11-20T17:43:32.167Z</time>
      </trkpt>
      <trkpt lat="47.503126" lon="8.048338">
        <ele>366.221860</ele>
        <time>2021-11-20T17:43:51.530Z</time>
      </trkpt>
      <trkpt lat="47.503303" lon="8.050012">
        <ele>367.759279</ele>
        <time>2021-11-20T17:44:14.175Z</time>
      </trkpt>
      <trkpt lat="47.503323" lon="8.050248">
        <ele>367.948034</ele>
        <time>2021-11-20T17:44:17.420Z</time>
      </trkpt>
      <trkpt lat="47.503363" lon="8.050738">
        <ele>368.339721</ele>
        <time>2021-11-20T17:44:23.796Z</time>
      </trkpt>
      <trkpt lat="47.503386" lon="8.051161">
        <ele>368.676494</ele>
        <time>2021-11-20T17:44:29.245Z</time>
      </trkpt>
      <trkpt lat="47.503397" lon="8.051365">
        <ele>368.838900</ele>
        <time>2021-11-20T17:44:32.040Z</time>
      </trkpt>
      <trkpt lat="47.503421" lon="8.051996">
        <ele>369.361041</ele>
        <time>2021-11-20T17:44:40.383Z</time>
      </trkpt>
      <trkpt lat="47.503428" lon="8.052181">
        <ele>369.529141</ele>
        <time>2021-11-20T17:44:42.780Z</time>
      </trkpt>
      <trkpt lat="47.503428" lon="8.052697">
        <ele>369.997270</ele>
        <time>2021-11-20T17:44:49.557Z</time>
      </trkpt>
      <trkpt lat="47.503431" lon="8.052821">
        <ele>370.109838</ele>
        <time>2021-11-20T17:44:51.175Z</time>
      </trkpt>
      <trkpt lat="47.503433" lon="8.053143">
        <ele>370.401977</ele>
        <time>2021-11-20T17:44:56.648Z</time>
      </trkpt>
      <trkpt lat="47.503429" lon="8.053339">
        <ele>370.579874</ele>
        <time>2021-11-20T17:45:00.085Z</time>
      </trkpt>
      <trkpt lat="47.503413" lon="8.053999">
        <ele>371.179029</ele>
        <time>2021-11-20T17:45:11.857Z</time>
      </trkpt>
      <trkpt lat="47.503340" lon="8.055072">
        <ele>372.294527</ele>
        <time>2021-11-20T17:45:31.137Z</time>
      </trkpt>
      <trkpt lat="47.503298" lon="8.055555">
        <ele>372.847430</ele>
        <time>2021-11-20T17:45:39.668Z</time>
      </trkpt>
      <trkpt lat="47.503232" lon="8.056115">
        <ele>373.492835</ele>
        <time>2021-11-20T17:45:49.600Z</time>
      </trkpt>
      <trkpt lat="47.502927" lon="8.057944">
        <ele>375.708954</ele>
        <time>2021-11-20T17:46:25.285Z</time>
      </trkpt>
      <trkpt lat="47.502836" lon="8.058343">
        <ele>376.224121</ele>
        <time>2021-11-20T17:46:33.037Z</time>
      </trkpt>
      <trkpt lat="47.502806" lon="8.058487">
        <ele>376.408465</ele>
        <time>2021-11-20T17:46:36.058Z</time>
      </trkpt>
      <trkpt lat="47.502690" lon="8.058955">
        <ele>377.018295</ele>
        <time>2021-11-20T17:46:45.058Z</time>
      </trkpt>
      <trkpt lat="47.502580" lon="8.059374">
        <ele>377.568209</ele>
        <time>2021-11-20T17:46:53.045Z</time>
      </trkpt>
      <trkpt lat="47.502534" lon="8.059520">
        <ele>377.765284</ele>
        <time>2021-11-20T17:46:56.416Z</time>
      </trkpt>
      <trkpt lat="47.502407" lon="8.059925">
        <ele>378.215887</ele>
        <time>2021-11-20T17:47:04.432Z</time>
      </trkpt>
      <trkpt lat="47.502229" lon="8.060464">
        <ele>378.782524</ele>
        <time>2021-11-20T17:47:15.649Z</time>
      </trkpt>
      <trkpt lat="47.502130" lon="8.060761">
        <ele>379.095319</ele>
        <time>2021-11-20T17:47:21.201Z</time>
      </trkpt>
      <trkpt lat="47.501960" lon="8.061164">
        <ele>379.544051</ele>
        <time>2021-11-20T17:47:29.415Z</time>
      </trkpt>
      <trkpt lat="47.501169" lon="8.063017">
        <ele>382.182092</ele>
        <time>2021-11-20T17:48:06.074Z</time>
      </trkpt>
      <trkpt lat="47.500653" lon="8.064026">
        <ele>383.939316</ele>
        <time>2021-11-20T17:48:32.307Z</time>
      </trkpt>
      <trkpt lat="47.500531" lon="8.064169">
        <ele>384.384131</ele>
        <time>2021-11-20T17:48:37.311Z</time>
      </trkpt>
      <trkpt lat="47.500414" lon="8.064350">
        <ele>385.011290</ele>
        <time>2021-11-20T17:48:43.442Z</time>
      </trkpt>
      <trkpt lat="47.500341" lon="8.064457">
        <ele>385.392002</ele>
        <time>2021-11-20T17:48:46.624Z</time>
      </trkpt>
      <trkpt lat="47.500095" lon="8.064612">
        <ele>386.382778</ele>
        <time>2021-11-20T17:48:56.186Z</time>
      </trkpt>
      <trkpt lat="47.500120" lon="8.064657">
        <ele>386.528639</ele>
        <time>2021-11-20T17:48:57.877Z</time>
      </trkpt>
      <trkpt lat="47.500182" lon="8.064834">
        <ele>387.027794</ele>
        <time>2021-11-20T17:49:02.770Z</time>
      </trkpt>
      <trkpt lat="47.500209" lon="8.064917">
        <ele>387.258425</ele>
        <time>2021-11-20T17:49:06.231Z</time>
      </trkpt>
      <trkpt lat="47.500343" lon="8.065218">
        <ele>388.160899</ele>
        <time>2021-11-20T17:49:14.348Z</time>
      </trkpt>
      <trkpt lat="47.500746" lon="8.065595">
        <ele>389.927579</ele>
        <time>2021-11-20T17:49:32.219Z</time>
      </trkpt>
      <trkpt lat="47.500757" lon="8.065687">
        <ele>390.161485</ele>
        <time>2021-11-20T17:49:33.791Z</time>
      </trkpt>
      <trkpt lat="47.500523" lon="8.066198">
        <ele>391.206800</ele>
        <time>2021-11-20T17:49:47.487Z</time>
      </trkpt>
      <trkpt lat="47.500485" lon="8.066332">
        <ele>391.376634</ele>
        <time>2021-11-20T17:49:51.282Z</time>
      </trkpt>
      <trkpt lat="47.500368" lon="8.066586">
        <ele>391.735900</ele>
        <time>2021-11-20T17:49:58.405Z</time>
      </trkpt>
      <trkpt lat="47.499930" lon="8.068012">
        <ele>393.566540</ele>
        <time>2021-11-20T17:50:24.862Z</time>
      </trkpt>
      <trkpt lat="47.499748" lon="8.068841">
        <ele>393.841632</ele>
        <time>2021-11-20T17:50:36.682Z</time>
      </trkpt>
      <trkpt lat="47.499620" lon="8.069496">
        <ele>393.797990</ele>
        <time>2021-11-20T17:50:45.183Z</time>
      </trkpt>
      <trkpt lat="47.499538" lon="8.069838">
        <ele>393.774762</ele>
        <time>2021-11-20T17:50:49.775Z</time>
      </trkpt>
      <trkpt lat="47.499461" lon="8.070758">
        <ele>393.715427</ele>
        <time>2021-11-20T17:51:01.651Z</time>
      </trkpt>
      <trkpt lat="47.499601" lon="8.071817">
        <ele>394.312042</ele>
        <time>2021-11-20T17:51:17.914Z</time>
      </trkpt>
      <trkpt lat="47.499631" lon="8.072434">
        <ele>394.687640</ele>
        <time>2021-11-20T17:51:28.185Z</time>
      </trkpt>
      <trkpt lat="47.499618" lon="8.072678">
        <ele>394.836252</ele>
        <time>2021-11-20T17:51:32.599Z</time>
      </trkpt>
      <trkpt lat="47.499580" lon="8.073053">
        <ele>395.066492</ele>
        <time>2021-11-20T17:51:38.672Z</time>
      </trkpt>
      <trkpt lat="47.499525" lon="8.073287">
        <ele>395.216925</ele>
        <time>2021-11-20T17:51:43.587Z</time>
      </trkpt>
      <trkpt lat="47.499490" lon="8.073382">
        <ele>395.282626</ele>
        <time>2021-11-20T17:51:45.242Z</time>
      </trkpt>
      <trkpt lat="47.499275" lon="8.073955">
        <ele>395.898916</ele>
        <time>2021-11-20T17:51:56.406Z</time>
      </trkpt>
      <trkpt lat="47.499163" lon="8.074206">
        <ele>396.194116</ele>
        <time>2021-11-20T17:52:02.366Z</time>
      </trkpt>
      <trkpt lat="47.499075" lon="8.074430">
        <ele>396.448407</ele>
        <time>2021-11-20T17:52:06.422Z</time>
      </trkpt>
      <trkpt lat="47.498910" lon="8.074849">
        <ele>396.924356</ele>
        <time>2021-11-20T17:52:15.301Z</time>
      </trkpt>
      <trkpt lat="47.498145" lon="8.076850">
        <ele>399.083350</ele>
        <time>2021-11-20T17:52:55.221Z</time>
      </trkpt>
      <trkpt lat="47.497682" lon="8.077743">
        <ele>400.101435</ele>
        <time>2021-11-20T17:53:15.190Z</time>
      </trkpt>
      <trkpt lat="47.497198" lon="8.078441">
        <ele>400.672685</ele>
        <time>2021-11-20T17:53:31.502Z</time>
      </trkpt>
      <trkpt lat="47.497125" lon="8.078508">
        <ele>400.729521</ele>
        <time>2021-11-20T17:53:33.912Z</time>
      </trkpt>
      <trkpt lat="47.497038" lon="8.078610">
        <ele>400.802958</ele>
        <time>2021-11-20T17:53:36.567Z</time>
      </trkpt>
      <trkpt lat="47.496793" lon="8.078891">
        <ele>401.008045</ele>
        <time>2021-11-20T17:53:43.634Z</time>
      </trkpt>
      <trkpt lat="47.496446" lon="8.079280">
        <ele>401.296071</ele>
        <time>2021-11-20T17:53:53.046Z</time>
      </trkpt>
      <trkpt lat="47.496380" lon="8.079285">
        <ele>401.339799</ele>
        <time>2021-11-20T17:53:53.876Z</time>
      </trkpt>
      <trkpt lat="47.496040" lon="8.079701">
        <ele>401.615150</ele>
        <time>2021-11-20T17:54:00.642Z</time>
      </trkpt>
      <trkpt lat="47.495859" lon="8.079943">
        <ele>401.748362</ele>
        <time>2021-11-20T17:54:04.712Z</time>
      </trkpt>
      <trkpt lat="47.495681" lon="8.080229">
        <ele>401.891847</ele>
        <time>2021-11-20T17:54:08.676Z</time>
      </trkpt>
      <trkpt lat="47.495562" lon="8.080466">
        <ele>402.000805</ele>
        <time>2021-11-20T17:54:11.729Z</time>
      </trkpt>
      <trkpt lat="47.495515" lon="8.080558">
        <ele>402.043365</ele>
        <time>2021-11-20T17:54:12.966Z</time>
      </trkpt>
      <trkpt lat="47.495384" lon="8.080873">
        <ele>402.179854</ele>
        <time>2021-11-20T17:54:17.027Z</time>
      </trkpt>
      <trkpt lat="47.495292" lon="8.081144">
        <ele>402.291766</ele>
        <time>2021-11-20T17:54:20.796Z</time>
      </trkpt>
      <trkpt lat="47.495281" lon="8.081177">
        <ele>402.305345</ele>
        <time>2021-11-20T17:54:21.319Z</time>
      </trkpt>
      <trkpt lat="47.495207" lon="8.081445">
        <ele>402.412177</ele>
        <time>2021-11-20T17:54:24.709Z</time>
      </trkpt>
      <trkpt lat="47.495162" lon="8.081632">
        <ele>402.485426</ele>
        <time>2021-11-20T17:54:27.429Z</time>
      </trkpt>
      <trkpt lat="47.495132" lon="8.081754">
        <ele>402.596753</ele>
        <time>2021-11-20T17:54:29.122Z</time>
      </trkpt>
      <trkpt lat="47.495088" lon="8.082021">
        <ele>403.156279</ele>
        <time>2021-11-20T17:54:32.730Z</time>
      </trkpt>
      <trkpt lat="47.495034" lon="8.082354">
        <ele>403.853494</ele>
        <time>2021-11-20T17:54:37.577Z</time>
      </trkpt>
      <trkpt lat="47.495018" lon="8.082502">
        <ele>404.158644</ele>
        <time>2021-11-20T17:54:40.240Z</time>
      </trkpt>
      <trkpt lat="47.494982" lon="8.082826">
        <ele>404.827144</ele>
        <time>2021-11-20T17:54:44.926Z</time>
      </trkpt>
      <trkpt lat="47.494963" lon="8.083009">
        <ele>405.204091</ele>
        <time>2021-11-20T17:54:48.444Z</time>
      </trkpt>
      <trkpt lat="47.494933" lon="8.083243">
        <ele>405.688999</ele>
        <time>2021-11-20T17:54:53.470Z</time>
      </trkpt>
      <trkpt lat="47.494898" lon="8.083514">
        <ele>406.250725</ele>
        <time>2021-11-20T17:54:59.029Z</time>
      </trkpt>
      <trkpt lat="47.494822" lon="8.084015">
        <ele>407.296118</ele>
        <time>2021-11-20T17:55:09.958Z</time>
      </trkpt>
      <trkpt lat="47.494924" lon="8.084065">
        <ele>407.619890</ele>
        <time>2021-11-20T17:55:13.302Z</time>
      </trkpt>
      <trkpt lat="47.495055" lon="8.084135">
        <ele>408.088279</ele>
        <time>2021-11-20T17:55:18.056Z</time>
      </trkpt>
      <trkpt lat="47.495106" lon="8.084168">
        <ele>408.337307</ele>
        <time>2021-11-20T17:55:19.577Z</time>
      </trkpt>
      <trkpt lat="47.495171" lon="8.084232">
        <ele>408.686591</ele>
        <time>2021-11-20T17:55:22.069Z</time>
      </trkpt>
      <trkpt lat="47.495445" lon="8.084551">
        <ele>410.246286</ele>
        <time>2021-11-20T17:55:34.478Z</time>
      </trkpt>
      <trkpt lat="47.495549" lon="8.084639">
        <ele>410.782256</ele>
        <time>2021-11-20T17:55:38.727Z</time>
      </trkpt>
      <trkpt lat="47.495636" lon="8.084745">
        <ele>411.286416</ele>
        <time>2021-11-20T17:55:43.592Z</time>
      </trkpt>
      <trkpt lat="47.496002" lon="8.085400">
        <ele>413.855776</ele>
        <time>2021-11-20T17:56:01.685Z</time>
      </trkpt>
      <trkpt lat="47.496274" lon="8.085642">
        <ele>415.275653</ele>
        <time>2021-11-20T17:56:11.609Z</time>
      </trkpt>
      <trkpt lat="47.496373" lon="8.085787">
        <ele>415.898788</ele>
        <time>2021-11-20T17:56:16.751Z</time>
      </trkpt>
      <trkpt lat="47.496422" lon="8.086009">
        <ele>416.466776</ele>
        <time>2021-11-20T17:56:20.580Z</time>
      </trkpt>
      <trkpt lat="47.496519" lon="8.086234">
        <ele>417.093593</ele>
        <time>2021-11-20T17:56:26.155Z</time>
      </trkpt>
      <trkpt lat="47.496576" lon="8.086291">
        <ele>417.332705</ele>
        <time>2021-11-20T17:56:29.276Z</time>
      </trkpt>
      <trkpt lat="47.496752" lon="8.086468">
        <ele>418.072336</ele>
        <time>2021-11-20T17:56:34.304Z</time>
      </trkpt>
      <trkpt lat="47.496950" lon="8.086653">
        <ele>418.886238</ele>
        <time>2021-11-20T17:56:41.111Z</time>
      </trkpt>
      <trkpt lat="47.497376" lon="8.086991">
        <ele>420.566338</ele>
        <time>2021-11-20T17:56:53.842Z</time>
      </trkpt>
      <trkpt lat="47.497737" lon="8.087270">
        <ele>421.981925</ele>
        <time>2021-11-20T17:57:04.440Z</time>
      </trkpt>
      <trkpt lat="47.497928" lon="8.087452">
        <ele>422.934475</ele>
        <time>2021-11-20T17:57:11.897Z</time>
      </trkpt>
      <trkpt lat="47.498188" lon="8.087851">
        <ele>424.634126</ele>
        <time>2021-11-20T17:57:23.871Z</time>
      </trkpt>
      <trkpt lat="47.498481" lon="8.088558">
        <ele>427.177139</ele>
        <time>2021-11-20T17:57:42.862Z</time>
      </trkpt>
      <trkpt lat="47.498666" lon="8.088885">
        <ele>428.484826</ele>
        <time>2021-11-20T17:57:52.844Z</time>
      </trkpt>
      <trkpt lat="47.498851" lon="8.089152">
        <ele>429.657433</ele>
        <time>2021-11-20T17:58:03.062Z</time>
      </trkpt>
      <trkpt lat="47.498994" lon="8.089359">
        <ele>430.546071</ele>
        <time>2021-11-20T17:58:10.033Z</time>
      </trkpt>
      <trkpt lat="47.500332" lon="8.091539">
        <ele>438.015809</ele>
        <time>2021-11-20T17:59:10.852Z</time>
      </trkpt>
      <trkpt lat="47.500507" lon="8.091877">
        <ele>438.521638</ele>
        <time>2021-11-20T17:59:17.861Z</time>
      </trkpt>
      <trkpt lat="47.500685" lon="8.092227">
        <ele>439.042006</ele>
        <time>2021-11-20T17:59:24.733Z</time>
      </trkpt>
      <trkpt lat="47.501149" lon="8.093186">
        <ele>440.443125</ele>
        <time>2021-11-20T17:59:39.399Z</time>
      </trkpt>
      <trkpt lat="47.501513" lon="8.093894">
        <ele>441.028449</ele>
        <time>2021-11-20T17:59:49.665Z</time>
      </trkpt>
      <trkpt lat="47.501590" lon="8.094043">
        <ele>441.105668</ele>
        <time>2021-11-20T17:59:51.157Z</time>
      </trkpt>
      <trkpt lat="47.502026" lon="8.094768">
        <ele>441.505209</ele>
        <time>2021-11-20T18:00:02.077Z</time>
      </trkpt>
      <trkpt lat="47.502110" lon="8.094873">
        <ele>441.572199</ele>
        <time>2021-11-20T18:00:03.407Z</time>
      </trkpt>
      <trkpt lat="47.502217" lon="8.094977">
        <ele>441.650193</ele>
        <time>2021-11-20T18:00:06.293Z</time>
      </trkpt>
      <trkpt lat="47.502282" lon="8.095019">
        <ele>441.693406</ele>
        <time>2021-11-20T18:00:07.891Z</time>
      </trkpt>
      <trkpt lat="47.502574" lon="8.095231">
        <ele>441.956058</ele>
        <time>2021-11-20T18:00:14.010Z</time>
      </trkpt>
      <trkpt lat="47.502910" lon="8.095439">
        <ele>443.008228</ele>
        <time>2021-11-20T18:00:20.889Z</time>
      </trkpt>
      <trkpt lat="47.503482" lon="8.095792">
        <ele>444.798596</ele>
        <time>2021-11-20T18:00:35.425Z</time>
      </trkpt>
      <trkpt lat="47.503767" lon="8.095971">
        <ele>445.693007</ele>
        <time>2021-11-20T18:00:44.949Z</time>
      </trkpt>
      <trkpt lat="47.504630" lon="8.096527">
        <ele>448.877141</ele>
        <time>2021-11-20T18:01:16.589Z</time>
      </trkpt>
      <trkpt lat="47.504815" lon="8.096672">
        <ele>449.691538</ele>
        <time>2021-11-20T18:01:23.617Z</time>
      </trkpt>
      <trkpt lat="47.504977" lon="8.096829">
        <ele>450.444846</ele>
        <time>2021-11-20T18:01:30.517Z</time>
      </trkpt>
      <trkpt lat="47.505090" lon="8.096968">
        <ele>451.016439</ele>
        <time>2021-11-20T18:01:34.930Z</time>
      </trkpt>
      <trkpt lat="47.505224" lon="8.097111">
        <ele>451.659103</ele>
        <time>2021-11-20T18:01:40.177Z</time>
      </trkpt>
      <trkpt lat="47.505520" lon="8.097456">
        <ele>453.124786</ele>
        <time>2021-11-20T18:01:50.522Z</time>
      </trkpt>
      <trkpt lat="47.505811" lon="8.097796">
        <ele>454.297634</ele>
        <time>2021-11-20T18:01:59.397Z</time>
      </trkpt>
      <trkpt lat="47.505855" lon="8.097849">
        <ele>454.399138</ele>
        <time>2021-11-20T18:02:00.679Z</time>
      </trkpt>
      <trkpt lat="47.506023" lon="8.098051">
        <ele>454.786420</ele>
        <time>2021-11-20T18:02:06.214Z</time>
      </trkpt>
      <trkpt lat="47.506383" lon="8.098483">
        <ele>455.615655</ele>
        <time>2021-11-20T18:02:17.135Z</time>
      </trkpt>
      <trkpt lat="47.506485" lon="8.098597">
        <ele>455.844347</ele>
        <time>2021-11-20T18:02:19.178Z</time>
      </trkpt>
      <trkpt lat="47.506767" lon="8.098876">
        <ele>456.451269</ele>
        <time>2021-11-20T18:02:26.614Z</time>
      </trkpt>
      <trkpt lat="47.506874" lon="8.098948">
        <ele>456.661584</ele>
        <time>2021-11-20T18:02:29.517Z</time>
      </trkpt>
      <trkpt lat="47.506976" lon="8.099024">
        <ele>456.865915</ele>
        <time>2021-11-20T18:02:31.675Z</time>
      </trkpt>
      <trkpt lat="47.507131" lon="8.099082">
        <ele>457.151991</ele>
        <time>2021-11-20T18:02:33.831Z</time>
      </trkpt>
      <trkpt lat="47.507198" lon="8.099101">
        <ele>457.274059</ele>
        <time>2021-11-20T18:02:35.625Z</time>
      </trkpt>
      <trkpt lat="47.507495" lon="8.099134">
        <ele>457.943721</ele>
        <time>2021-11-20T18:02:40.501Z</time>
      </trkpt>
      <trkpt lat="47.507666" lon="8.099135">
        <ele>458.330103</ele>
        <time>2021-11-20T18:02:44.436Z</time>
      </trkpt>
      <trkpt lat="47.507728" lon="8.099150">
        <ele>458.472052</ele>
        <time>2021-11-20T18:02:45.759Z</time>
      </trkpt>
      <trkpt lat="47.508035" lon="8.099268">
        <ele>459.188726</ele>
        <time>2021-11-20T18:02:51.933Z</time>
      </trkpt>
      <trkpt lat="47.508341" lon="8.099423">
        <ele>459.919493</ele>
        <time>2021-11-20T18:02:59.679Z</time>
      </trkpt>
      <trkpt lat="47.508401" lon="8.099452">
        <ele>460.062107</ele>
        <time>2021-11-20T18:03:01.338Z</time>
      </trkpt>
      <trkpt lat="47.508511" lon="8.099532">
        <ele>460.339027</ele>
        <time>2021-11-20T18:03:04.310Z</time>
      </trkpt>
      <trkpt lat="47.508596" lon="8.099602">
        <ele>460.558803</ele>
        <time>2021-11-20T18:03:07.741Z</time>
      </trkpt>
      <trkpt lat="47.508688" lon="8.099702">
        <ele>460.816693</ele>
        <time>2021-11-20T18:03:11.720Z</time>
      </trkpt>
      <trkpt lat="47.509176" lon="8.100345">
        <ele>462.834870</ele>
        <time>2021-11-20T18:03:30.935Z</time>
      </trkpt>
      <trkpt lat="47.509343" lon="8.100494">
        <ele>463.528928</ele>
        <time>2021-11-20T18:03:36.437Z</time>
      </trkpt>
      <trkpt lat="47.509412" lon="8.100549">
        <ele>463.807877</ele>
        <time>2021-11-20T18:03:38.563Z</time>
      </trkpt>
      <trkpt lat="47.509622" lon="8.100692">
        <ele>464.630671</ele>
        <time>2021-11-20T18:03:45.143Z</time>
      </trkpt>
      <trkpt lat="47.509638" lon="8.100703">
        <ele>464.693466</ele>
        <time>2021-11-20T18:03:45.625Z</time>
      </trkpt>
      <trkpt lat="47.509944" lon="8.100887">
        <ele>465.869113</ele>
        <time>2021-11-20T18:03:55.138Z</time>
      </trkpt>
      <trkpt lat="47.510731" lon="8.101349">
        <ele>469.368662</ele>
        <time>2021-11-20T18:04:20.097Z</time>
      </trkpt>
      <trkpt lat="47.511350" lon="8.101444">
        <ele>472.536881</ele>
        <time>2021-11-20T18:04:38.599Z</time>
      </trkpt>
      <trkpt lat="47.511784" lon="8.101451">
        <ele>474.746508</ele>
        <time>2021-11-20T18:04:51.857Z</time>
      </trkpt>
      <trkpt lat="47.512294" lon="8.101446">
        <ele>477.849455</ele>
        <time>2021-11-20T18:05:16.408Z</time>
      </trkpt>
      <trkpt lat="47.513097" lon="8.101440">
        <ele>486.720033</ele>
        <time>2021-11-20T18:05:58.155Z</time>
      </trkpt>
      <trkpt lat="47.513213" lon="8.101454">
        <ele>488.005696</ele>
        <time>2021-11-20T18:06:04.482Z</time>
      </trkpt>
      <trkpt lat="47.513274" lon="8.101477">
        <ele>488.701050</ele>
        <time>2021-11-20T18:06:11.226Z</time>
      </trkpt>
      <trkpt lat="47.513402" lon="8.101592">
        <ele>490.354993</ele>
        <time>2021-11-20T18:06:18.334Z</time>
      </trkpt>
      <trkpt lat="47.514173" lon="8.102716">
        <ele>503.324387</ele>
        <time>2021-11-20T18:07:35.558Z</time>
      </trkpt>
      <trkpt lat="47.514667" lon="8.103702">
        <ele>514.168304</ele>
        <time>2021-11-20T18:08:32.472Z</time>
      </trkpt>
      <trkpt lat="47.514756" lon="8.103964">
        <ele>516.758746</ele>
        <time>2021-11-20T18:08:45.420Z</time>
      </trkpt>
      <trkpt lat="47.514931" lon="8.104527">
        <ele>521.725732</ele>
        <time>2021-11-20T18:09:11.467Z</time>
      </trkpt>
      <trkpt lat="47.515233" lon="8.105459">
        <ele>528.457987</ele>
        <time>2021-11-20T18:09:51.915Z</time>
      </trkpt>
      <trkpt lat="47.515271" lon="8.105582">
        <ele>529.338874</ele>
        <time>2021-11-20T18:09:57.202Z</time>
      </trkpt>
      <trkpt lat="47.515524" lon="8.106413">
        <ele>535.275343</ele>
        <time>2021-11-20T18:10:26.919Z</time>
      </trkpt>
      <trkpt lat="47.516180" lon="8.108478">
        <ele>547.006129</ele>
        <time>2021-11-20T18:11:34.767Z</time>
      </trkpt>
      <trkpt lat="47.516517" lon="8.109548">
        <ele>552.271392</ele>
        <time>2021-11-20T18:12:08.457Z</time>
      </trkpt>
      <trkpt lat="47.516730" lon="8.110266">
        <ele>555.204787</ele>
        <time>2021-11-20T18:12:30.688Z</time>
      </trkpt>
      <trkpt lat="47.516960" lon="8.110849">
        <ele>557.730322</ele>
        <time>2021-11-20T18:12:47.340Z</time>
      </trkpt>
      <trkpt lat="47.517126" lon="8.111099">
        <ele>559.041715</ele>
        <time>2021-11-20T18:12:55.488Z</time>
      </trkpt>
      <trkpt lat="47.517402" lon="8.111532">
        <ele>560.687913</ele>
        <time>2021-11-20T18:13:08.408Z</time>
      </trkpt>
      <trkpt lat="47.517585" lon="8.111839">
        <ele>560.881398</ele>
        <time>2021-11-20T18:13:15.301Z</time>
      </trkpt>
      <trkpt lat="47.517983" lon="8.112466">
        <ele>561.287988</ele>
        <time>2021-11-20T18:13:26.107Z</time>
      </trkpt>
      <trkpt lat="47.518295" lon="8.113056">
        <ele>561.642065</ele>
        <time>2021-11-20T18:13:32.805Z</time>
      </trkpt>
      <trkpt lat="47.518474" lon="8.113619">
        <ele>561.666573</ele>
        <time>2021-11-20T18:13:37.416Z</time>
      </trkpt>
      <trkpt lat="47.518892" lon="8.116720">
        <ele>557.640079</ele>
        <time>2021-11-20T18:14:00.966Z</time>
      </trkpt>
      <trkpt lat="47.518885" lon="8.117042">
        <ele>557.206297</ele>
        <time>2021-11-20T18:14:03.663Z</time>
      </trkpt>
      <trkpt lat="47.518740" lon="8.117714">
        <ele>556.256422</ele>
        <time>2021-11-20T18:14:09.126Z</time>
      </trkpt>
      <trkpt lat="47.518622" lon="8.118005">
        <ele>555.799401</ele>
        <time>2021-11-20T18:14:11.682Z</time>
      </trkpt>
      <trkpt lat="47.518325" lon="8.118433">
        <ele>554.973128</ele>
        <time>2021-11-20T18:14:16.094Z</time>
      </trkpt>
      <trkpt lat="47.518234" lon="8.118678">
        <ele>553.987826</ele>
        <time>2021-11-20T18:14:18.014Z</time>
      </trkpt>
      <trkpt lat="47.518226" lon="8.118790">
        <ele>553.564114</ele>
        <time>2021-11-20T18:14:18.873Z</time>
      </trkpt>
      <trkpt lat="47.518291" lon="8.118990">
        <ele>552.729091</ele>
        <time>2021-11-20T18:14:20.282Z</time>
      </trkpt>
      <trkpt lat="47.518372" lon="8.119045">
        <ele>552.232688</ele>
        <time>2021-11-20T18:14:21.162Z</time>
      </trkpt>
      <trkpt lat="47.518662" lon="8.118990">
        <ele>550.604006</ele>
        <time>2021-11-20T18:14:24.011Z</time>
      </trkpt>
      <trkpt lat="47.518865" lon="8.118958">
        <ele>549.466776</ele>
        <time>2021-11-20T18:14:26.049Z</time>
      </trkpt>
      <trkpt lat="47.519020" lon="8.118892">
        <ele>548.568335</ele>
        <time>2021-11-20T18:14:27.482Z</time>
      </trkpt>
      <trkpt lat="47.519187" lon="8.118830">
        <ele>547.609244</ele>
        <time>2021-11-20T18:14:29.031Z</time>
      </trkpt>
      <trkpt lat="47.519221" lon="8.118862">
        <ele>547.384820</ele>
        <time>2021-11-20T18:14:29.380Z</time>
      </trkpt>
      <trkpt lat="47.519597" lon="8.118303">
        <ele>544.245789</ele>
        <time>2021-11-20T18:14:34.053Z</time>
      </trkpt>
      <trkpt lat="47.520037" lon="8.117760">
        <ele>539.963816</ele>
        <time>2021-11-20T18:14:39.069Z</time>
      </trkpt>
      <trkpt lat="47.520145" lon="8.117619">
        <ele>538.887425</ele>
        <time>2021-11-20T18:14:40.330Z</time>
      </trkpt>
      <trkpt lat="47.520249" lon="8.117369">
        <ele>537.405019</ele>
        <time>2021-11-20T18:14:42.086Z</time>
      </trkpt>
      <trkpt lat="47.520431" lon="8.116272">
        <ele>531.701999</ele>
        <time>2021-11-20T18:14:48.948Z</time>
      </trkpt>
      <trkpt lat="47.520323" lon="8.115296">
        <ele>529.397126</ele>
        <time>2021-11-20T18:14:55.201Z</time>
      </trkpt>
      <trkpt lat="47.520274" lon="8.113829">
        <ele>526.168593</ele>
        <time>2021-11-20T18:15:06.516Z</time>
      </trkpt>
      <trkpt lat="47.520208" lon="8.113267">
        <ele>524.677369</ele>
        <time>2021-11-20T18:15:10.838Z</time>
      </trkpt>
      <trkpt lat="47.520107" lon="8.112529">
        <ele>522.461827</ele>
        <time>2021-11-20T18:15:15.905Z</time>
      </trkpt>
      <trkpt lat="47.519978" lon="8.111654">
        <ele>519.826691</ele>
        <time>2021-11-20T18:15:21.759Z</time>
      </trkpt>
      <trkpt lat="47.519903" lon="8.111141">
        <ele>518.282330</ele>
        <time>2021-11-20T18:15:25.035Z</time>
      </trkpt>
      <trkpt lat="47.519889" lon="8.110997">
        <ele>517.854271</ele>
        <time>2021-11-20T18:15:25.901Z</time>
      </trkpt>
      <trkpt lat="47.519853" lon="8.110730">
        <ele>516.353512</ele>
        <time>2021-11-20T18:15:27.571Z</time>
      </trkpt>
      <trkpt lat="47.519817" lon="8.110530">
        <ele>515.157842</ele>
        <time>2021-11-20T18:15:28.794Z</time>
      </trkpt>
      <trkpt lat="47.519621" lon="8.109743">
        <ele>510.312302</ele>
        <time>2021-11-20T18:15:33.791Z</time>
      </trkpt>
      <trkpt lat="47.519607" lon="8.109477">
        <ele>508.771039</ele>
        <time>2021-11-20T18:15:35.337Z</time>
      </trkpt>
      <trkpt lat="47.519653" lon="8.109157">
        <ele>506.881081</ele>
        <time>2021-11-20T18:15:37.259Z</time>
      </trkpt>
      <trkpt lat="47.520512" lon="8.107089">
        <ele>491.643110</ele>
        <time>2021-11-20T18:15:51.425Z</time>
      </trkpt>
      <trkpt lat="47.520667" lon="8.106525">
        <ele>487.678322</ele>
        <time>2021-11-20T18:15:54.974Z</time>
      </trkpt>
      <trkpt lat="47.520791" lon="8.105593">
        <ele>481.823098</ele>
        <time>2021-11-20T18:16:00.534Z</time>
      </trkpt>
      <trkpt lat="47.520926" lon="8.105058">
        <ele>478.449052</ele>
        <time>2021-11-20T18:16:03.875Z</time>
      </trkpt>
      <trkpt lat="47.521652" lon="8.103791">
        <ele>468.710919</ele>
        <time>2021-11-20T18:16:13.717Z</time>
      </trkpt>
      <trkpt lat="47.522068" lon="8.102727">
        <ele>462.276790</ele>
        <time>2021-11-20T18:16:21.174Z</time>
      </trkpt>
      <trkpt lat="47.522278" lon="8.102263">
        <ele>459.353651</ele>
        <time>2021-11-20T18:16:24.525Z</time>
      </trkpt>
      <trkpt lat="47.522538" lon="8.101680">
        <ele>455.697398</ele>
        <time>2021-11-20T18:16:28.665Z</time>
      </trkpt>
      <trkpt lat="47.522685" lon="8.101391">
        <ele>453.503347</ele>
        <time>2021-11-20T18:16:30.848Z</time>
      </trkpt>
      <trkpt lat="47.522770" lon="8.101280">
        <ele>452.457500</ele>
        <time>2021-11-20T18:16:31.824Z</time>
      </trkpt>
      <trkpt lat="47.522951" lon="8.101080">
        <ele>450.373409</ele>
        <time>2021-11-20T18:16:33.862Z</time>
      </trkpt>
      <trkpt lat="47.523070" lon="8.100979">
        <ele>449.107651</ele>
        <time>2021-11-20T18:16:35.051Z</time>
      </trkpt>
      <trkpt lat="47.524879" lon="8.099449">
        <ele>429.873854</ele>
        <time>2021-11-20T18:16:53.002Z</time>
      </trkpt>
      <trkpt lat="47.525047" lon="8.099283">
        <ele>428.008216</ele>
        <time>2021-11-20T18:16:54.765Z</time>
      </trkpt>
      <trkpt lat="47.525240" lon="8.099058">
        <ele>425.739223</ele>
        <time>2021-11-20T18:16:56.908Z</time>
      </trkpt>
      <trkpt lat="47.525342" lon="8.098906">
        <ele>424.402526</ele>
        <time>2021-11-20T18:16:58.192Z</time>
      </trkpt>
      <trkpt lat="47.526026" lon="8.097956">
        <ele>417.479174</ele>
        <time>2021-11-20T18:17:06.430Z</time>
      </trkpt>
      <trkpt lat="47.526470" lon="8.097487">
        <ele>413.804779</ele>
        <time>2021-11-20T18:17:11.406Z</time>
      </trkpt>
      <trkpt lat="47.526492" lon="8.097460">
        <ele>413.612274</ele>
        <time>2021-11-20T18:17:11.653Z</time>
      </trkpt>
      <trkpt lat="47.526839" lon="8.097051">
        <ele>410.624309</ele>
        <time>2021-11-20T18:17:15.773Z</time>
      </trkpt>
      <trkpt lat="47.527057" lon="8.096846">
        <ele>409.293801</ele>
        <time>2021-11-20T18:17:18.353Z</time>
      </trkpt>
      <trkpt lat="47.527143" lon="8.096799">
        <ele>408.893532</ele>
        <time>2021-11-20T18:17:19.158Z</time>
      </trkpt>
      <trkpt lat="47.527275" lon="8.096747">
        <ele>408.297114</ele>
        <time>2021-11-20T18:17:20.558Z</time>
      </trkpt>
      <trkpt lat="47.527399" lon="8.096712">
        <ele>407.745926</ele>
        <time>2021-11-20T18:17:21.814Z</time>
      </trkpt>
      <trkpt lat="47.527504" lon="8.096695">
        <ele>407.284714</ele>
        <time>2021-11-20T18:17:22.756Z</time>
      </trkpt>
      <trkpt lat="47.527851" lon="8.096625">
        <ele>405.755557</ele>
        <time>2021-11-20T18:17:26.089Z</time>
      </trkpt>
      <trkpt lat="47.527979" lon="8.096600">
        <ele>405.191809</ele>
        <time>2021-11-20T18:17:27.404Z</time>
      </trkpt>
      <trkpt lat="47.528218" lon="8.096523">
        <ele>404.123814</ele>
        <time>2021-11-20T18:17:29.732Z</time>
      </trkpt>
      <trkpt lat="47.528380" lon="8.096461">
        <ele>403.393208</ele>
        <time>2021-11-20T18:17:31.478Z</time>
      </trkpt>
      <trkpt lat="47.529047" lon="8.096183">
        <ele>400.584193</ele>
        <time>2021-11-20T18:17:38.371Z</time>
      </trkpt>
      <trkpt lat="47.531490" lon="8.095138">
        <ele>390.851315</ele>
        <time>2021-11-20T18:18:03.267Z</time>
      </trkpt>
      <trkpt lat="47.531870" lon="8.095086">
        <ele>389.400244</ele>
        <time>2021-11-20T18:18:07.080Z</time>
      </trkpt>
      <trkpt lat="47.532250" lon="8.095186">
        <ele>387.891803</ele>
        <time>2021-11-20T18:18:10.928Z</time>
      </trkpt>
      <trkpt lat="47.532487" lon="8.095310">
        <ele>386.857823</ele>
        <time>2021-11-20T18:18:13.418Z</time>
      </trkpt>
      <trkpt lat="47.532716" lon="8.095430">
        <ele>385.858574</ele>
        <time>2021-11-20T18:18:15.845Z</time>
      </trkpt>
      <trkpt lat="47.532730" lon="8.095437">
        <ele>385.797789</ele>
        <time>2021-11-20T18:18:15.988Z</time>
      </trkpt>
      <trkpt lat="47.532829" lon="8.095485">
        <ele>385.369272</ele>
        <time>2021-11-20T18:18:19.601Z</time>
      </trkpt>
      <trkpt lat="47.532951" lon="8.095543">
        <ele>384.842186</ele>
        <time>2021-11-20T18:18:20.868Z</time>
      </trkpt>
      <trkpt lat="47.533176" lon="8.095643">
        <ele>383.875839</ele>
        <time>2021-11-20T18:18:23.126Z</time>
      </trkpt>
      <trkpt lat="47.533524" lon="8.095757">
        <ele>382.409690</ele>
        <time>2021-11-20T18:18:26.453Z</time>
      </trkpt>
      <trkpt lat="47.533963" lon="8.095823">
        <ele>380.656019</ele>
        <time>2021-11-20T18:18:30.736Z</time>
      </trkpt>
      <trkpt lat="47.534255" lon="8.095777">
        <ele>379.617380</ele>
        <time>2021-11-20T18:18:33.614Z</time>
      </trkpt>
      <trkpt lat="47.534348" lon="8.095763">
        <ele>379.286741</ele>
        <time>2021-11-20T18:18:34.474Z</time>
      </trkpt>
      <trkpt lat="47.534413" lon="8.095755">
        <ele>379.056042</ele>
        <time>2021-11-20T18:18:35.045Z</time>
      </trkpt>
      <trkpt lat="47.534678" lon="8.095765">
        <ele>378.118424</ele>
        <time>2021-11-20T18:18:38.536Z</time>
      </trkpt>
      <trkpt lat="47.534747" lon="8.095771">
        <ele>377.873948</ele>
        <time>2021-11-20T18:18:39.111Z</time>
      </trkpt>
      <trkpt lat="47.535050" lon="8.095829">
        <ele>376.793314</ele>
        <time>2021-11-20T18:18:42.768Z</time>
      </trkpt>
      <trkpt lat="47.535376" lon="8.096094">
        <ele>375.478007</ele>
        <time>2021-11-20T18:18:46.454Z</time>
      </trkpt>
      <trkpt lat="47.535460" lon="8.096205">
        <ele>375.079844</ele>
        <time>2021-11-20T18:18:47.514Z</time>
      </trkpt>
      <trkpt lat="47.535585" lon="8.096371">
        <ele>374.563026</ele>
        <time>2021-11-20T18:18:49.636Z</time>
      </trkpt>
      <trkpt lat="47.535931" lon="8.096828">
        <ele>373.604288</ele>
        <time>2021-11-20T18:18:54.255Z</time>
      </trkpt>
      <trkpt lat="47.536133" lon="8.097123">
        <ele>373.017627</ele>
        <time>2021-11-20T18:18:58.665Z</time>
      </trkpt>
      <trkpt lat="47.536630" lon="8.097846">
        <ele>371.576970</ele>
        <time>2021-11-20T18:19:06.766Z</time>
      </trkpt>
      <trkpt lat="47.537252" lon="8.098601">
        <ele>369.211245</ele>
        <time>2021-11-20T18:19:15.064Z</time>
      </trkpt>
      <trkpt lat="47.537638" lon="8.098927">
        <ele>367.670166</ele>
        <time>2021-11-20T18:19:19.439Z</time>
      </trkpt>
      <trkpt lat="47.537844" lon="8.099067">
        <ele>366.884089</ele>
        <time>2021-11-20T18:19:21.668Z</time>
      </trkpt>
      <trkpt lat="47.538419" lon="8.099234">
        <ele>364.851854</ele>
        <time>2021-11-20T18:19:27.463Z</time>
      </trkpt>
      <trkpt lat="47.538521" lon="8.099232">
        <ele>364.515450</ele>
        <time>2021-11-20T18:19:28.438Z</time>
      </trkpt>
      <trkpt lat="47.538655" lon="8.099217">
        <ele>364.087009</ele>
        <time>2021-11-20T18:19:29.723Z</time>
      </trkpt>
      <trkpt lat="47.538959" lon="8.099139">
        <ele>363.103356</ele>
        <time>2021-11-20T18:19:32.762Z</time>
      </trkpt>
      <trkpt lat="47.539852" lon="8.098671">
        <ele>360.083334</ele>
        <time>2021-11-20T18:19:42.353Z</time>
      </trkpt>
      <trkpt lat="47.540568" lon="8.098437">
        <ele>358.048961</ele>
        <time>2021-11-20T18:19:50.349Z</time>
      </trkpt>
      <trkpt lat="47.540794" lon="8.098369">
        <ele>357.494524</ele>
        <time>2021-11-20T18:19:52.876Z</time>
      </trkpt>
      <trkpt lat="47.541022" lon="8.098264">
        <ele>356.920495</ele>
        <time>2021-11-20T18:19:55.412Z</time>
      </trkpt>
      <trkpt lat="47.541294" lon="8.098103">
        <ele>356.216289</ele>
        <time>2021-11-20T18:19:58.428Z</time>
      </trkpt>
      <trkpt lat="47.541736" lon="8.097846">
        <ele>355.074720</ele>
        <time>2021-11-20T18:20:03.271Z</time>
      </trkpt>
      <trkpt lat="47.541891" lon="8.097778">
        <ele>354.686075</ele>
        <time>2021-11-20T18:20:04.985Z</time>
      </trkpt>
      <trkpt lat="47.541972" lon="8.097739">
        <ele>354.592824</ele>
        <time>2021-11-20T18:20:05.868Z</time>
      </trkpt>
      <trkpt lat="47.542782" lon="8.097415">
        <ele>353.872860</ele>
        <time>2021-11-20T18:20:16.138Z</time>
      </trkpt>
      <trkpt lat="47.543428" lon="8.096918">
        <ele>353.248221</ele>
        <time>2021-11-20T18:20:26.143Z</time>
      </trkpt>
      <trkpt lat="47.543978" lon="8.096443">
        <ele>353.179157</ele>
        <time>2021-11-20T18:20:35.525Z</time>
      </trkpt>
      <trkpt lat="47.544419" lon="8.096063">
        <ele>353.251746</ele>
        <time>2021-11-20T18:20:44.907Z</time>
      </trkpt>
      <trkpt lat="47.544594" lon="8.095912">
        <ele>353.280561</ele>
        <time>2021-11-20T18:20:48.770Z</time>
      </trkpt>
      <trkpt lat="47.545126" lon="8.095450">
        <ele>353.347588</ele>
        <time>2021-11-20T18:20:58.688Z</time>
      </trkpt>
      <trkpt lat="47.545895" lon="8.094509">
        <ele>350.831370</ele>
        <time>2021-11-20T18:21:09.673Z</time>
      </trkpt>
      <trkpt lat="47.546338" lon="8.093908">
        <ele>349.315987</ele>
        <time>2021-11-20T18:21:15.635Z</time>
      </trkpt>
      <trkpt lat="47.546508" lon="8.093680">
        <ele>348.669553</ele>
        <time>2021-11-20T18:21:17.873Z</time>
      </trkpt>
      <trkpt lat="47.546922" lon="8.093131">
        <ele>346.234614</ele>
        <time>2021-11-20T18:21:23.243Z</time>
      </trkpt>
      <trkpt lat="47.547048" lon="8.092964">
        <ele>345.493719</ele>
        <time>2021-11-20T18:21:24.830Z</time>
      </trkpt>
      <trkpt lat="47.547127" lon="8.092859">
        <ele>345.028610</ele>
        <time>2021-11-20T18:21:25.855Z</time>
      </trkpt>
      <trkpt lat="47.547403" lon="8.092513">
        <ele>343.444168</ele>
        <time>2021-11-20T18:21:29.322Z</time>
      </trkpt>
      <trkpt lat="47.547479" lon="8.092413">
        <ele>342.998718</ele>
        <time>2021-11-20T18:21:30.320Z</time>
      </trkpt>
      <trkpt lat="47.547688" lon="8.092136">
        <ele>341.769794</ele>
        <time>2021-11-20T18:21:32.987Z</time>
      </trkpt>
      <trkpt lat="47.548109" lon="8.091607">
        <ele>340.011437</ele>
        <time>2021-11-20T18:21:38.211Z</time>
      </trkpt>
      <trkpt lat="47.548580" lon="8.090994">
        <ele>338.401073</ele>
        <time>2021-11-20T18:21:44.540Z</time>
      </trkpt>
      <trkpt lat="47.548932" lon="8.090552">
        <ele>337.215840</ele>
        <time>2021-11-20T18:21:49.782Z</time>
      </trkpt>
      <trkpt lat="47.549330" lon="8.090206">
        <ele>336.449314</ele>
        <time>2021-11-20T18:21:55.862Z</time>
      </trkpt>
      <trkpt lat="47.549689" lon="8.090023">
        <ele>336.850623</ele>
        <time>2021-11-20T18:22:01.828Z</time>
      </trkpt>
      <trkpt lat="47.549751" lon="8.090009">
        <ele>336.916917</ele>
        <time>2021-11-20T18:22:02.619Z</time>
      </trkpt>
      <trkpt lat="47.550176" lon="8.089890">
        <ele>337.374110</ele>
        <time>2021-11-20T18:22:10.767Z</time>
      </trkpt>
      <trkpt lat="47.550657" lon="8.089793">
        <ele>337.887235</ele>
        <time>2021-11-20T18:22:22.073Z</time>
      </trkpt>
      <trkpt lat="47.551496" lon="8.089843">
        <ele>338.394002</ele>
        <time>2021-11-20T18:22:41.887Z</time>
      </trkpt>
      <trkpt lat="47.552086" lon="8.089915">
        <ele>338.583612</ele>
        <time>2021-11-20T18:22:54.632Z</time>
      </trkpt>
      <trkpt lat="47.553684" lon="8.090132">
        <ele>334.194309</ele>
        <time>2021-11-20T18:23:11.976Z</time>
      </trkpt>
      <trkpt lat="47.554025" lon="8.090156">
        <ele>332.474102</ele>
        <time>2021-11-20T18:23:15.104Z</time>
      </trkpt>
      <trkpt lat="47.554276" lon="8.090130">
        <ele>331.206247</ele>
        <time>2021-11-20T18:23:17.307Z</time>
      </trkpt>
      <trkpt lat="47.554514" lon="8.090062">
        <ele>329.984894</ele>
        <time>2021-11-20T18:23:19.431Z</time>
      </trkpt>
      <trkpt lat="47.554750" lon="8.089964">
        <ele>328.040257</ele>
        <time>2021-11-20T18:23:21.583Z</time>
      </trkpt>
      <trkpt lat="47.554750" lon="8.089964">
        <ele>328.040257</ele>
        <time>2021-11-20T18:23:21.615Z</time>
      </trkpt>
      <trkpt lat="47.554750" lon="8.089964">
        <ele>328.040257</ele>
        <time>2021-11-20T18:23:22.021Z</time>
      </trkpt>
      <trkpt lat="47.554777" lon="8.090048">
        <ele>327.497385</ele>
        <time>2021-11-20T18:23:22.782Z</time>
      </trkpt>
      <trkpt lat="47.554799" lon="8.090151">
        <ele>326.867022</ele>
        <time>2021-11-20T18:23:23.636Z</time>
      </trkpt>
      <trkpt lat="47.554832" lon="8.090226">
        <ele>326.344623</ele>
        <time>2021-11-20T18:23:24.367Z</time>
      </trkpt>
      <trkpt lat="47.554885" lon="8.090276">
        <ele>325.801416</ele>
        <time>2021-11-20T18:23:25.120Z</time>
      </trkpt>
      <trkpt lat="47.555031" lon="8.090308">
        <ele>324.525424</ele>
        <time>2021-11-20T18:23:27.020Z</time>
      </trkpt>
      <trkpt lat="47.555112" lon="8.090313">
        <ele>323.824523</ele>
        <time>2021-11-20T18:23:27.961Z</time>
      </trkpt>
      <trkpt lat="47.555198" lon="8.090321">
        <ele>323.079537</ele>
        <time>2021-11-20T18:23:28.988Z</time>
      </trkpt>
      <trkpt lat="47.555337" lon="8.090325">
        <ele>321.877572</ele>
        <time>2021-11-20T18:23:30.752Z</time>
      </trkpt>
      <trkpt lat="47.555380" lon="8.090319">
        <ele>321.504167</ele>
        <time>2021-11-20T18:23:31.293Z</time>
      </trkpt>
      <trkpt lat="47.555442" lon="8.090309">
        <ele>320.964973</ele>
        <time>2021-11-20T18:23:32.019Z</time>
      </trkpt>
      <trkpt lat="47.555539" lon="8.090264">
        <ele>320.086209</ele>
        <time>2021-11-20T18:23:33.243Z</time>
      </trkpt>
      <trkpt lat="47.555709" lon="8.090186">
        <ele>318.547608</ele>
        <time>2021-11-20T18:23:35.547Z</time>
      </trkpt>
      <trkpt lat="47.555814" lon="8.090101">
        <ele>317.513179</ele>
        <time>2021-11-20T18:23:36.999Z</time>
      </trkpt>
      <trkpt lat="47.555958" lon="8.089981">
        <ele>316.084836</ele>
        <time>2021-11-20T18:23:38.479Z</time>
      </trkpt>
      <trkpt lat="47.556049" lon="8.089894">
        <ele>315.148541</ele>
        <time>2021-11-20T18:23:39.530Z</time>
      </trkpt>
      <trkpt lat="47.556110" lon="8.089809">
        <ele>314.424599</ele>
        <time>2021-11-20T18:23:40.251Z</time>
      </trkpt>
      <trkpt lat="47.556137" lon="8.089730">
        <ele>314.123612</ele>
        <time>2021-11-20T18:23:40.819Z</time>
      </trkpt>
      <trkpt lat="47.556151" lon="8.089459">
        <ele>313.746185</ele>
        <time>2021-11-20T18:23:42.637Z</time>
      </trkpt>
      <trkpt lat="47.556111" lon="8.089266">
        <ele>313.465821</ele>
        <time>2021-11-20T18:23:43.811Z</time>
      </trkpt>
      <trkpt lat="47.556065" lon="8.089084">
        <ele>313.195943</ele>
        <time>2021-11-20T18:23:45.086Z</time>
      </trkpt>
      <trkpt lat="47.555997" lon="8.088801">
        <ele>312.778786</ele>
        <time>2021-11-20T18:23:47.040Z</time>
      </trkpt>
      <trkpt lat="47.555991" lon="8.088778">
        <ele>312.744544</ele>
        <time>2021-11-20T18:23:47.268Z</time>
      </trkpt>
      <trkpt lat="47.555939" lon="8.088552">
        <ele>312.412968</ele>
        <time>2021-11-20T18:23:49.050Z</time>
      </trkpt>
      <trkpt lat="47.555887" lon="8.088299">
        <ele>312.045705</ele>
        <time>2021-11-20T18:23:51.237Z</time>
      </trkpt>
      <trkpt lat="47.555829" lon="8.087941">
        <ele>311.534440</ele>
        <time>2021-11-20T18:23:54.501Z</time>
      </trkpt>
      <trkpt lat="47.555809" lon="8.087783">
        <ele>311.311205</ele>
        <time>2021-11-20T18:23:56.303Z</time>
      </trkpt>
      <trkpt lat="47.555780" lon="8.087557">
        <ele>310.991744</ele>
        <time>2021-11-20T18:23:58.467Z</time>
      </trkpt>
      <trkpt lat="47.555737" lon="8.087083">
        <ele>310.793304</ele>
        <time>2021-11-20T18:24:06.094Z</time>
      </trkpt>
      <trkpt lat="47.555733" lon="8.086819">
        <ele>311.478385</ele>
        <time>2021-11-20T18:24:11.116Z</time>
      </trkpt>
      <trkpt lat="47.555764" lon="8.085769">
        <ele>314.205055</ele>
        <time>2021-11-20T18:24:32.952Z</time>
      </trkpt>
      <trkpt lat="47.555899" lon="8.084472">
        <ele>317.677541</ele>
        <time>2021-11-20T18:25:02.363Z</time>
      </trkpt>
      <trkpt lat="47.555956" lon="8.084115">
        <ele>318.943639</ele>
        <time>2021-11-20T18:25:11.117Z</time>
      </trkpt>
      <trkpt lat="47.556083" lon="8.083354">
        <ele>321.649123</ele>
        <time>2021-11-20T18:25:29.315Z</time>
      </trkpt>
      <trkpt lat="47.556470" lon="8.081563">
        <ele>327.734113</ele>
        <time>2021-11-20T18:26:16.045Z</time>
      </trkpt>
      <trkpt lat="47.556853" lon="8.080477">
        <ele>330.848059</ele>
        <time>2021-11-20T18:26:42.117Z</time>
      </trkpt>
      <trkpt lat="47.557099" lon="8.079786">
        <ele>332.833426</ele>
        <time>2021-11-20T18:26:56.442Z</time>
      </trkpt>
      <trkpt lat="47.557256" lon="8.079416">
        <ele>333.381114</ele>
        <time>2021-11-20T18:27:03.162Z</time>
      </trkpt>
      <trkpt lat="47.557793" lon="8.078299">
        <ele>333.416032</ele>
        <time>2021-11-20T18:27:19.463Z</time>
      </trkpt>
      <trkpt lat="47.558613" lon="8.076826">
        <ele>332.509078</ele>
        <time>2021-11-20T18:27:34.027Z</time>
      </trkpt>
      <trkpt lat="47.559046" lon="8.076086">
        <ele>331.419137</ele>
        <time>2021-11-20T18:27:41.407Z</time>
      </trkpt>
      <trkpt lat="47.559426" lon="8.075372">
        <ele>330.414172</ele>
        <time>2021-11-20T18:27:48.405Z</time>
      </trkpt>
      <trkpt lat="47.559811" lon="8.074398">
        <ele>329.282710</ele>
        <time>2021-11-20T18:27:57.299Z</time>
      </trkpt>
      <trkpt lat="47.560318" lon="8.072316">
        <ele>326.761424</ele>
        <time>2021-11-20T18:28:14.570Z</time>
      </trkpt>
      <trkpt lat="47.560524" lon="8.071179">
        <ele>325.099750</ele>
        <time>2021-11-20T18:28:23.136Z</time>
      </trkpt>
      <trkpt lat="47.560553" lon="8.071099">
        <ele>324.971571</ele>
        <time>2021-11-20T18:28:23.747Z</time>
      </trkpt>
      <trkpt lat="47.560584" lon="8.070919">
        <ele>324.709364</ele>
        <time>2021-11-20T18:28:25.058Z</time>
      </trkpt>
      <trkpt lat="47.560739" lon="8.070551">
        <ele>324.097071</ele>
        <time>2021-11-20T18:28:28.144Z</time>
      </trkpt>
      <trkpt lat="47.560864" lon="8.070015">
        <ele>323.390997</ele>
        <time>2021-11-20T18:28:32.166Z</time>
      </trkpt>
      <trkpt lat="47.560904" lon="8.069780">
        <ele>323.092141</ele>
        <time>2021-11-20T18:28:33.911Z</time>
      </trkpt>
      <trkpt lat="47.560998" lon="8.069237">
        <ele>322.400885</ele>
        <time>2021-11-20T18:28:37.991Z</time>
      </trkpt>
      <trkpt lat="47.561130" lon="8.068650">
        <ele>321.637923</ele>
        <time>2021-11-20T18:28:42.661Z</time>
      </trkpt>
      <trkpt lat="47.561187" lon="8.068256">
        <ele>321.141043</ele>
        <time>2021-11-20T18:28:45.936Z</time>
      </trkpt>
      <trkpt lat="47.561229" lon="8.067903">
        <ele>320.750989</ele>
        <time>2021-11-20T18:28:48.974Z</time>
      </trkpt>
      <trkpt lat="47.561265" lon="8.067435">
        <ele>320.693175</ele>
        <time>2021-11-20T18:28:52.956Z</time>
      </trkpt>
      <trkpt lat="47.561276" lon="8.067022">
        <ele>320.642445</ele>
        <time>2021-11-20T18:28:56.873Z</time>
      </trkpt>
      <trkpt lat="47.561253" lon="8.066385">
        <ele>320.564149</ele>
        <time>2021-11-20T18:29:03.388Z</time>
      </trkpt>
      <trkpt lat="47.561108" lon="8.065242">
        <ele>320.405648</ele>
        <time>2021-11-20T18:29:15.755Z</time>
      </trkpt>
      <trkpt lat="47.561017" lon="8.064820">
        <ele>320.246524</ele>
        <time>2021-11-20T18:29:20.394Z</time>
      </trkpt>
      <trkpt lat="47.560887" lon="8.064271">
        <ele>320.037547</ele>
        <time>2021-11-20T18:29:25.592Z</time>
      </trkpt>
      <trkpt lat="47.560806" lon="8.064037">
        <ele>319.943086</ele>
        <time>2021-11-20T18:29:27.860Z</time>
      </trkpt>
      <trkpt lat="47.560719" lon="8.063873">
        <ele>319.868158</ele>
        <time>2021-11-20T18:29:29.644Z</time>
      </trkpt>
      <trkpt lat="47.560392" lon="8.063300">
        <ele>319.598617</ele>
        <time>2021-11-20T18:29:35.941Z</time>
      </trkpt>
      <trkpt lat="47.560335" lon="8.063169">
        <ele>319.542631</ele>
        <time>2021-11-20T18:29:37.288Z</time>
      </trkpt>
      <trkpt lat="47.560443" lon="8.063042">
        <ele>319.467788</ele>
        <time>2021-11-20T18:29:38.957Z</time>
      </trkpt>
      <trkpt lat="47.560545" lon="8.062928">
        <ele>319.366404</ele>
        <time>2021-11-20T18:29:40.524Z</time>
      </trkpt>
      <trkpt lat="47.560580" lon="8.062890">
        <ele>319.331973</ele>
        <time>2021-11-20T18:29:41.059Z</time>
      </trkpt>
      <trkpt lat="47.560673" lon="8.062786">
        <ele>319.239516</ele>
        <time>2021-11-20T18:29:43.130Z</time>
      </trkpt>
      <trkpt lat="47.560765" lon="8.062729">
        <ele>319.160384</ele>
        <time>2021-11-20T18:29:44.882Z</time>
      </trkpt>
      <trkpt lat="47.560570" lon="8.061926">
        <ele>318.703378</ele>
        <time>2021-11-20T18:29:52.238Z</time>
      </trkpt>
      <trkpt lat="47.560335" lon="8.060984">
        <ele>318.165563</ele>
        <time>2021-11-20T18:30:00.568Z</time>
      </trkpt>
      <trkpt lat="47.560293" lon="8.060828">
        <ele>318.075621</ele>
        <time>2021-11-20T18:30:01.998Z</time>
      </trkpt>
      <trkpt lat="47.560262" lon="8.060729">
        <ele>318.032043</ele>
        <time>2021-11-20T18:30:02.953Z</time>
      </trkpt>
      <trkpt lat="47.560130" lon="8.060196">
        <ele>317.891171</ele>
        <time>2021-11-20T18:30:08.152Z</time>
      </trkpt>
      <trkpt lat="47.560069" lon="8.059943">
        <ele>317.824510</ele>
        <time>2021-11-20T18:30:10.564Z</time>
      </trkpt>
      <trkpt lat="47.560040" lon="8.059827">
        <ele>317.793816</ele>
        <time>2021-11-20T18:30:11.781Z</time>
      </trkpt>
      <trkpt lat="47.560019" lon="8.059741">
        <ele>317.771124</ele>
        <time>2021-11-20T18:30:12.671Z</time>
      </trkpt>
      <trkpt lat="47.559979" lon="8.059591">
        <ele>317.731105</ele>
        <time>2021-11-20T18:30:14.133Z</time>
      </trkpt>
      <trkpt lat="47.559859" lon="8.059093">
        <ele>317.599900</ele>
        <time>2021-11-20T18:30:19.155Z</time>
      </trkpt>
      <trkpt lat="47.559725" lon="8.058554">
        <ele>317.457375</ele>
        <time>2021-11-20T18:30:24.565Z</time>
      </trkpt>
      <trkpt lat="47.559654" lon="8.058257">
        <ele>317.381031</ele>
        <time>2021-11-20T18:30:27.517Z</time>
      </trkpt>
      <trkpt lat="47.559579" lon="8.057955">
        <ele>317.334877</ele>
        <time>2021-11-20T18:30:30.421Z</time>
      </trkpt>
      <trkpt lat="47.559548" lon="8.057827">
        <ele>317.315373</ele>
        <time>2021-11-20T18:30:31.716Z</time>
      </trkpt>
      <trkpt lat="47.559447" lon="8.057490">
        <ele>317.262487</ele>
        <time>2021-11-20T18:30:35.144Z</time>
      </trkpt>
      <trkpt lat="47.559294" lon="8.057130">
        <ele>317.201468</ele>
        <time>2021-11-20T18:30:39.283Z</time>
      </trkpt>
      <trkpt lat="47.559116" lon="8.056760">
        <ele>317.136297</ele>
        <time>2021-11-20T18:30:43.721Z</time>
      </trkpt>
      <trkpt lat="47.558662" lon="8.056061">
        <ele>317.001959</ele>
        <time>2021-11-20T18:30:53.059Z</time>
      </trkpt>
      <trkpt lat="47.558447" lon="8.055831">
        <ele>317.011338</ele>
        <time>2021-11-20T18:30:56.590Z</time>
      </trkpt>
      <trkpt lat="47.558239" lon="8.055639">
        <ele>317.020006</ele>
        <time>2021-11-20T18:31:00.272Z</time>
      </trkpt>
      <trkpt lat="47.558012" lon="8.055477">
        <ele>317.028918</ele>
        <time>2021-11-20T18:31:03.916Z</time>
      </trkpt>
      <trkpt lat="47.557918" lon="8.055409">
        <ele>317.032618</ele>
        <time>2021-11-20T18:31:05.714Z</time>
      </trkpt>
      <trkpt lat="47.557710" lon="8.055283">
        <ele>317.040567</ele>
        <time>2021-11-20T18:31:09.079Z</time>
      </trkpt>
      <trkpt lat="47.557500" lon="8.055133">
        <ele>317.048813</ele>
        <time>2021-11-20T18:31:12.904Z</time>
      </trkpt>
      <trkpt lat="47.557273" lon="8.054941">
        <ele>317.058058</ele>
        <time>2021-11-20T18:31:17.144Z</time>
      </trkpt>
      <trkpt lat="47.557097" lon="8.054768">
        <ele>317.063967</ele>
        <time>2021-11-20T18:31:20.108Z</time>
      </trkpt>
      <trkpt lat="47.557019" lon="8.054678">
        <ele>317.058855</ele>
        <time>2021-11-20T18:31:21.914Z</time>
      </trkpt>
      <trkpt lat="47.556494" lon="8.054073">
        <ele>317.024469</ele>
        <time>2021-11-20T18:31:30.765Z</time>
      </trkpt>
      <trkpt lat="47.556239" lon="8.053780">
        <ele>317.007785</ele>
        <time>2021-11-20T18:31:35.171Z</time>
      </trkpt>
      <trkpt lat="47.556032" lon="8.053510">
        <ele>316.993526</ele>
        <time>2021-11-20T18:31:39.395Z</time>
      </trkpt>
      <trkpt lat="47.555890" lon="8.053286">
        <ele>316.982803</ele>
        <time>2021-11-20T18:31:43.032Z</time>
      </trkpt>
      <trkpt lat="47.555773" lon="8.053070">
        <ele>316.973138</ele>
        <time>2021-11-20T18:31:45.973Z</time>
      </trkpt>
      <trkpt lat="47.555603" lon="8.052757">
        <ele>317.164815</ele>
        <time>2021-11-20T18:31:50.195Z</time>
      </trkpt>
      <trkpt lat="47.555259" lon="8.052135">
        <ele>317.588438</ele>
        <time>2021-11-20T18:31:58.892Z</time>
      </trkpt>
      <trkpt lat="47.554988" lon="8.051475">
        <ele>317.995406</ele>
        <time>2021-11-20T18:32:07.883Z</time>
      </trkpt>
      <trkpt lat="47.554715" lon="8.050527">
        <ele>318.772958</ele>
        <time>2021-11-20T18:32:22.673Z</time>
      </trkpt>
      <trkpt lat="47.554412" lon="8.049127">
        <ele>320.665412</ele>
        <time>2021-11-20T18:32:45.234Z</time>
      </trkpt>
      <trkpt lat="47.554309" lon="8.048719">
        <ele>321.226125</ele>
        <time>2021-11-20T18:32:52.251Z</time>
      </trkpt>
      <trkpt lat="47.553996" lon="8.047557">
        <ele>322.277895</ele>
        <time>2021-11-20T18:33:11.481Z</time>
      </trkpt>
      <trkpt lat="47.553619" lon="8.046372">
        <ele>323.049774</ele>
        <time>2021-11-20T18:33:27.918Z</time>
      </trkpt>
      <trkpt lat="47.552844" lon="8.044355">
        <ele>321.919671</ele>
        <time>2021-11-20T18:33:47.848Z</time>
      </trkpt>
      <trkpt lat="47.551627" lon="8.041127">
        <ele>317.074606</ele>
        <time>2021-11-20T18:34:14.600Z</time>
      </trkpt>
      <trkpt lat="47.551167" lon="8.039905">
        <ele>315.822476</ele>
        <time>2021-11-20T18:34:25.231Z</time>
      </trkpt>
      <trkpt lat="47.551001" lon="8.039426">
        <ele>315.340621</ele>
        <time>2021-11-20T18:34:29.587Z</time>
      </trkpt>
      <trkpt lat="47.550515" lon="8.038174">
        <ele>315.133805</ele>
        <time>2021-11-20T18:34:43.289Z</time>
      </trkpt>
      <trkpt lat="47.550424" lon="8.037956">
        <ele>315.231471</ele>
        <time>2021-11-20T18:34:46.260Z</time>
      </trkpt>
      <trkpt lat="47.550111" lon="8.037123">
        <ele>315.594735</ele>
        <time>2021-11-20T18:34:58.627Z</time>
      </trkpt>
      <trkpt lat="47.549832" lon="8.036349">
        <ele>315.935136</ele>
        <time>2021-11-20T18:35:09.910Z</time>
      </trkpt>
      <trkpt lat="47.549753" lon="8.036077">
        <ele>316.054536</ele>
        <time>2021-11-20T18:35:13.682Z</time>
      </trkpt>
      <trkpt lat="47.549699" lon="8.035900">
        <ele>316.132859</ele>
        <time>2021-11-20T18:35:16.015Z</time>
      </trkpt>
      <trkpt lat="47.549632" lon="8.035633">
        <ele>316.247720</ele>
        <time>2021-11-20T18:35:19.332Z</time>
      </trkpt>
      <trkpt lat="47.549554" lon="8.035288">
        <ele>316.394429</ele>
        <time>2021-11-20T18:35:23.624Z</time>
      </trkpt>
      <trkpt lat="47.549494" lon="8.034935">
        <ele>316.541211</ele>
        <time>2021-11-20T18:35:28.082Z</time>
      </trkpt>
      <trkpt lat="47.549442" lon="8.034584">
        <ele>316.686113</ele>
        <time>2021-11-20T18:35:31.486Z</time>
      </trkpt>
      <trkpt lat="47.549395" lon="8.034029">
        <ele>316.898522</ele>
        <time>2021-11-20T18:35:37.548Z</time>
      </trkpt>
      <trkpt lat="47.549394" lon="8.034003">
        <ele>316.897668</ele>
        <time>2021-11-20T18:35:39.024Z</time>
      </trkpt>
      <trkpt lat="47.549386" lon="8.033799">
        <ele>316.890966</ele>
        <time>2021-11-20T18:35:40.556Z</time>
      </trkpt>
      <trkpt lat="47.549374" lon="8.033423">
        <ele>316.878621</ele>
        <time>2021-11-20T18:35:45.071Z</time>
      </trkpt>
      <trkpt lat="47.549363" lon="8.032869">
        <ele>316.860443</ele>
        <time>2021-11-20T18:35:50.232Z</time>
      </trkpt>
      <trkpt lat="47.549368" lon="8.032544">
        <ele>316.849781</ele>
        <time>2021-11-20T18:35:52.829Z</time>
      </trkpt>
      <trkpt lat="47.549372" lon="8.031883">
        <ele>316.828101</ele>
        <time>2021-11-20T18:35:59.847Z</time>
      </trkpt>
      <trkpt lat="47.549378" lon="8.030790">
        <ele>316.962048</ele>
        <time>2021-11-20T18:36:10.508Z</time>
      </trkpt>
      <trkpt lat="47.549380" lon="8.030702">
        <ele>316.983852</ele>
        <time>2021-11-20T18:36:11.348Z</time>
      </trkpt>
      <trkpt lat="47.549418" lon="8.028906">
        <ele>317.428817</ele>
        <time>2021-11-20T18:36:32.055Z</time>
      </trkpt>
      <trkpt lat="47.549431" lon="8.028306">
        <ele>317.647215</ele>
        <time>2021-11-20T18:36:38.800Z</time>
      </trkpt>
      <trkpt lat="47.549445" lon="8.027599">
        <ele>317.938191</ele>
        <time>2021-11-20T18:36:46.977Z</time>
      </trkpt>
      <trkpt lat="47.549454" lon="8.027138">
        <ele>318.127921</ele>
        <time>2021-11-20T18:36:52.502Z</time>
      </trkpt>
      <trkpt lat="47.549436" lon="8.026046">
        <ele>318.571155</ele>
        <time>2021-11-20T18:37:05.787Z</time>
      </trkpt>
      <trkpt lat="47.549322" lon="8.024323">
        <ele>318.797745</ele>
        <time>2021-11-20T18:37:24.391Z</time>
      </trkpt>
      <trkpt lat="47.549268" lon="8.023385">
        <ele>318.903802</ele>
        <time>2021-11-20T18:37:33.838Z</time>
      </trkpt>
      <trkpt lat="47.549201" lon="8.022146">
        <ele>318.348503</ele>
        <time>2021-11-20T18:37:45.055Z</time>
      </trkpt>
      <trkpt lat="47.549191" lon="8.021436">
        <ele>318.031240</ele>
        <time>2021-11-20T18:37:51.022Z</time>
      </trkpt>
      <trkpt lat="47.549186" lon="8.021006">
        <ele>317.839109</ele>
        <time>2021-11-20T18:37:54.606Z</time>
      </trkpt>
      <trkpt lat="47.549208" lon="8.019997">
        <ele>316.973095</ele>
        <time>2021-11-20T18:38:02.840Z</time>
      </trkpt>
      <trkpt lat="47.549261" lon="8.017878">
        <ele>314.892037</ele>
        <time>2021-11-20T18:38:18.962Z</time>
      </trkpt>
      <trkpt lat="47.549256" lon="8.017769">
        <ele>314.797647</ele>
        <time>2021-11-20T18:38:19.826Z</time>
      </trkpt>
      <trkpt lat="47.549291" lon="8.017761">
        <ele>314.752315</ele>
        <time>2021-11-20T18:38:20.223Z</time>
      </trkpt>
      <trkpt lat="47.549324" lon="8.017738">
        <ele>314.705633</ele>
        <time>2021-11-20T18:38:20.613Z</time>
      </trkpt>
      <trkpt lat="47.549351" lon="8.017702">
        <ele>314.659137</ele>
        <time>2021-11-20T18:38:21.015Z</time>
      </trkpt>
      <trkpt lat="47.549370" lon="8.017656">
        <ele>314.612543</ele>
        <time>2021-11-20T18:38:21.474Z</time>
      </trkpt>
      <trkpt lat="47.549379" lon="8.017603">
        <ele>314.565325</ele>
        <time>2021-11-20T18:38:21.880Z</time>
      </trkpt>
      <trkpt lat="47.549377" lon="8.017547">
        <ele>314.516875</ele>
        <time>2021-11-20T18:38:22.438Z</time>
      </trkpt>
      <trkpt lat="47.549310" lon="8.017418">
        <ele>314.376245</ele>
        <time>2021-11-20T18:38:23.784Z</time>
      </trkpt>
      <trkpt lat="47.549274" lon="8.017401">
        <ele>314.327879</ele>
        <time>2021-11-20T18:38:24.266Z</time>
      </trkpt>
      <trkpt lat="47.549281" lon="8.017304">
        <ele>314.243596</ele>
        <time>2021-11-20T18:38:24.981Z</time>
      </trkpt>
      <trkpt lat="47.549431" lon="8.015998">
        <ele>313.099028</ele>
        <time>2021-11-20T18:38:35.726Z</time>
      </trkpt>
      <trkpt lat="47.549589" lon="8.015316">
        <ele>312.452658</ele>
        <time>2021-11-20T18:38:41.570Z</time>
      </trkpt>
      <trkpt lat="47.549795" lon="8.014667">
        <ele>311.784358</ele>
        <time>2021-11-20T18:38:47.385Z</time>
      </trkpt>
      <trkpt lat="47.549871" lon="8.014427">
        <ele>311.537326</ele>
        <time>2021-11-20T18:38:49.520Z</time>
      </trkpt>
      <trkpt lat="47.550001" lon="8.014034">
        <ele>311.129499</ele>
        <time>2021-11-20T18:38:52.909Z</time>
      </trkpt>
      <trkpt lat="47.550565" lon="8.012461">
        <ele>309.781062</ele>
        <time>2021-11-20T18:39:06.516Z</time>
      </trkpt>
      <trkpt lat="47.550764" lon="8.011985">
        <ele>309.457174</ele>
        <time>2021-11-20T18:39:11.015Z</time>
      </trkpt>
      <trkpt lat="47.551187" lon="8.011080">
        <ele>308.820397</ele>
        <time>2021-11-20T18:39:21.133Z</time>
      </trkpt>
      <trkpt lat="47.551275" lon="8.010934">
        <ele>308.794030</ele>
        <time>2021-11-20T18:39:22.943Z</time>
      </trkpt>
      <trkpt lat="47.551902" lon="8.009884">
        <ele>309.660711</ele>
        <time>2021-11-20T18:39:39.898Z</time>
      </trkpt>
      <trkpt lat="47.552604" lon="8.008677">
        <ele>310.412244</ele>
        <time>2021-11-20T18:40:02.378Z</time>
      </trkpt>
      <trkpt lat="47.552640" lon="8.008615">
        <ele>310.415420</ele>
        <time>2021-11-20T18:40:03.964Z</time>
      </trkpt>
      <trkpt lat="47.552935" lon="8.007851">
        <ele>310.449605</ele>
        <time>2021-11-20T18:40:13.562Z</time>
      </trkpt>
      <trkpt lat="47.553173" lon="8.006642">
        <ele>310.498515</ele>
        <time>2021-11-20T18:40:24.365Z</time>
      </trkpt>
      <trkpt lat="47.553211" lon="8.006270">
        <ele>310.347905</ele>
        <time>2021-11-20T18:40:27.578Z</time>
      </trkpt>
      <trkpt lat="47.553220" lon="8.006182">
        <ele>310.307533</ele>
        <time>2021-11-20T18:40:28.169Z</time>
      </trkpt>
      <trkpt lat="47.553251" lon="8.005657">
        <ele>310.068484</ele>
        <time>2021-11-20T18:40:32.418Z</time>
      </trkpt>
      <trkpt lat="47.553256" lon="8.004837">
        <ele>309.696518</ele>
        <time>2021-11-20T18:40:39.342Z</time>
      </trkpt>
      <trkpt lat="47.553266" lon="8.003502">
        <ele>309.502374</ele>
        <time>2021-11-20T18:40:51.929Z</time>
      </trkpt>
      <trkpt lat="47.553270" lon="8.002465">
        <ele>309.998167</ele>
        <time>2021-11-20T18:41:04.600Z</time>
      </trkpt>
      <trkpt lat="47.553271" lon="8.002109">
        <ele>310.168370</ele>
        <time>2021-11-20T18:41:09.579Z</time>
      </trkpt>
      <trkpt lat="47.553273" lon="8.001687">
        <ele>310.370131</ele>
        <time>2021-11-20T18:41:15.259Z</time>
      </trkpt>
      <trkpt lat="47.553275" lon="7.999860">
        <ele>310.721575</ele>
        <time>2021-11-20T18:41:37.445Z</time>
      </trkpt>
      <trkpt lat="47.553278" lon="7.999508">
        <ele>310.760335</ele>
        <time>2021-11-20T18:41:40.992Z</time>
      </trkpt>
      <trkpt lat="47.553287" lon="7.998380">
        <ele>310.589215</ele>
        <time>2021-11-20T18:41:50.759Z</time>
      </trkpt>
      <trkpt lat="47.553287" lon="7.997190">
        <ele>309.216344</ele>
        <time>2021-11-20T18:42:00.058Z</time>
      </trkpt>
      <trkpt lat="47.553279" lon="7.996528">
        <ele>308.452489</ele>
        <time>2021-11-20T18:42:05.074Z</time>
      </trkpt>
      <trkpt lat="47.553268" lon="7.996252">
        <ele>308.133521</ele>
        <time>2021-11-20T18:42:07.146Z</time>
      </trkpt>
      <trkpt lat="47.553246" lon="7.995617">
        <ele>307.414459</ele>
        <time>2021-11-20T18:42:11.328Z</time>
      </trkpt>
      <trkpt lat="47.553164" lon="7.993925">
        <ele>305.531193</ele>
        <time>2021-11-20T18:42:24.847Z</time>
      </trkpt>
      <trkpt lat="47.553156" lon="7.993696">
        <ele>305.276621</ele>
        <time>2021-11-20T18:42:26.248Z</time>
      </trkpt>
      <trkpt lat="47.553137" lon="7.993190">
        <ele>304.804662</ele>
        <time>2021-11-20T18:42:30.861Z</time>
      </trkpt>
      <trkpt lat="47.553130" lon="7.993014">
        <ele>304.767998</ele>
        <time>2021-11-20T18:42:35.046Z</time>
      </trkpt>
      <trkpt lat="47.553107" lon="7.992226">
        <ele>304.603972</ele>
        <time>2021-11-20T18:42:41.761Z</time>
      </trkpt>
      <trkpt lat="47.553091" lon="7.991915">
        <ele>304.539108</ele>
        <time>2021-11-20T18:42:45.993Z</time>
      </trkpt>
      <trkpt lat="47.553050" lon="7.990744">
        <ele>304.295259</ele>
        <time>2021-11-20T18:42:58.816Z</time>
      </trkpt>
      <trkpt lat="47.553126" lon="7.990240">
        <ele>303.461534</ele>
        <time>2021-11-20T18:43:02.728Z</time>
      </trkpt>
      <trkpt lat="47.553146" lon="7.990113">
        <ele>303.198440</ele>
        <time>2021-11-20T18:43:03.657Z</time>
      </trkpt>
      <trkpt lat="47.553163" lon="7.990004">
        <ele>302.972748</ele>
        <time>2021-11-20T18:43:04.442Z</time>
      </trkpt>
      <trkpt lat="47.553214" lon="7.989758">
        <ele>302.453580</ele>
        <time>2021-11-20T18:43:06.221Z</time>
      </trkpt>
      <trkpt lat="47.553253" lon="7.989578">
        <ele>302.072193</ele>
        <time>2021-11-20T18:43:07.510Z</time>
      </trkpt>
      <trkpt lat="47.553352" lon="7.989142">
        <ele>301.144160</ele>
        <time>2021-11-20T18:43:10.606Z</time>
      </trkpt>
      <trkpt lat="47.553424" lon="7.988762">
        <ele>300.347912</ele>
        <time>2021-11-20T18:43:13.252Z</time>
      </trkpt>
      <trkpt lat="47.553410" lon="7.988607">
        <ele>300.032427</ele>
        <time>2021-11-20T18:43:14.283Z</time>
      </trkpt>
      <trkpt lat="47.553343" lon="7.988401">
        <ele>299.571103</ele>
        <time>2021-11-20T18:43:15.805Z</time>
      </trkpt>
      <trkpt lat="47.553232" lon="7.988247">
        <ele>299.116558</ele>
        <time>2021-11-20T18:43:17.276Z</time>
      </trkpt>
      <trkpt lat="47.552867" lon="7.987810">
        <ele>297.663857</ele>
        <time>2021-11-20T18:43:21.845Z</time>
      </trkpt>
      <trkpt lat="47.552713" lon="7.987638">
        <ele>297.062996</ele>
        <time>2021-11-20T18:43:23.683Z</time>
      </trkpt>
      <trkpt lat="47.552504" lon="7.987369">
        <ele>296.200444</ele>
        <time>2021-11-20T18:43:26.393Z</time>
      </trkpt>
      <trkpt lat="47.552436" lon="7.987273">
        <ele>295.907803</ele>
        <time>2021-11-20T18:43:27.337Z</time>
      </trkpt>
      <trkpt lat="47.552224" lon="7.986975">
        <ele>294.997326</ele>
        <time>2021-11-20T18:43:30.321Z</time>
      </trkpt>
      <trkpt lat="47.552152" lon="7.986883">
        <ele>294.701100</ele>
        <time>2021-11-20T18:43:31.302Z</time>
      </trkpt>
      <trkpt lat="47.551971" lon="7.986555">
        <ele>293.810174</ele>
        <time>2021-11-20T18:43:34.300Z</time>
      </trkpt>
      <trkpt lat="47.551917" lon="7.986288">
        <ele>293.313246</ele>
        <time>2021-11-20T18:43:36.381Z</time>
      </trkpt>
      <trkpt lat="47.551915" lon="7.986209">
        <ele>293.368776</ele>
        <time>2021-11-20T18:43:36.941Z</time>
      </trkpt>
      <trkpt lat="47.551898" lon="7.985654">
        <ele>293.759014</ele>
        <time>2021-11-20T18:43:42.448Z</time>
      </trkpt>
      <trkpt lat="47.551939" lon="7.985151">
        <ele>294.114892</ele>
        <time>2021-11-20T18:43:48.604Z</time>
      </trkpt>
      <trkpt lat="47.551934" lon="7.984260">
        <ele>294.740759</ele>
        <time>2021-11-20T18:44:02.186Z</time>
      </trkpt>
      <trkpt lat="47.551993" lon="7.984014">
        <ele>294.924137</ele>
        <time>2021-11-20T18:44:05.791Z</time>
      </trkpt>
      <trkpt lat="47.552007" lon="7.983931">
        <ele>294.984230</ele>
        <time>2021-11-20T18:44:07.365Z</time>
      </trkpt>
      <trkpt lat="47.552005" lon="7.983849">
        <ele>295.041865</ele>
        <time>2021-11-20T18:44:09.447Z</time>
      </trkpt>
      <trkpt lat="47.551911" lon="7.983632">
        <ele>295.319081</ele>
        <time>2021-11-20T18:44:13.640Z</time>
      </trkpt>
      <trkpt lat="47.551892" lon="7.983447">
        <ele>295.660435</ele>
        <time>2021-11-20T18:44:16.984Z</time>
      </trkpt>
      <trkpt lat="47.551861" lon="7.981113">
        <ele>299.918847</ele>
        <time>2021-11-20T18:45:00.274Z</time>
      </trkpt>
      <trkpt lat="47.551865" lon="7.980584">
        <ele>300.101448</ele>
        <time>2021-11-20T18:45:06.914Z</time>
      </trkpt>
      <trkpt lat="47.551873" lon="7.980135">
        <ele>300.175137</ele>
        <time>2021-11-20T18:45:11.670Z</time>
      </trkpt>
      <trkpt lat="47.551933" lon="7.979363">
        <ele>300.302629</ele>
        <time>2021-11-20T18:45:20.029Z</time>
      </trkpt>
      <trkpt lat="47.551923" lon="7.979308">
        <ele>300.311974</ele>
        <time>2021-11-20T18:45:20.397Z</time>
      </trkpt>
      <trkpt lat="47.551901" lon="7.979190">
        <ele>300.332059</ele>
        <time>2021-11-20T18:45:21.368Z</time>
      </trkpt>
      <trkpt lat="47.551829" lon="7.976305">
        <ele>299.904593</ele>
        <time>2021-11-20T18:45:46.417Z</time>
      </trkpt>
      <trkpt lat="47.551793" lon="7.974325">
        <ele>299.900469</ele>
        <time>2021-11-20T18:46:08.530Z</time>
      </trkpt>
      <trkpt lat="47.551755" lon="7.972603">
        <ele>299.865264</ele>
        <time>2021-11-20T18:46:25.828Z</time>
      </trkpt>
      <trkpt lat="47.551725" lon="7.970823">
        <ele>299.246617</ele>
        <time>2021-11-20T18:46:41.057Z</time>
      </trkpt>
      <trkpt lat="47.551734" lon="7.970034">
        <ele>299.064094</ele>
        <time>2021-11-20T18:46:48.017Z</time>
      </trkpt>
      <trkpt lat="47.551750" lon="7.968659">
        <ele>298.920258</ele>
        <time>2021-11-20T18:47:01.207Z</time>
      </trkpt>
      <trkpt lat="47.551825" lon="7.968445">
        <ele>298.895038</ele>
        <time>2021-11-20T18:47:03.459Z</time>
      </trkpt>
      <trkpt lat="47.551847" lon="7.968315">
        <ele>298.881020</ele>
        <time>2021-11-20T18:47:04.929Z</time>
      </trkpt>
      <trkpt lat="47.551839" lon="7.968208">
        <ele>298.869760</ele>
        <time>2021-11-20T18:47:06.132Z</time>
      </trkpt>
      <trkpt lat="47.551767" lon="7.967910">
        <ele>298.836654</ele>
        <time>2021-11-20T18:47:09.365Z</time>
      </trkpt>
      <trkpt lat="47.551902" lon="7.964650">
        <ele>299.490832</ele>
        <time>2021-11-20T18:47:45.766Z</time>
      </trkpt>
      <trkpt lat="47.551918" lon="7.963725">
        <ele>299.455296</ele>
        <time>2021-11-20T18:47:55.164Z</time>
      </trkpt>
      <trkpt lat="47.551906" lon="7.962453">
        <ele>299.400434</ele>
        <time>2021-11-20T18:48:07.093Z</time>
      </trkpt>
      <trkpt lat="47.551859" lon="7.961133">
        <ele>298.964381</ele>
        <time>2021-11-20T18:48:18.677Z</time>
      </trkpt>
      <trkpt lat="47.551894" lon="7.960729">
        <ele>298.830014</ele>
        <time>2021-11-20T18:48:22.429Z</time>
      </trkpt>
      <trkpt lat="47.551882" lon="7.960631">
        <ele>298.797158</ele>
        <time>2021-11-20T18:48:23.198Z</time>
      </trkpt>
      <trkpt lat="47.551865" lon="7.960528">
        <ele>298.762178</ele>
        <time>2021-11-20T18:48:24.144Z</time>
      </trkpt>
      <trkpt lat="47.551677" lon="7.960100">
        <ele>298.593719</ele>
        <time>2021-11-20T18:48:28.668Z</time>
      </trkpt>
      <trkpt lat="47.551300" lon="7.958844">
        <ele>298.433314</ele>
        <time>2021-11-20T18:48:41.647Z</time>
      </trkpt>
      <trkpt lat="47.550869" lon="7.957700">
        <ele>298.327685</ele>
        <time>2021-11-20T18:48:54.924Z</time>
      </trkpt>
      <trkpt lat="47.550745" lon="7.957569">
        <ele>298.317227</ele>
        <time>2021-11-20T18:48:57.278Z</time>
      </trkpt>
      <trkpt lat="47.550735" lon="7.957541">
        <ele>298.319934</ele>
        <time>2021-11-20T18:48:57.706Z</time>
      </trkpt>
      <trkpt lat="47.550613" lon="7.957254">
        <ele>298.348918</ele>
        <time>2021-11-20T18:49:00.954Z</time>
      </trkpt>
      <trkpt lat="47.550549" lon="7.957126">
        <ele>298.362531</ele>
        <time>2021-11-20T18:49:02.502Z</time>
      </trkpt>
      <trkpt lat="47.550549" lon="7.957126">
        <ele>298.362531</ele>
        <time>2021-11-20T18:49:02.560Z</time>
      </trkpt>
      <trkpt lat="47.550445" lon="7.956918">
        <ele>298.384651</ele>
        <time>2021-11-20T18:49:05.110Z</time>
      </trkpt>
      <trkpt lat="47.550380" lon="7.956806">
        <ele>298.397274</ele>
        <time>2021-11-20T18:49:06.595Z</time>
      </trkpt>
      <trkpt lat="47.550205" lon="7.956552">
        <ele>298.428290</ele>
        <time>2021-11-20T18:49:10.315Z</time>
      </trkpt>
      <trkpt lat="47.549444" lon="7.955496">
        <ele>298.564710</ele>
        <time>2021-11-20T18:49:26.706Z</time>
      </trkpt>
      <trkpt lat="47.549157" lon="7.955099">
        <ele>298.625765</ele>
        <time>2021-11-20T18:49:32.473Z</time>
      </trkpt>
      <trkpt lat="47.549042" lon="7.954942">
        <ele>298.650081</ele>
        <time>2021-11-20T18:49:34.825Z</time>
      </trkpt>
      <trkpt lat="47.548833" lon="7.954652">
        <ele>298.694607</ele>
        <time>2021-11-20T18:49:39.181Z</time>
      </trkpt>
      <trkpt lat="47.548542" lon="7.954269">
        <ele>298.755133</ele>
        <time>2021-11-20T18:49:45.199Z</time>
      </trkpt>
      <trkpt lat="47.548342" lon="7.954009">
        <ele>298.796507</ele>
        <time>2021-11-20T18:49:49.381Z</time>
      </trkpt>
      <trkpt lat="47.548251" lon="7.953895">
        <ele>298.815037</ele>
        <time>2021-11-20T18:49:51.309Z</time>
      </trkpt>
      <trkpt lat="47.548115" lon="7.953729">
        <ele>298.875512</ele>
        <time>2021-11-20T18:49:54.178Z</time>
      </trkpt>
      <trkpt lat="47.547994" lon="7.953584">
        <ele>298.936456</ele>
        <time>2021-11-20T18:49:56.740Z</time>
      </trkpt>
      <trkpt lat="47.547871" lon="7.953437">
        <ele>298.998342</ele>
        <time>2021-11-20T18:49:59.331Z</time>
      </trkpt>
      <trkpt lat="47.547797" lon="7.953355">
        <ele>299.034530</ele>
        <time>2021-11-20T18:50:00.834Z</time>
      </trkpt>
      <trkpt lat="47.547624" lon="7.953160">
        <ele>299.119655</ele>
        <time>2021-11-20T18:50:04.327Z</time>
      </trkpt>
      <trkpt lat="47.547550" lon="7.953078">
        <ele>299.155843</ele>
        <time>2021-11-20T18:50:05.852Z</time>
      </trkpt>
      <trkpt lat="47.547458" lon="7.952975">
        <ele>299.201001</ele>
        <time>2021-11-20T18:50:07.865Z</time>
      </trkpt>
      <trkpt lat="47.547400" lon="7.952910">
        <ele>299.229480</ele>
        <time>2021-11-20T18:50:09.146Z</time>
      </trkpt>
      <trkpt lat="47.547090" lon="7.952543">
        <ele>299.384876</ele>
        <time>2021-11-20T18:50:15.595Z</time>
      </trkpt>
      <trkpt lat="47.546935" lon="7.952372">
        <ele>299.460555</ele>
        <time>2021-11-20T18:50:18.487Z</time>
      </trkpt>
      <trkpt lat="47.546776" lon="7.952185">
        <ele>299.528783</ele>
        <time>2021-11-20T18:50:21.811Z</time>
      </trkpt>
      <trkpt lat="47.546695" lon="7.952091">
        <ele>299.538887</ele>
        <time>2021-11-20T18:50:23.619Z</time>
      </trkpt>
      <trkpt lat="47.546634" lon="7.952024">
        <ele>299.546343</ele>
        <time>2021-11-20T18:50:25.061Z</time>
      </trkpt>
      <trkpt lat="47.546421" lon="7.951793">
        <ele>299.572264</ele>
        <time>2021-11-20T18:50:29.472Z</time>
      </trkpt>
      <trkpt lat="47.546231" lon="7.951558">
        <ele>299.596568</ele>
        <time>2021-11-20T18:50:34.026Z</time>
      </trkpt>
      <trkpt lat="47.546212" lon="7.951535">
        <ele>299.598977</ele>
        <time>2021-11-20T18:50:34.271Z</time>
      </trkpt>
      <trkpt lat="47.546135" lon="7.951406">
        <ele>299.610391</ele>
        <time>2021-11-20T18:50:36.080Z</time>
      </trkpt>
      <trkpt lat="47.545886" lon="7.951110">
        <ele>299.641740</ele>
        <time>2021-11-20T18:50:40.900Z</time>
      </trkpt>
      <trkpt lat="47.545824" lon="7.951061">
        <ele>299.648640</ele>
        <time>2021-11-20T18:50:42.042Z</time>
      </trkpt>
      <trkpt lat="47.545759" lon="7.950982">
        <ele>299.656895</ele>
        <time>2021-11-20T18:50:43.448Z</time>
      </trkpt>
      <trkpt lat="47.545727" lon="7.950947">
        <ele>299.660801</ele>
        <time>2021-11-20T18:50:44.249Z</time>
      </trkpt>
      <trkpt lat="47.545625" lon="7.950829">
        <ele>299.673509</ele>
        <time>2021-11-20T18:50:45.804Z</time>
      </trkpt>
      <trkpt lat="47.545567" lon="7.950765">
        <ele>299.680611</ele>
        <time>2021-11-20T18:50:46.837Z</time>
      </trkpt>
      <trkpt lat="47.545494" lon="7.950684">
        <ele>299.689566</ele>
        <time>2021-11-20T18:50:48.205Z</time>
      </trkpt>
      <trkpt lat="47.545434" lon="7.950668">
        <ele>299.695553</ele>
        <time>2021-11-20T18:50:49.290Z</time>
      </trkpt>
      <trkpt lat="47.545166" lon="7.950366">
        <ele>299.584636</ele>
        <time>2021-11-20T18:50:53.631Z</time>
      </trkpt>
      <trkpt lat="47.544901" lon="7.950044">
        <ele>299.438749</ele>
        <time>2021-11-20T18:50:57.764Z</time>
      </trkpt>
      <trkpt lat="47.544521" lon="7.949558">
        <ele>299.225061</ele>
        <time>2021-11-20T18:51:03.963Z</time>
      </trkpt>
      <trkpt lat="47.544239" lon="7.949202">
        <ele>299.067355</ele>
        <time>2021-11-20T18:51:08.870Z</time>
      </trkpt>
      <trkpt lat="47.543864" lon="7.948694">
        <ele>299.271110</ele>
        <time>2021-11-20T18:51:16.817Z</time>
      </trkpt>
      <trkpt lat="47.543760" lon="7.948548">
        <ele>299.511635</ele>
        <time>2021-11-20T18:51:19.056Z</time>
      </trkpt>
      <trkpt lat="47.543725" lon="7.948497">
        <ele>299.594050</ele>
        <time>2021-11-20T18:51:19.893Z</time>
      </trkpt>
      <trkpt lat="47.543579" lon="7.948287">
        <ele>299.935664</ele>
        <time>2021-11-20T18:51:24.773Z</time>
      </trkpt>
      <trkpt lat="47.543532" lon="7.948214">
        <ele>300.049980</ele>
        <time>2021-11-20T18:51:25.899Z</time>
      </trkpt>
      <trkpt lat="47.543435" lon="7.948000">
        <ele>300.342081</ele>
        <time>2021-11-20T18:51:28.974Z</time>
      </trkpt>
      <trkpt lat="47.543407" lon="7.947938">
        <ele>300.426613</ele>
        <time>2021-11-20T18:51:30.826Z</time>
      </trkpt>
      <trkpt lat="47.543280" lon="7.947656">
        <ele>300.810764</ele>
        <time>2021-11-20T18:51:35.326Z</time>
      </trkpt>
      <trkpt lat="47.543142" lon="7.947250">
        <ele>301.325875</ele>
        <time>2021-11-20T18:51:42.770Z</time>
      </trkpt>
      <trkpt lat="47.543086" lon="7.947052">
        <ele>301.569146</ele>
        <time>2021-11-20T18:51:46.210Z</time>
      </trkpt>
      <trkpt lat="47.543056" lon="7.946935">
        <ele>301.710973</ele>
        <time>2021-11-20T18:51:49.043Z</time>
      </trkpt>
      <trkpt lat="47.543045" lon="7.946881">
        <ele>301.774891</ele>
        <time>2021-11-20T18:51:50.197Z</time>
      </trkpt>
      <trkpt lat="47.542982" lon="7.946547">
        <ele>302.262681</ele>
        <time>2021-11-20T18:51:55.608Z</time>
      </trkpt>
      <trkpt lat="47.542974" lon="7.946495">
        <ele>302.350091</ele>
        <time>2021-11-20T18:51:57.245Z</time>
      </trkpt>
      <trkpt lat="47.542960" lon="7.946400">
        <ele>302.509455</ele>
        <time>2021-11-20T18:51:59.304Z</time>
      </trkpt>
      <trkpt lat="47.542916" lon="7.945730">
        <ele>303.612718</ele>
        <time>2021-11-20T18:52:11.968Z</time>
      </trkpt>
      <trkpt lat="47.542913" lon="7.945267">
        <ele>304.371575</ele>
        <time>2021-11-20T18:52:20.464Z</time>
      </trkpt>
      <trkpt lat="47.543007" lon="7.943867">
        <ele>306.344465</ele>
        <time>2021-11-20T18:52:41.631Z</time>
      </trkpt>
      <trkpt lat="47.543161" lon="7.942213">
        <ele>306.514737</ele>
        <time>2021-11-20T18:52:59.997Z</time>
      </trkpt>
      <trkpt lat="47.543435" lon="7.940670">
        <ele>305.757344</ele>
        <time>2021-11-20T18:53:12.938Z</time>
      </trkpt>
      <trkpt lat="47.543612" lon="7.940108">
        <ele>305.122386</ele>
        <time>2021-11-20T18:53:17.700Z</time>
      </trkpt>
      <trkpt lat="47.543826" lon="7.939433">
        <ele>304.358853</ele>
        <time>2021-11-20T18:53:23.342Z</time>
      </trkpt>
      <trkpt lat="47.544472" lon="7.937932">
        <ele>302.303440</ele>
        <time>2021-11-20T18:53:36.674Z</time>
      </trkpt>
      <trkpt lat="47.544705" lon="7.937395">
        <ele>301.535409</ele>
        <time>2021-11-20T18:53:41.519Z</time>
      </trkpt>
      <trkpt lat="47.544903" lon="7.936917">
        <ele>300.860677</ele>
        <time>2021-11-20T18:53:45.784Z</time>
      </trkpt>
      <trkpt lat="47.545074" lon="7.936484">
        <ele>300.357004</ele>
        <time>2021-11-20T18:53:49.631Z</time>
      </trkpt>
      <trkpt lat="47.545457" lon="7.935110">
        <ele>299.011732</ele>
        <time>2021-11-20T18:54:01.016Z</time>
      </trkpt>
      <trkpt lat="47.545598" lon="7.934145">
        <ele>298.306582</ele>
        <time>2021-11-20T18:54:09.214Z</time>
      </trkpt>
      <trkpt lat="47.545674" lon="7.933625">
        <ele>298.519718</ele>
        <time>2021-11-20T18:54:14.197Z</time>
      </trkpt>
      <trkpt lat="47.545702" lon="7.933290">
        <ele>298.654942</ele>
        <time>2021-11-20T18:54:17.775Z</time>
      </trkpt>
      <trkpt lat="47.545724" lon="7.932758">
        <ele>298.868457</ele>
        <time>2021-11-20T18:54:24.041Z</time>
      </trkpt>
      <trkpt lat="47.545721" lon="7.931992">
        <ele>299.175316</ele>
        <time>2021-11-20T18:54:34.034Z</time>
      </trkpt>
      <trkpt lat="47.545696" lon="7.931497">
        <ele>299.499417</ele>
        <time>2021-11-20T18:54:41.151Z</time>
      </trkpt>
      <trkpt lat="47.545661" lon="7.930955">
        <ele>300.189054</ele>
        <time>2021-11-20T18:54:49.846Z</time>
      </trkpt>
      <trkpt lat="47.545563" lon="7.929641">
        <ele>301.863508</ele>
        <time>2021-11-20T18:55:12.186Z</time>
      </trkpt>
      <trkpt lat="47.545475" lon="7.928419">
        <ele>302.227997</ele>
        <time>2021-11-20T18:55:28.489Z</time>
      </trkpt>
      <trkpt lat="47.545421" lon="7.927686">
        <ele>301.634294</ele>
        <time>2021-11-20T18:55:34.592Z</time>
      </trkpt>
      <trkpt lat="47.545406" lon="7.927306">
        <ele>301.327802</ele>
        <time>2021-11-20T18:55:37.496Z</time>
      </trkpt>
      <trkpt lat="47.545407" lon="7.927001">
        <ele>301.082218</ele>
        <time>2021-11-20T18:55:39.783Z</time>
      </trkpt>
      <trkpt lat="47.545409" lon="7.926773">
        <ele>300.898621</ele>
        <time>2021-11-20T18:55:41.412Z</time>
      </trkpt>
      <trkpt lat="47.545417" lon="7.925848">
        <ele>299.309616</ele>
        <time>2021-11-20T18:55:47.747Z</time>
      </trkpt>
      <trkpt lat="47.545446" lon="7.925350">
        <ele>298.040470</ele>
        <time>2021-11-20T18:55:51.039Z</time>
      </trkpt>
      <trkpt lat="47.545466" lon="7.924880">
        <ele>296.844745</ele>
        <time>2021-11-20T18:55:54.092Z</time>
      </trkpt>
      <trkpt lat="47.545481" lon="7.924396">
        <ele>295.614548</ele>
        <time>2021-11-20T18:55:57.175Z</time>
      </trkpt>
      <trkpt lat="47.545521" lon="7.923709">
        <ele>293.863742</ele>
        <time>2021-11-20T18:56:01.701Z</time>
      </trkpt>
      <trkpt lat="47.545536" lon="7.923407">
        <ele>293.433219</ele>
        <time>2021-11-20T18:56:04.090Z</time>
      </trkpt>
      <trkpt lat="47.545553" lon="7.923142">
        <ele>293.091059</ele>
        <time>2021-11-20T18:56:05.811Z</time>
      </trkpt>
      <trkpt lat="47.545587" lon="7.922895">
        <ele>292.767037</ele>
        <time>2021-11-20T18:56:08.212Z</time>
      </trkpt>
      <trkpt lat="47.545641" lon="7.922610">
        <ele>292.386547</ele>
        <time>2021-11-20T18:56:10.211Z</time>
      </trkpt>
      <trkpt lat="47.545690" lon="7.922369">
        <ele>292.063025</ele>
        <time>2021-11-20T18:56:12.902Z</time>
      </trkpt>
      <trkpt lat="47.545699" lon="7.922325">
        <ele>292.003929</ele>
        <time>2021-11-20T18:56:13.163Z</time>
      </trkpt>
      <trkpt lat="47.545714" lon="7.922249">
        <ele>291.902150</ele>
        <time>2021-11-20T18:56:13.753Z</time>
      </trkpt>
      <trkpt lat="47.545778" lon="7.921947">
        <ele>291.495286</ele>
        <time>2021-11-20T18:56:16.909Z</time>
      </trkpt>
      <trkpt lat="47.545810" lon="7.921755">
        <ele>291.241084</ele>
        <time>2021-11-20T18:56:18.267Z</time>
      </trkpt>
      <trkpt lat="47.545881" lon="7.921096">
        <ele>290.383304</ele>
        <time>2021-11-20T18:56:23.615Z</time>
      </trkpt>
      <trkpt lat="47.545913" lon="7.920765">
        <ele>290.265664</ele>
        <time>2021-11-20T18:56:26.482Z</time>
      </trkpt>
      <trkpt lat="47.545973" lon="7.920313">
        <ele>290.133853</ele>
        <time>2021-11-20T18:56:31.630Z</time>
      </trkpt>
      <trkpt lat="47.546128" lon="7.919617">
        <ele>289.924144</ele>
        <time>2021-11-20T18:56:38.092Z</time>
      </trkpt>
      <trkpt lat="47.546262" lon="7.919081">
        <ele>289.760594</ele>
        <time>2021-11-20T18:56:44.091Z</time>
      </trkpt>
      <trkpt lat="47.546821" lon="7.916867">
        <ele>288.977885</ele>
        <time>2021-11-20T18:57:04.844Z</time>
      </trkpt>
      <trkpt lat="47.547032" lon="7.916218">
        <ele>288.728652</ele>
        <time>2021-11-20T18:57:11.335Z</time>
      </trkpt>
      <trkpt lat="47.547091" lon="7.916039">
        <ele>288.671797</ele>
        <time>2021-11-20T18:57:13.152Z</time>
      </trkpt>
      <trkpt lat="47.547113" lon="7.915971">
        <ele>288.674542</ele>
        <time>2021-11-20T18:57:13.751Z</time>
      </trkpt>
      <trkpt lat="47.547423" lon="7.915080">
        <ele>288.711042</ele>
        <time>2021-11-20T18:57:23.395Z</time>
      </trkpt>
      <trkpt lat="47.547994" lon="7.913433">
        <ele>288.955815</ele>
        <time>2021-11-20T18:57:43.115Z</time>
      </trkpt>
      <trkpt lat="47.548027" lon="7.913334">
        <ele>289.025954</ele>
        <time>2021-11-20T18:57:44.474Z</time>
      </trkpt>
      <trkpt lat="47.548412" lon="7.912168">
        <ele>289.850503</ele>
        <time>2021-11-20T18:58:00.877Z</time>
      </trkpt>
      <trkpt lat="47.549012" lon="7.910340">
        <ele>291.347075</ele>
        <time>2021-11-20T18:58:27.792Z</time>
      </trkpt>
      <trkpt lat="47.549102" lon="7.910058">
        <ele>291.604952</ele>
        <time>2021-11-20T18:58:31.911Z</time>
      </trkpt>
      <trkpt lat="47.549195" lon="7.909756">
        <ele>291.879372</ele>
        <time>2021-11-20T18:58:36.233Z</time>
      </trkpt>
      <trkpt lat="47.549354" lon="7.909228">
        <ele>292.357340</ele>
        <time>2021-11-20T18:58:43.731Z</time>
      </trkpt>
      <trkpt lat="47.549520" lon="7.908678">
        <ele>292.992142</ele>
        <time>2021-11-20T18:58:51.513Z</time>
      </trkpt>
      <trkpt lat="47.549539" lon="7.908625">
        <ele>293.077085</ele>
        <time>2021-11-20T18:58:52.246Z</time>
      </trkpt>
      <trkpt lat="47.550497" lon="7.905558">
        <ele>298.678860</ele>
        <time>2021-11-20T18:59:47.174Z</time>
      </trkpt>
      <trkpt lat="47.550283" lon="7.905413">
        <ele>299.455693</ele>
        <time>2021-11-20T18:59:55.340Z</time>
      </trkpt>
      <trkpt lat="47.550067" lon="7.905245">
        <ele>300.261038</ele>
        <time>2021-11-20T19:00:04.026Z</time>
      </trkpt>
      <trkpt lat="47.549867" lon="7.905155">
        <ele>300.951065</ele>
        <time>2021-11-20T19:00:11.655Z</time>
      </trkpt>
      <trkpt lat="47.549868" lon="7.905010">
        <ele>301.274165</ele>
        <time>2021-11-20T19:00:15.060Z</time>
      </trkpt>
      <trkpt lat="47.550025" lon="7.904774">
        <ele>302.012499</ele>
        <time>2021-11-20T19:00:23.211Z</time>
      </trkpt>
      <trkpt lat="47.550302" lon="7.904164">
        <ele>303.816887</ele>
        <time>2021-11-20T19:00:41.510Z</time>
      </trkpt>
      <trkpt lat="47.550498" lon="7.903445">
        <ele>305.769458</ele>
        <time>2021-11-20T19:01:01.082Z</time>
      </trkpt>
      <trkpt lat="47.550688" lon="7.902451">
        <ele>308.370831</ele>
        <time>2021-11-20T19:01:23.630Z</time>
      </trkpt>
      <trkpt lat="47.550757" lon="7.901591">
        <ele>310.706293</ele>
        <time>2021-11-20T19:01:43.427Z</time>
      </trkpt>
      <trkpt lat="47.550769" lon="7.901362">
        <ele>311.345600</ele>
        <time>2021-11-20T19:01:49.335Z</time>
      </trkpt>
      <trkpt lat="47.550801" lon="7.900244">
        <ele>314.460190</ele>
        <time>2021-11-20T19:02:13.732Z</time>
      </trkpt>
      <trkpt lat="47.550819" lon="7.898109">
        <ele>319.754532</ele>
        <time>2021-11-20T19:03:00.772Z</time>
      </trkpt>
      <trkpt lat="47.550648" lon="7.896481">
        <ele>323.018834</ele>
        <time>2021-11-20T19:03:28.427Z</time>
      </trkpt>
      <trkpt lat="47.550639" lon="7.896345">
        <ele>323.137284</ele>
        <time>2021-11-20T19:03:30.803Z</time>
      </trkpt>
      <trkpt lat="47.550660" lon="7.896255">
        <ele>323.219827</ele>
        <time>2021-11-20T19:03:31.603Z</time>
      </trkpt>
      <trkpt lat="47.550838" lon="7.895509">
        <ele>323.905679</ele>
        <time>2021-11-20T19:03:41.771Z</time>
      </trkpt>
      <trkpt lat="47.550878" lon="7.895158">
        <ele>324.214232</ele>
        <time>2021-11-20T19:03:45.834Z</time>
      </trkpt>
      <trkpt lat="47.550908" lon="7.894308">
        <ele>324.952017</ele>
        <time>2021-11-20T19:03:56.306Z</time>
      </trkpt>
      <trkpt lat="47.550892" lon="7.893176">
        <ele>327.180174</ele>
        <time>2021-11-20T19:04:11.023Z</time>
      </trkpt>
      <trkpt lat="47.550904" lon="7.891725">
        <ele>330.109538</ele>
        <time>2021-11-20T19:04:40.785Z</time>
      </trkpt>
      <trkpt lat="47.550915" lon="7.890600">
        <ele>334.413939</ele>
        <time>2021-11-20T19:05:09.625Z</time>
      </trkpt>
      <trkpt lat="47.550833" lon="7.889069">
        <ele>340.656815</ele>
        <time>2021-11-20T19:05:52.259Z</time>
      </trkpt>
      <trkpt lat="47.550831" lon="7.888611">
        <ele>342.503123</ele>
        <time>2021-11-20T19:06:04.829Z</time>
      </trkpt>
      <trkpt lat="47.550789" lon="7.887816">
        <ele>345.706406</ele>
        <time>2021-11-20T19:06:25.441Z</time>
      </trkpt>
      <trkpt lat="47.550758" lon="7.887295">
        <ele>347.807381</ele>
        <time>2021-11-20T19:06:39.262Z</time>
      </trkpt>
      <trkpt lat="47.550677" lon="7.886476">
        <ele>351.132443</ele>
        <time>2021-11-20T19:07:00.751Z</time>
      </trkpt>
      <trkpt lat="47.550548" lon="7.885799">
        <ele>353.561033</ele>
        <time>2021-11-20T19:07:17.954Z</time>
      </trkpt>
      <trkpt lat="47.550391" lon="7.885109">
        <ele>355.918113</ele>
        <time>2021-11-20T19:07:35.592Z</time>
      </trkpt>
      <trkpt lat="47.550332" lon="7.884727">
        <ele>357.186637</ele>
        <time>2021-11-20T19:07:44.282Z</time>
      </trkpt>
      <trkpt lat="47.550234" lon="7.883221">
        <ele>361.669757</ele>
        <time>2021-11-20T19:08:17.114Z</time>
      </trkpt>
      <trkpt lat="47.549927" lon="7.881490">
        <ele>365.909401</ele>
        <time>2021-11-20T19:08:49.377Z</time>
      </trkpt>
      <trkpt lat="47.549726" lon="7.880786">
        <ele>367.900025</ele>
        <time>2021-11-20T19:09:05.354Z</time>
      </trkpt>
      <trkpt lat="47.549327" lon="7.879547">
        <ele>371.825444</ele>
        <time>2021-11-20T19:09:35.138Z</time>
      </trkpt>
      <trkpt lat="47.549318" lon="7.879398">
        <ele>372.253202</ele>
        <time>2021-11-20T19:09:38.326Z</time>
      </trkpt>
      <trkpt lat="47.549140" lon="7.879391">
        <ele>373.007561</ele>
        <time>2021-11-20T19:09:45.197Z</time>
      </trkpt>
      <trkpt lat="47.548718" lon="7.879258">
        <ele>374.667774</ele>
        <time>2021-11-20T19:09:58.867Z</time>
      </trkpt>
      <trkpt lat="47.548422" lon="7.878959">
        <ele>375.486690</ele>
        <time>2021-11-20T19:10:09.514Z</time>
      </trkpt>
      <trkpt lat="47.548234" lon="7.878638">
        <ele>376.142407</ele>
        <time>2021-11-20T19:10:17.946Z</time>
      </trkpt>
      <trkpt lat="47.547992" lon="7.877974">
        <ele>377.306693</ele>
        <time>2021-11-20T19:10:31.044Z</time>
      </trkpt>
      <trkpt lat="47.547574" lon="7.876801">
        <ele>377.745968</ele>
        <time>2021-11-20T19:10:44.807Z</time>
      </trkpt>
      <trkpt lat="47.547126" lon="7.875801">
        <ele>375.734415</ele>
        <time>2021-11-20T19:10:53.589Z</time>
      </trkpt>
      <trkpt lat="47.546309" lon="7.874154">
        <ele>369.793678</ele>
        <time>2021-11-20T19:11:06.778Z</time>
      </trkpt>
      <trkpt lat="47.546135" lon="7.873859">
        <ele>368.223695</ele>
        <time>2021-11-20T19:11:09.160Z</time>
      </trkpt>
      <trkpt lat="47.546077" lon="7.873763">
        <ele>367.707372</ele>
        <time>2021-11-20T19:11:09.971Z</time>
      </trkpt>
      <trkpt lat="47.545934" lon="7.873549">
        <ele>366.500595</ele>
        <time>2021-11-20T19:11:11.775Z</time>
      </trkpt>
      <trkpt lat="47.545746" lon="7.873302">
        <ele>365.008723</ele>
        <time>2021-11-20T19:11:14.064Z</time>
      </trkpt>
      <trkpt lat="47.545515" lon="7.873015">
        <ele>363.187026</ele>
        <time>2021-11-20T19:11:16.762Z</time>
      </trkpt>
      <trkpt lat="47.545478" lon="7.872968">
        <ele>362.855722</ele>
        <time>2021-11-20T19:11:17.204Z</time>
      </trkpt>
      <trkpt lat="47.545375" lon="7.872836">
        <ele>361.929961</ele>
        <time>2021-11-20T19:11:18.398Z</time>
      </trkpt>
      <trkpt lat="47.545131" lon="7.872664">
        <ele>360.093175</ele>
        <time>2021-11-20T19:11:20.856Z</time>
      </trkpt>
      <trkpt lat="47.544883" lon="7.872555">
        <ele>358.334763</ele>
        <time>2021-11-20T19:11:23.179Z</time>
      </trkpt>
      <trkpt lat="47.544390" lon="7.872423">
        <ele>354.929289</ele>
        <time>2021-11-20T19:11:27.641Z</time>
      </trkpt>
      <trkpt lat="47.543332" lon="7.872237">
        <ele>351.211714</ele>
        <time>2021-11-20T19:11:37.403Z</time>
      </trkpt>
      <trkpt lat="47.543251" lon="7.872152">
        <ele>351.211714</ele>
        <time>2021-11-20T19:11:38.353Z</time>
      </trkpt>
      <trkpt lat="47.543233" lon="7.872082">
        <ele>351.211714</ele>
        <time>2021-11-20T19:11:38.774Z</time>
      </trkpt>
      <trkpt lat="47.543013" lon="7.872182">
        <ele>351.211714</ele>
        <time>2021-11-20T19:11:41.008Z</time>
      </trkpt>
      <trkpt lat="47.542919" lon="7.872226">
        <ele>351.211714</ele>
        <time>2021-11-20T19:11:41.942Z</time>
      </trkpt>
      <trkpt lat="47.542814" lon="7.872280">
        <ele>351.211714</ele>
        <time>2021-11-20T19:11:42.993Z</time>
      </trkpt>
      <trkpt lat="47.542714" lon="7.872334">
        <ele>351.211714</ele>
        <time>2021-11-20T19:11:44.059Z</time>
      </trkpt>
      <trkpt lat="47.542537" lon="7.872430">
        <ele>351.211714</ele>
        <time>2021-11-20T19:11:45.801Z</time>
      </trkpt>
      <trkpt lat="47.542436" lon="7.872494">
        <ele>351.211714</ele>
        <time>2021-11-20T19:11:47.079Z</time>
      </trkpt>
      <trkpt lat="47.542394" lon="7.872341">
        <ele>351.211714</ele>
        <time>2021-11-20T19:11:48.159Z</time>
      </trkpt>
      <trkpt lat="47.542218" lon="7.871866">
        <ele>351.211714</ele>
        <time>2021-11-20T19:11:51.817Z</time>
      </trkpt>
      <trkpt lat="47.542091" lon="7.871721">
        <ele>351.211714</ele>
        <time>2021-11-20T19:11:53.343Z</time>
      </trkpt>
      <trkpt lat="47.542067" lon="7.871664">
        <ele>351.211714</ele>
        <time>2021-11-20T19:11:54.017Z</time>
      </trkpt>
      <trkpt lat="47.542039" lon="7.871556">
        <ele>351.211714</ele>
        <time>2021-11-20T19:11:54.874Z</time>
      </trkpt>
      <trkpt lat="47.542039" lon="7.871556">
        <ele>351.211714</ele>
        <time>2021-11-20T19:11:54.875Z</time>
      </trkpt>
    </trkseg>
  </trk>
</gpx>